<?xml version="1.0" encoding="UTF-8" standalone="no" ?>
<gpx xmlns="http://www.topografix.com/GPX/1/1" creator="MapSource 6.16.2" version="1.1" xmlns:xsi="http://www.w3.org/2001/XMLSchema-instance" xsi:schemaLocation="http://www.topografix.com/GPX/1/1 http://www.topografix.com/GPX/1/1/gpx.xsd">

  <metadata>
    <link href="http://www.garmin.com">
      <text>Garmin International</text>
    </link>
    <time>2012-08-01T18:15:44Z</time>
    <bounds maxlat="53.592824041843414" maxlon="27.053707027807832" minlat="53.394281985238194" minlon="26.74940999597311"/>
  </metadata>

  <trk>
    <name>Текущий трек: 28 ИЮЛ 2012 10:26</name>
    <trkseg>
      <trkpt lat="53.592711975798011" lon="27.052013967186213">
        <ele>183.75</ele>
        <time>2012-07-28T07:26:07Z</time>
      </trkpt>
      <trkpt lat="53.592824041843414" lon="27.052207002416253">
        <ele>181.34999999999999</ele>
        <time>2012-07-28T07:26:21Z</time>
      </trkpt>
      <trkpt lat="53.592824041843414" lon="27.052237009629607">
        <ele>180.87</ele>
        <time>2012-07-28T07:26:23Z</time>
      </trkpt>
      <trkpt lat="53.592740977182984" lon="27.052267016842961">
        <ele>178.46000000000001</ele>
        <time>2012-07-28T07:26:34Z</time>
      </trkpt>
      <trkpt lat="53.592726979404688" lon="27.052271040156484">
        <ele>179.90000000000001</ele>
        <time>2012-07-28T07:27:06Z</time>
      </trkpt>
      <trkpt lat="53.592727985233068" lon="27.052271040156484">
        <ele>184.71000000000001</ele>
        <time>2012-07-28T07:27:33Z</time>
      </trkpt>
      <trkpt lat="53.592728991061449" lon="27.052275985479355">
        <ele>184.22999999999999</ele>
        <time>2012-07-28T07:28:05Z</time>
      </trkpt>
      <trkpt lat="53.592727985233068" lon="27.052274979650974">
        <ele>184.22999999999999</ele>
        <time>2012-07-28T07:30:12Z</time>
      </trkpt>
      <trkpt lat="53.592727985233068" lon="27.052269028499722">
        <ele>184.22999999999999</ele>
        <time>2012-07-28T07:31:03Z</time>
      </trkpt>
      <trkpt lat="53.592689009383321" lon="27.052247989922762">
        <ele>182.78999999999999</ele>
        <time>2012-07-28T07:31:37Z</time>
      </trkpt>
      <trkpt lat="53.592679034918547" lon="27.052256036549807">
        <ele>183.27000000000001</ele>
        <time>2012-07-28T07:32:02Z</time>
      </trkpt>
      <trkpt lat="53.59266503714025" lon="27.052290989086032">
        <ele>182.78999999999999</ele>
        <time>2012-07-28T07:32:05Z</time>
      </trkpt>
      <trkpt lat="53.592691021040082" lon="27.052352009341121">
        <ele>182.78999999999999</ele>
        <time>2012-07-28T07:32:16Z</time>
      </trkpt>
      <trkpt lat="53.592689009383321" lon="27.052066018804908">
        <ele>184.22999999999999</ele>
        <time>2012-07-28T07:32:27Z</time>
      </trkpt>
      <trkpt lat="53.592458004131913" lon="27.051578024402261">
        <ele>182.78999999999999</ele>
        <time>2012-07-28T07:32:44Z</time>
      </trkpt>
      <trkpt lat="53.592464961111546" lon="27.051604008302093">
        <ele>182.78999999999999</ele>
        <time>2012-07-28T07:32:47Z</time>
      </trkpt>
      <trkpt lat="53.592672999948263" lon="27.052110023796558">
        <ele>181.83000000000001</ele>
        <time>2012-07-28T07:32:58Z</time>
      </trkpt>
      <trkpt lat="53.592726979404688" lon="27.052304986864328">
        <ele>181.34999999999999</ele>
        <time>2012-07-28T07:33:08Z</time>
      </trkpt>
      <trkpt lat="53.592726979404688" lon="27.052304986864328">
        <ele>181.34999999999999</ele>
        <time>2012-07-28T07:33:25Z</time>
      </trkpt>
      <trkpt lat="53.592728991061449" lon="27.052310016006231">
        <ele>181.34999999999999</ele>
        <time>2012-07-28T07:33:41Z</time>
      </trkpt>
      <trkpt lat="53.592728991061449" lon="27.052310016006231">
        <ele>181.34999999999999</ele>
        <time>2012-07-28T07:34:13Z</time>
      </trkpt>
      <trkpt lat="53.59273100271821" lon="27.052326025441289">
        <ele>181.83000000000001</ele>
        <time>2012-07-28T07:35:28Z</time>
      </trkpt>
      <trkpt lat="53.592735026031733" lon="27.052333988249302">
        <ele>181.83000000000001</ele>
        <time>2012-07-28T07:35:44Z</time>
      </trkpt>
      <trkpt lat="53.592724967747927" lon="27.052341029047966">
        <ele>182.31</ele>
        <time>2012-07-28T07:36:07Z</time>
      </trkpt>
      <trkpt lat="53.592727985233068" lon="27.052332982420921">
        <ele>182.78999999999999</ele>
        <time>2012-07-28T07:38:00Z</time>
      </trkpt>
      <trkpt lat="53.592724967747927" lon="27.052300041541457">
        <ele>183.27000000000001</ele>
        <time>2012-07-28T07:38:09Z</time>
      </trkpt>
      <trkpt lat="53.592562023550272" lon="27.0518350135535">
        <ele>182.78999999999999</ele>
        <time>2012-07-28T07:38:21Z</time>
      </trkpt>
      <trkpt lat="53.592376029118896" lon="27.051375014707446">
        <ele>183.27000000000001</ele>
        <time>2012-07-28T07:38:34Z</time>
      </trkpt>
      <trkpt lat="53.592162039130926" lon="27.05097796395421">
        <ele>183.27000000000001</ele>
        <time>2012-07-28T07:38:47Z</time>
      </trkpt>
      <trkpt lat="53.592018960043788" lon="27.050776965916157">
        <ele>182.78999999999999</ele>
        <time>2012-07-28T07:38:51Z</time>
      </trkpt>
      <trkpt lat="53.591799018904567" lon="27.050640005618334">
        <ele>182.31</ele>
        <time>2012-07-28T07:38:56Z</time>
      </trkpt>
      <trkpt lat="53.591231983155012" lon="27.050583008676767">
        <ele>181.83000000000001</ele>
        <time>2012-07-28T07:39:11Z</time>
      </trkpt>
      <trkpt lat="53.590787993744016" lon="27.050640005618334">
        <ele>181.83000000000001</ele>
        <time>2012-07-28T07:39:24Z</time>
      </trkpt>
      <trkpt lat="53.590571992099285" lon="27.05123201943934">
        <ele>182.31</ele>
        <time>2012-07-28T07:39:36Z</time>
      </trkpt>
      <trkpt lat="53.590318020433187" lon="27.052015978842974">
        <ele>183.27000000000001</ele>
        <time>2012-07-28T07:39:49Z</time>
      </trkpt>
      <trkpt lat="53.590051978826523" lon="27.052721986547112">
        <ele>182.31</ele>
        <time>2012-07-28T07:40:02Z</time>
      </trkpt>
      <trkpt lat="53.589751990512013" lon="27.053113002330065">
        <ele>182.78999999999999</ele>
        <time>2012-07-28T07:40:13Z</time>
      </trkpt>
      <trkpt lat="53.589352006092668" lon="27.053391030058265">
        <ele>182.31</ele>
        <time>2012-07-28T07:40:26Z</time>
      </trkpt>
      <trkpt lat="53.589011030271649" lon="27.053464958444238">
        <ele>182.78999999999999</ele>
        <time>2012-07-28T07:40:37Z</time>
      </trkpt>
      <trkpt lat="53.588668964803219" lon="27.053707027807832">
        <ele>183.75</ele>
        <time>2012-07-28T07:40:50Z</time>
      </trkpt>
      <trkpt lat="53.588414993137121" lon="27.053606025874615">
        <ele>184.71000000000001</ele>
        <time>2012-07-28T07:41:01Z</time>
      </trkpt>
      <trkpt lat="53.588192034512758" lon="27.052989033982158">
        <ele>186.63</ele>
        <time>2012-07-28T07:41:15Z</time>
      </trkpt>
      <trkpt lat="53.588081980124116" lon="27.052597012370825">
        <ele>188.08000000000001</ele>
        <time>2012-07-28T07:41:25Z</time>
      </trkpt>
      <trkpt lat="53.587931022047997" lon="27.052691979333758">
        <ele>187.59</ele>
        <time>2012-07-28T07:41:31Z</time>
      </trkpt>
      <trkpt lat="53.587342025712132" lon="27.052647974342108">
        <ele>188.56</ele>
        <time>2012-07-28T07:41:48Z</time>
      </trkpt>
      <trkpt lat="53.587047988548875" lon="27.052771020680666">
        <ele>188.56</ele>
        <time>2012-07-28T07:41:59Z</time>
      </trkpt>
      <trkpt lat="53.586635012179613" lon="27.052743025124073">
        <ele>190</ele>
        <time>2012-07-28T07:42:12Z</time>
      </trkpt>
      <trkpt lat="53.586325971409678" lon="27.052567005157471">
        <ele>190.47999999999999</ele>
        <time>2012-07-28T07:42:23Z</time>
      </trkpt>
      <trkpt lat="53.585754996165633" lon="27.05250196158886">
        <ele>190.96000000000001</ele>
        <time>2012-07-28T07:42:40Z</time>
      </trkpt>
      <trkpt lat="53.585294997319579" lon="27.052363995462656">
        <ele>190.96000000000001</ele>
        <time>2012-07-28T07:42:56Z</time>
      </trkpt>
      <trkpt lat="53.584875985980034" lon="27.052439013496041">
        <ele>189.52000000000001</ele>
        <time>2012-07-28T07:43:09Z</time>
      </trkpt>
      <trkpt lat="53.584387991577387" lon="27.052383022382855">
        <ele>188.08000000000001</ele>
        <time>2012-07-28T07:43:21Z</time>
      </trkpt>
      <trkpt lat="53.583906032145023" lon="27.052356032654643">
        <ele>188.56</ele>
        <time>2012-07-28T07:43:34Z</time>
      </trkpt>
      <trkpt lat="53.583464976400137" lon="27.052248995751143">
        <ele>189.03999999999999</ele>
        <time>2012-07-28T07:43:47Z</time>
      </trkpt>
      <trkpt lat="53.583392975851893" lon="27.05222100019455">
        <ele>188.56</ele>
        <time>2012-07-28T07:43:58Z</time>
      </trkpt>
      <trkpt lat="53.583392975851893" lon="27.05222100019455">
        <ele>188.56</ele>
        <time>2012-07-28T07:44:06Z</time>
      </trkpt>
      <trkpt lat="53.583285016939044" lon="27.052142964676023">
        <ele>188.56</ele>
        <time>2012-07-28T07:44:13Z</time>
      </trkpt>
      <trkpt lat="53.582901963964105" lon="27.051842976361513">
        <ele>187.11000000000001</ele>
        <time>2012-07-28T07:44:27Z</time>
      </trkpt>
      <trkpt lat="53.582233004271984" lon="27.051403010264039">
        <ele>186.15000000000001</ele>
        <time>2012-07-28T07:44:43Z</time>
      </trkpt>
      <trkpt lat="53.581619029864669" lon="27.050936976447701">
        <ele>183.27000000000001</ele>
        <time>2012-07-28T07:44:57Z</time>
      </trkpt>
      <trkpt lat="53.580982005223632" lon="27.050334988161922">
        <ele>182.31</ele>
        <time>2012-07-28T07:45:12Z</time>
      </trkpt>
      <trkpt lat="53.580574980005622" lon="27.049724031239748">
        <ele>183.27000000000001</ele>
        <time>2012-07-28T07:45:27Z</time>
      </trkpt>
      <trkpt lat="53.580431984737515" lon="27.049298984929919">
        <ele>182.31</ele>
        <time>2012-07-28T07:45:34Z</time>
      </trkpt>
      <trkpt lat="53.580164015293121" lon="27.048680987209082">
        <ele>182.78999999999999</ele>
        <time>2012-07-28T07:45:47Z</time>
      </trkpt>
      <trkpt lat="53.58013803139329" lon="27.048632958903909">
        <ele>182.78999999999999</ele>
        <time>2012-07-28T07:45:48Z</time>
      </trkpt>
      <trkpt lat="53.579802000895143" lon="27.048123003914952">
        <ele>181.83000000000001</ele>
        <time>2012-07-28T07:46:01Z</time>
      </trkpt>
      <trkpt lat="53.579572001472116" lon="27.047710027545691">
        <ele>182.78999999999999</ele>
        <time>2012-07-28T07:46:11Z</time>
      </trkpt>
      <trkpt lat="53.579300008714199" lon="27.047242987900972">
        <ele>184.22999999999999</ele>
        <time>2012-07-28T07:46:23Z</time>
      </trkpt>
      <trkpt lat="53.578959032893181" lon="27.046681987121701">
        <ele>185.19</ele>
        <time>2012-07-28T07:46:37Z</time>
      </trkpt>
      <trkpt lat="53.578667007386684" lon="27.046164991334081">
        <ele>186.63</ele>
        <time>2012-07-28T07:46:50Z</time>
      </trkpt>
      <trkpt lat="53.578340029343963" lon="27.045564008876681">
        <ele>190.47999999999999</ele>
        <time>2012-07-28T07:47:06Z</time>
      </trkpt>
      <trkpt lat="53.578132996335626" lon="27.045195959508419">
        <ele>193.36000000000001</ele>
        <time>2012-07-28T07:47:21Z</time>
      </trkpt>
      <trkpt lat="53.5781429708004" lon="27.045207023620605">
        <ele>193.84</ele>
        <time>2012-07-28T07:48:15Z</time>
      </trkpt>
      <trkpt lat="53.578136013820767" lon="27.045166958123446">
        <ele>194.31999999999999</ele>
        <time>2012-07-28T07:48:27Z</time>
      </trkpt>
      <trkpt lat="53.578088991343975" lon="27.045100992545485">
        <ele>194.80000000000001</ele>
        <time>2012-07-28T07:48:47Z</time>
      </trkpt>
      <trkpt lat="53.578063007444143" lon="27.045054975897074">
        <ele>194.80000000000001</ele>
        <time>2012-07-28T07:48:51Z</time>
      </trkpt>
      <trkpt lat="53.577913977205753" lon="27.044741995632648">
        <ele>197.21000000000001</ele>
        <time>2012-07-28T07:48:58Z</time>
      </trkpt>
      <trkpt lat="53.577593034133315" lon="27.044093990698457">
        <ele>202.00999999999999</ele>
        <time>2012-07-28T07:49:11Z</time>
      </trkpt>
      <trkpt lat="53.577374015003443" lon="27.043809005990624">
        <ele>204.41999999999999</ele>
        <time>2012-07-28T07:49:23Z</time>
      </trkpt>
      <trkpt lat="53.577221967279911" lon="27.043536007404327">
        <ele>204.90000000000001</ele>
        <time>2012-07-28T07:49:41Z</time>
      </trkpt>
      <trkpt lat="53.576930025592446" lon="27.04281298443675">
        <ele>204.41999999999999</ele>
        <time>2012-07-28T07:49:54Z</time>
      </trkpt>
      <trkpt lat="53.576643029227853" lon="27.042250977829099">
        <ele>204.41999999999999</ele>
        <time>2012-07-28T07:50:07Z</time>
      </trkpt>
      <trkpt lat="53.576397020369768" lon="27.041772035881877">
        <ele>203.94</ele>
        <time>2012-07-28T07:50:21Z</time>
      </trkpt>
      <trkpt lat="53.576156962662935" lon="27.041210029274225">
        <ele>202.97999999999999</ele>
        <time>2012-07-28T07:50:35Z</time>
      </trkpt>
      <trkpt lat="53.575932998210192" lon="27.040681969374418">
        <ele>202.49000000000001</ele>
        <time>2012-07-28T07:50:47Z</time>
      </trkpt>
      <trkpt lat="53.575634015724063" lon="27.040173020213842">
        <ele>201.53</ele>
        <time>2012-07-28T07:51:00Z</time>
      </trkpt>
      <trkpt lat="53.575355987995863" lon="27.039601961150765">
        <ele>202.97999999999999</ele>
        <time>2012-07-28T07:51:14Z</time>
      </trkpt>
      <trkpt lat="53.575103022158146" lon="27.039091000333428">
        <ele>204.90000000000001</ele>
        <time>2012-07-28T07:51:27Z</time>
      </trkpt>
      <trkpt lat="53.574876040220261" lon="27.038536034524441">
        <ele>208.25999999999999</ele>
        <time>2012-07-28T07:51:41Z</time>
      </trkpt>
      <trkpt lat="53.574529029428959" lon="27.037858022376895">
        <ele>213.06999999999999</ele>
        <time>2012-07-28T07:51:56Z</time>
      </trkpt>
      <trkpt lat="53.574281008914113" lon="27.037296015769243">
        <ele>212.11000000000001</ele>
        <time>2012-07-28T07:52:08Z</time>
      </trkpt>
      <trkpt lat="53.574021002277732" lon="27.036630995571613">
        <ele>204.90000000000001</ele>
        <time>2012-07-28T07:52:21Z</time>
      </trkpt>
      <trkpt lat="53.573775999248028" lon="27.036061026155949">
        <ele>202.97999999999999</ele>
        <time>2012-07-28T07:52:33Z</time>
      </trkpt>
      <trkpt lat="53.573446003720164" lon="27.035318976268172">
        <ele>200.56999999999999</ele>
        <time>2012-07-28T07:52:50Z</time>
      </trkpt>
      <trkpt lat="53.57317702844739" lon="27.034697961062193">
        <ele>201.05000000000001</ele>
        <time>2012-07-28T07:53:06Z</time>
      </trkpt>
      <trkpt lat="53.572926996275783" lon="27.034116005524993">
        <ele>201.53</ele>
        <time>2012-07-28T07:53:19Z</time>
      </trkpt>
      <trkpt lat="53.572628013789654" lon="27.033522985875607">
        <ele>201.53</ele>
        <time>2012-07-28T07:53:32Z</time>
      </trkpt>
      <trkpt lat="53.572369012981653" lon="27.032957039773464">
        <ele>203.46000000000001</ele>
        <time>2012-07-28T07:53:45Z</time>
      </trkpt>
      <trkpt lat="53.572130966931581" lon="27.032508021220565">
        <ele>204.41999999999999</ele>
        <time>2012-07-28T07:53:57Z</time>
      </trkpt>
      <trkpt lat="53.571817986667156" lon="27.032014997676015">
        <ele>205.38</ele>
        <time>2012-07-28T07:54:11Z</time>
      </trkpt>
      <trkpt lat="53.571515986695886" lon="27.031631022691727">
        <ele>205.86000000000001</ele>
        <time>2012-07-28T07:54:24Z</time>
      </trkpt>
      <trkpt lat="53.5711819678545" lon="27.031344026327133">
        <ele>205.86000000000001</ele>
        <time>2012-07-28T07:54:36Z</time>
      </trkpt>
      <trkpt lat="53.570757005363703" lon="27.030983017757535">
        <ele>206.34</ele>
        <time>2012-07-28T07:54:50Z</time>
      </trkpt>
      <trkpt lat="53.570308992639184" lon="27.030613040551543">
        <ele>206.34</ele>
        <time>2012-07-28T07:55:05Z</time>
      </trkpt>
      <trkpt lat="53.569917976856232" lon="27.03028597868979">
        <ele>206.81999999999999</ele>
        <time>2012-07-28T07:55:18Z</time>
      </trkpt>
      <trkpt lat="53.569473987445235" lon="27.029902003705502">
        <ele>206.81999999999999</ele>
        <time>2012-07-28T07:55:33Z</time>
      </trkpt>
      <trkpt lat="53.569050030782819" lon="27.029526997357607">
        <ele>207.78</ele>
        <time>2012-07-28T07:55:48Z</time>
      </trkpt>
      <trkpt lat="53.568630013614893" lon="27.029192978516221">
        <ele>208.25999999999999</ele>
        <time>2012-07-28T07:56:01Z</time>
      </trkpt>
      <trkpt lat="53.568307980895042" lon="27.028884021565318">
        <ele>206.81999999999999</ele>
        <time>2012-07-28T07:56:15Z</time>
      </trkpt>
      <trkpt lat="53.56793599203229" lon="27.028614040464163">
        <ele>204.90000000000001</ele>
        <time>2012-07-28T07:56:28Z</time>
      </trkpt>
      <trkpt lat="53.567547993734479" lon="27.028299970552325">
        <ele>204.41999999999999</ele>
        <time>2012-07-28T07:56:40Z</time>
      </trkpt>
      <trkpt lat="53.56718203984201" lon="27.027985984459519">
        <ele>204.41999999999999</ele>
        <time>2012-07-28T07:56:53Z</time>
      </trkpt>
      <trkpt lat="53.56684098020196" lon="27.027689013630152">
        <ele>205.38</ele>
        <time>2012-07-28T07:57:06Z</time>
      </trkpt>
      <trkpt lat="53.566403025761247" lon="27.02736203558743">
        <ele>205.86000000000001</ele>
        <time>2012-07-28T07:57:19Z</time>
      </trkpt>
      <trkpt lat="53.566016033291817" lon="27.027015024796128">
        <ele>205.38</ele>
        <time>2012-07-28T07:57:31Z</time>
      </trkpt>
      <trkpt lat="53.565549999475479" lon="27.026614034548402">
        <ele>203.94</ele>
        <time>2012-07-28T07:57:45Z</time>
      </trkpt>
      <trkpt lat="53.565157977864146" lon="27.026294013485312">
        <ele>204.90000000000001</ele>
        <time>2012-07-28T07:57:58Z</time>
      </trkpt>
      <trkpt lat="53.564764028415084" lon="27.025897968560457">
        <ele>206.81999999999999</ele>
        <time>2012-07-28T07:58:14Z</time>
      </trkpt>
      <trkpt lat="53.564439984038472" lon="27.025436041876674">
        <ele>205.86000000000001</ele>
        <time>2012-07-28T07:58:28Z</time>
      </trkpt>
      <trkpt lat="53.564167991280556" lon="27.024804968386889">
        <ele>204.41999999999999</ele>
        <time>2012-07-28T07:58:42Z</time>
      </trkpt>
      <trkpt lat="53.563930029049516" lon="27.024158975109458">
        <ele>203.94</ele>
        <time>2012-07-28T07:58:56Z</time>
      </trkpt>
      <trkpt lat="53.563727019354701" lon="27.023512981832027">
        <ele>202.00999999999999</ele>
        <time>2012-07-28T07:59:10Z</time>
      </trkpt>
      <trkpt lat="53.563549993559718" lon="27.022888027131557">
        <ele>201.05000000000001</ele>
        <time>2012-07-28T07:59:24Z</time>
      </trkpt>
      <trkpt lat="53.563357964158058" lon="27.022277992218733">
        <ele>200.56999999999999</ele>
        <time>2012-07-28T07:59:37Z</time>
      </trkpt>
      <trkpt lat="53.563158977776766" lon="27.021553963422775">
        <ele>200.09</ele>
        <time>2012-07-28T07:59:52Z</time>
      </trkpt>
      <trkpt lat="53.562972983345389" lon="27.020864970982075">
        <ele>197.21000000000001</ele>
        <time>2012-07-28T08:00:05Z</time>
      </trkpt>
      <trkpt lat="53.562784977257252" lon="27.020115964114666">
        <ele>195.77000000000001</ele>
        <time>2012-07-28T08:00:20Z</time>
      </trkpt>
      <trkpt lat="53.562625972554088" lon="27.019525039941072">
        <ele>195.77000000000001</ele>
        <time>2012-07-28T08:00:33Z</time>
      </trkpt>
      <trkpt lat="53.562413994222879" lon="27.018890026956797">
        <ele>197.21000000000001</ele>
        <time>2012-07-28T08:00:46Z</time>
      </trkpt>
      <trkpt lat="53.562204027548432" lon="27.018199022859335">
        <ele>198.65000000000001</ele>
        <time>2012-07-28T08:01:00Z</time>
      </trkpt>
      <trkpt lat="53.562027001753449" lon="27.017583036795259">
        <ele>195.77000000000001</ele>
        <time>2012-07-28T08:01:14Z</time>
      </trkpt>
      <trkpt lat="53.561915019527078" lon="27.017249017953873">
        <ele>194.80000000000001</ele>
        <time>2012-07-28T08:01:26Z</time>
      </trkpt>
      <trkpt lat="53.561913007870317" lon="27.017227979376912">
        <ele>195.28</ele>
        <time>2012-07-28T08:02:33Z</time>
      </trkpt>
      <trkpt lat="53.561904039233923" lon="27.017140975221992">
        <ele>195.28</ele>
        <time>2012-07-28T08:02:36Z</time>
      </trkpt>
      <trkpt lat="53.561847964301705" lon="27.016965039074421">
        <ele>195.28</ele>
        <time>2012-07-28T08:02:41Z</time>
      </trkpt>
      <trkpt lat="53.561776969581842" lon="27.016755994409323">
        <ele>195.28</ele>
        <time>2012-07-28T08:02:48Z</time>
      </trkpt>
      <trkpt lat="53.561711004003882" lon="27.016424993053079">
        <ele>195.77000000000001</ele>
        <time>2012-07-28T08:03:01Z</time>
      </trkpt>
      <trkpt lat="53.561714021489024" lon="27.016421975567937">
        <ele>195.77000000000001</ele>
        <time>2012-07-28T08:03:33Z</time>
      </trkpt>
      <trkpt lat="53.561617964878678" lon="27.016166998073459">
        <ele>198.16999999999999</ele>
        <time>2012-07-28T08:03:48Z</time>
      </trkpt>
      <trkpt lat="53.561403974890709" lon="27.015340961515903">
        <ele>197.69</ele>
        <time>2012-07-28T08:04:02Z</time>
      </trkpt>
      <trkpt lat="53.561185961589217" lon="27.014581980183721">
        <ele>202.00999999999999</ele>
        <time>2012-07-28T08:04:15Z</time>
      </trkpt>
      <trkpt lat="53.561007007956505" lon="27.013875972479582">
        <ele>205.86000000000001</ele>
        <time>2012-07-28T08:04:27Z</time>
      </trkpt>
      <trkpt lat="53.560805004090071" lon="27.013177005574107">
        <ele>206.34</ele>
        <time>2012-07-28T08:04:40Z</time>
      </trkpt>
      <trkpt lat="53.560547009110451" lon="27.012521959841251">
        <ele>195.28</ele>
        <time>2012-07-28T08:04:53Z</time>
      </trkpt>
      <trkpt lat="53.56043997220695" lon="27.012081993743777">
        <ele>192.88</ele>
        <time>2012-07-28T08:05:03Z</time>
      </trkpt>
      <trkpt lat="53.560365960001945" lon="27.011811006814241">
        <ele>192.88</ele>
        <time>2012-07-28T08:05:07Z</time>
      </trkpt>
      <trkpt lat="53.560172002762556" lon="27.011165013536811">
        <ele>189.52000000000001</ele>
        <time>2012-07-28T08:05:19Z</time>
      </trkpt>
      <trkpt lat="53.560156999155879" lon="27.011160990223289">
        <ele>188.56</ele>
        <time>2012-07-28T08:05:25Z</time>
      </trkpt>
      <trkpt lat="53.560184994712472" lon="27.010786989703774">
        <ele>187.11000000000001</ele>
        <time>2012-07-28T08:05:39Z</time>
      </trkpt>
      <trkpt lat="53.559967987239361" lon="27.010309975594282">
        <ele>186.63</ele>
        <time>2012-07-28T08:05:49Z</time>
      </trkpt>
      <trkpt lat="53.559624999761581" lon="27.009894987568259">
        <ele>186.63</ele>
        <time>2012-07-28T08:06:02Z</time>
      </trkpt>
      <trkpt lat="53.559324005618691" lon="27.009481005370617">
        <ele>190.47999999999999</ele>
        <time>2012-07-28T08:06:17Z</time>
      </trkpt>
      <trkpt lat="53.55908595956862" lon="27.009069034829736">
        <ele>197.21000000000001</ele>
        <time>2012-07-28T08:06:31Z</time>
      </trkpt>
      <trkpt lat="53.558772979304194" lon="27.00873501598835">
        <ele>202.97999999999999</ele>
        <time>2012-07-28T08:06:44Z</time>
      </trkpt>
      <trkpt lat="53.558411970734596" lon="27.008552039042115">
        <ele>206.81999999999999</ele>
        <time>2012-07-28T08:06:58Z</time>
      </trkpt>
      <trkpt lat="53.557952977716923" lon="27.008429998531938">
        <ele>204.90000000000001</ele>
        <time>2012-07-28T08:07:13Z</time>
      </trkpt>
      <trkpt lat="53.557535978034139" lon="27.008296977728605">
        <ele>203.46000000000001</ele>
        <time>2012-07-28T08:07:29Z</time>
      </trkpt>
      <trkpt lat="53.557550981640816" lon="27.008244004100561">
        <ele>201.53</ele>
        <time>2012-07-28T08:07:43Z</time>
      </trkpt>
      <trkpt lat="53.557289969176054" lon="27.008145013824105">
        <ele>202.97999999999999</ele>
        <time>2012-07-28T08:09:09Z</time>
      </trkpt>
      <trkpt lat="53.556737015023828" lon="27.00791803188622">
        <ele>200.09</ele>
        <time>2012-07-28T08:09:22Z</time>
      </trkpt>
      <trkpt lat="53.556308029219508" lon="27.007751986384392">
        <ele>196.72999999999999</ele>
        <time>2012-07-28T08:09:36Z</time>
      </trkpt>
      <trkpt lat="53.555849036201835" lon="27.007580995559692">
        <ele>194.80000000000001</ele>
        <time>2012-07-28T08:09:52Z</time>
      </trkpt>
      <trkpt lat="53.555470006540418" lon="27.007523998618126">
        <ele>194.31999999999999</ele>
        <time>2012-07-28T08:10:05Z</time>
      </trkpt>
      <trkpt lat="53.555126013234258" lon="27.007465995848179">
        <ele>192.88</ele>
        <time>2012-07-28T08:10:18Z</time>
      </trkpt>
      <trkpt lat="53.554779002442956" lon="27.007221998646855">
        <ele>197.21000000000001</ele>
        <time>2012-07-28T08:10:31Z</time>
      </trkpt>
      <trkpt lat="53.55448798276484" lon="27.00703801587224">
        <ele>200.56999999999999</ele>
        <time>2012-07-28T08:10:44Z</time>
      </trkpt>
      <trkpt lat="53.554153963923454" lon="27.006754959002137">
        <ele>201.53</ele>
        <time>2012-07-28T08:10:58Z</time>
      </trkpt>
      <trkpt lat="53.553887000307441" lon="27.006360003724694">
        <ele>201.53</ele>
        <time>2012-07-28T08:11:10Z</time>
      </trkpt>
      <trkpt lat="53.553526997566223" lon="27.006035037338734">
        <ele>202.00999999999999</ele>
        <time>2012-07-28T08:11:23Z</time>
      </trkpt>
      <trkpt lat="53.553108992055058" lon="27.005766984075308">
        <ele>203.46000000000001</ele>
        <time>2012-07-28T08:11:35Z</time>
      </trkpt>
      <trkpt lat="53.552653016522527" lon="27.005615020170808">
        <ele>204.90000000000001</ele>
        <time>2012-07-28T08:11:49Z</time>
      </trkpt>
      <trkpt lat="53.552200980484486" lon="27.005465989932418">
        <ele>202.97999999999999</ele>
        <time>2012-07-28T08:12:02Z</time>
      </trkpt>
      <trkpt lat="53.551775012165308" lon="27.005316037684679">
        <ele>200.56999999999999</ele>
        <time>2012-07-28T08:12:15Z</time>
      </trkpt>
      <trkpt lat="53.551346026360989" lon="27.005193997174501">
        <ele>199.61000000000001</ele>
        <time>2012-07-28T08:12:28Z</time>
      </trkpt>
      <trkpt lat="53.550928020849824" lon="27.005069022998214">
        <ele>199.13</ele>
        <time>2012-07-28T08:12:41Z</time>
      </trkpt>
      <trkpt lat="53.550517978146672" lon="27.004916975274682">
        <ele>198.65000000000001</ele>
        <time>2012-07-28T08:12:55Z</time>
      </trkpt>
      <trkpt lat="53.550019003450871" lon="27.004792001098394">
        <ele>197.69</ele>
        <time>2012-07-28T08:13:10Z</time>
      </trkpt>
      <trkpt lat="53.549507958814502" lon="27.004788983613253">
        <ele>197.21000000000001</ele>
        <time>2012-07-28T08:13:25Z</time>
      </trkpt>
      <trkpt lat="53.548928014934063" lon="27.00478496029973">
        <ele>197.21000000000001</ele>
        <time>2012-07-28T08:13:39Z</time>
      </trkpt>
      <trkpt lat="53.548448989167809" lon="27.004838017746806">
        <ele>199.61000000000001</ele>
        <time>2012-07-28T08:13:53Z</time>
      </trkpt>
      <trkpt lat="53.547974992543459" lon="27.004896020516753">
        <ele>198.16999999999999</ele>
        <time>2012-07-28T08:14:07Z</time>
      </trkpt>
      <trkpt lat="53.547453973442316" lon="27.005066005513072">
        <ele>193.84</ele>
        <time>2012-07-28T08:14:22Z</time>
      </trkpt>
      <trkpt lat="53.546979976817966" lon="27.00514798052609">
        <ele>194.31999999999999</ele>
        <time>2012-07-28T08:14:36Z</time>
      </trkpt>
      <trkpt lat="53.546555014327168" lon="27.005388038232923">
        <ele>190.47999999999999</ele>
        <time>2012-07-28T08:14:49Z</time>
      </trkpt>
      <trkpt lat="53.54640900157392" lon="27.00596303679049">
        <ele>185.19</ele>
        <time>2012-07-28T08:15:01Z</time>
      </trkpt>
      <trkpt lat="53.546341024339199" lon="27.006850009784102">
        <ele>181.83000000000001</ele>
        <time>2012-07-28T08:15:17Z</time>
      </trkpt>
      <trkpt lat="53.546269023790956" lon="27.007517041638494">
        <ele>181.83000000000001</ele>
        <time>2012-07-28T08:15:31Z</time>
      </trkpt>
      <trkpt lat="53.546153018251061" lon="27.007438000291586">
        <ele>182.78999999999999</ele>
        <time>2012-07-28T08:15:40Z</time>
      </trkpt>
      <trkpt lat="53.546075988560915" lon="27.00731897726655">
        <ele>183.27000000000001</ele>
        <time>2012-07-28T08:15:47Z</time>
      </trkpt>
      <trkpt lat="53.545947996899486" lon="27.007192997261882">
        <ele>183.27000000000001</ele>
        <time>2012-07-28T08:15:53Z</time>
      </trkpt>
      <trkpt lat="53.545596962794662" lon="27.006717994809151">
        <ele>184.71000000000001</ele>
        <time>2012-07-28T08:16:09Z</time>
      </trkpt>
      <trkpt lat="53.545127995312214" lon="27.006038976833224">
        <ele>185.19</ele>
        <time>2012-07-28T08:16:29Z</time>
      </trkpt>
      <trkpt lat="53.544686017557979" lon="27.005451992154121">
        <ele>186.15000000000001</ele>
        <time>2012-07-28T08:16:47Z</time>
      </trkpt>
      <trkpt lat="53.54425803758204" lon="27.004869030788541">
        <ele>186.15000000000001</ele>
        <time>2012-07-28T08:17:04Z</time>
      </trkpt>
      <trkpt lat="53.54383097961545" lon="27.004299983382225">
        <ele>186.15000000000001</ele>
        <time>2012-07-28T08:17:21Z</time>
      </trkpt>
      <trkpt lat="53.543525040149689" lon="27.003591964021325">
        <ele>187.59</ele>
        <time>2012-07-28T08:17:38Z</time>
      </trkpt>
      <trkpt lat="53.543210970237851" lon="27.002682024613023">
        <ele>188.08000000000001</ele>
        <time>2012-07-28T08:17:58Z</time>
      </trkpt>
      <trkpt lat="53.542877035215497" lon="27.001713998615742">
        <ele>187.59</ele>
        <time>2012-07-28T08:18:19Z</time>
      </trkpt>
      <trkpt lat="53.542572017759085" lon="27.000815961509943">
        <ele>187.11000000000001</ele>
        <time>2012-07-28T08:18:38Z</time>
      </trkpt>
      <trkpt lat="53.542155018076301" lon="27.000102996826172">
        <ele>185.66999999999999</ele>
        <time>2012-07-28T08:18:56Z</time>
      </trkpt>
      <trkpt lat="53.54157398454845" lon="26.999724972993135">
        <ele>183.75</ele>
        <time>2012-07-28T08:19:11Z</time>
      </trkpt>
      <trkpt lat="53.540994040668011" lon="26.999422973021865">
        <ele>181.83000000000001</ele>
        <time>2012-07-28T08:19:27Z</time>
      </trkpt>
      <trkpt lat="53.540601013228297" lon="26.999270003288984">
        <ele>179.41999999999999</ele>
        <time>2012-07-28T08:19:39Z</time>
      </trkpt>
      <trkpt lat="53.53994001634419" lon="26.99908996000886">
        <ele>177.97999999999999</ele>
        <time>2012-07-28T08:19:56Z</time>
      </trkpt>
      <trkpt lat="53.539485968649387" lon="26.998986024409533">
        <ele>177.5</ele>
        <time>2012-07-28T08:20:07Z</time>
      </trkpt>
      <trkpt lat="53.53891097009182" lon="26.998859960585833">
        <ele>176.06</ele>
        <time>2012-07-28T08:20:22Z</time>
      </trkpt>
      <trkpt lat="53.538255002349615" lon="26.998671032488346">
        <ele>175.58000000000001</ele>
        <time>2012-07-28T08:20:39Z</time>
      </trkpt>
      <trkpt lat="53.538033971562982" lon="26.998566007241607">
        <ele>175.58000000000001</ele>
        <time>2012-07-28T08:20:45Z</time>
      </trkpt>
      <trkpt lat="53.537455033510923" lon="26.998240035027266">
        <ele>176.06</ele>
        <time>2012-07-28T08:21:01Z</time>
      </trkpt>
      <trkpt lat="53.536928985267878" lon="26.997944992035627">
        <ele>176.06</ele>
        <time>2012-07-28T08:21:17Z</time>
      </trkpt>
      <trkpt lat="53.536793030798435" lon="26.997837033122778">
        <ele>176.53999999999999</ele>
        <time>2012-07-28T08:21:23Z</time>
      </trkpt>
      <trkpt lat="53.536467980593443" lon="26.99762798845768">
        <ele>176.53999999999999</ele>
        <time>2012-07-28T08:21:36Z</time>
      </trkpt>
      <trkpt lat="53.536148965358734" lon="26.997442999854684">
        <ele>176.53999999999999</ele>
        <time>2012-07-28T08:21:47Z</time>
      </trkpt>
      <trkpt lat="53.535674968734384" lon="26.997164972126484">
        <ele>177.5</ele>
        <time>2012-07-28T08:22:04Z</time>
      </trkpt>
      <trkpt lat="53.535055965185165" lon="26.99672500602901">
        <ele>177.02000000000001</ele>
        <time>2012-07-28T08:22:25Z</time>
      </trkpt>
      <trkpt lat="53.534665033221245" lon="26.996251009404659">
        <ele>176.53999999999999</ele>
        <time>2012-07-28T08:22:40Z</time>
      </trkpt>
      <trkpt lat="53.534315004944801" lon="26.995718004181981">
        <ele>175.58000000000001</ele>
        <time>2012-07-28T08:22:55Z</time>
      </trkpt>
      <trkpt lat="53.533913008868694" lon="26.995096988976002">
        <ele>175.58000000000001</ele>
        <time>2012-07-28T08:23:12Z</time>
      </trkpt>
      <trkpt lat="53.533468013629317" lon="26.99462098069489">
        <ele>177.5</ele>
        <time>2012-07-28T08:23:29Z</time>
      </trkpt>
      <trkpt lat="53.533111028373241" lon="26.994309006258845">
        <ele>180.38</ele>
        <time>2012-07-28T08:23:44Z</time>
      </trkpt>
      <trkpt lat="53.532699979841709" lon="26.993891000747681">
        <ele>182.31</ele>
        <time>2012-07-28T08:24:01Z</time>
      </trkpt>
      <trkpt lat="53.532282980158925" lon="26.993517000228167">
        <ele>184.22999999999999</ele>
        <time>2012-07-28T08:24:16Z</time>
      </trkpt>
      <trkpt lat="53.531736982986331" lon="26.99305297806859">
        <ele>183.27000000000001</ele>
        <time>2012-07-28T08:24:33Z</time>
      </trkpt>
      <trkpt lat="53.531161984428763" lon="26.992709990590811">
        <ele>181.34999999999999</ele>
        <time>2012-07-28T08:24:48Z</time>
      </trkpt>
      <trkpt lat="53.530824026092887" lon="26.992229036986828">
        <ele>181.83000000000001</ele>
        <time>2012-07-28T08:25:01Z</time>
      </trkpt>
      <trkpt lat="53.530468968674541" lon="26.991588994860649">
        <ele>182.78999999999999</ele>
        <time>2012-07-28T08:25:17Z</time>
      </trkpt>
      <trkpt lat="53.530145008116961" lon="26.990879969671369">
        <ele>183.75</ele>
        <time>2012-07-28T08:25:33Z</time>
      </trkpt>
      <trkpt lat="53.529846025630832" lon="26.99023799970746">
        <ele>183.27000000000001</ele>
        <time>2012-07-28T08:25:48Z</time>
      </trkpt>
      <trkpt lat="53.529533967375755" lon="26.989548001438379">
        <ele>183.27000000000001</ele>
        <time>2012-07-28T08:26:03Z</time>
      </trkpt>
      <trkpt lat="53.529172958806157" lon="26.988776028156281">
        <ele>184.71000000000001</ele>
        <time>2012-07-28T08:26:20Z</time>
      </trkpt>
      <trkpt lat="53.528832988813519" lon="26.988143026828766">
        <ele>185.66999999999999</ele>
        <time>2012-07-28T08:26:36Z</time>
      </trkpt>
      <trkpt lat="53.528587985783815" lon="26.987751005217433">
        <ele>185.66999999999999</ele>
        <time>2012-07-28T08:26:47Z</time>
      </trkpt>
      <trkpt lat="53.528314987197518" lon="26.987313972786069">
        <ele>186.15000000000001</ele>
        <time>2012-07-28T08:26:59Z</time>
      </trkpt>
      <trkpt lat="53.527948027476668" lon="26.986702010035515">
        <ele>186.63</ele>
        <time>2012-07-28T08:27:14Z</time>
      </trkpt>
      <trkpt lat="53.527632029727101" lon="26.986012011766434">
        <ele>187.59</ele>
        <time>2012-07-28T08:27:30Z</time>
      </trkpt>
      <trkpt lat="53.527244031429291" lon="26.985332993790507">
        <ele>187.59</ele>
        <time>2012-07-28T08:27:46Z</time>
      </trkpt>
      <trkpt lat="53.526937002316117" lon="26.984882969409227">
        <ele>187.11000000000001</ele>
        <time>2012-07-28T08:27:58Z</time>
      </trkpt>
      <trkpt lat="53.52659996598959" lon="26.984400004148483">
        <ele>190</ele>
        <time>2012-07-28T08:28:12Z</time>
      </trkpt>
      <trkpt lat="53.526185983791947" lon="26.983825005590916">
        <ele>192.88</ele>
        <time>2012-07-28T08:28:28Z</time>
      </trkpt>
      <trkpt lat="53.525866968557239" lon="26.983064012601972">
        <ele>192.88</ele>
        <time>2012-07-28T08:28:44Z</time>
      </trkpt>
      <trkpt lat="53.525731014087796" lon="26.982191037386656">
        <ele>187.11000000000001</ele>
        <time>2012-07-28T08:29:01Z</time>
      </trkpt>
      <trkpt lat="53.525454998016357" lon="26.981657026335597">
        <ele>185.19</ele>
        <time>2012-07-28T08:29:15Z</time>
      </trkpt>
      <trkpt lat="53.5251160338521" lon="26.981041962280869">
        <ele>184.22999999999999</ele>
        <time>2012-07-28T08:29:29Z</time>
      </trkpt>
      <trkpt lat="53.524593003094196" lon="26.980092041194439">
        <ele>182.78999999999999</ele>
        <time>2012-07-28T08:29:50Z</time>
      </trkpt>
      <trkpt lat="53.524367026984692" lon="26.97966699488461">
        <ele>182.31</ele>
        <time>2012-07-28T08:30:00Z</time>
      </trkpt>
      <trkpt lat="53.524277005344629" lon="26.979508996009827">
        <ele>182.78999999999999</ele>
        <time>2012-07-28T08:30:03Z</time>
      </trkpt>
      <trkpt lat="53.524012975394726" lon="26.97908797301352">
        <ele>181.83000000000001</ele>
        <time>2012-07-28T08:30:16Z</time>
      </trkpt>
      <trkpt lat="53.523901998996735" lon="26.978866020217538">
        <ele>181.34999999999999</ele>
        <time>2012-07-28T08:30:22Z</time>
      </trkpt>
      <trkpt lat="53.523836033418775" lon="26.978760994970798">
        <ele>181.83000000000001</ele>
        <time>2012-07-28T08:30:24Z</time>
      </trkpt>
      <trkpt lat="53.523454992100596" lon="26.978030009195209">
        <ele>182.78999999999999</ele>
        <time>2012-07-28T08:30:40Z</time>
      </trkpt>
      <trkpt lat="53.523428002372384" lon="26.978008970618248">
        <ele>183.27000000000001</ele>
        <time>2012-07-28T08:30:51Z</time>
      </trkpt>
      <trkpt lat="53.523426996544003" lon="26.97801198810339">
        <ele>182.78999999999999</ele>
        <time>2012-07-28T08:31:58Z</time>
      </trkpt>
      <trkpt lat="53.523425990715623" lon="26.978016011416912">
        <ele>183.27000000000001</ele>
        <time>2012-07-28T08:35:59Z</time>
      </trkpt>
      <trkpt lat="53.523430014029145" lon="26.978024980053306">
        <ele>182.78999999999999</ele>
        <time>2012-07-28T08:37:43Z</time>
      </trkpt>
      <trkpt lat="53.52346396073699" lon="26.978020034730434">
        <ele>183.27000000000001</ele>
        <time>2012-07-28T08:37:56Z</time>
      </trkpt>
      <trkpt lat="53.52346102707088" lon="26.978008970618248">
        <ele>183.27000000000001</ele>
        <time>2012-07-28T08:38:01Z</time>
      </trkpt>
      <trkpt lat="53.523377040401101" lon="26.977794980630279">
        <ele>182.31</ele>
        <time>2012-07-28T08:38:13Z</time>
      </trkpt>
      <trkpt lat="53.523234967142344" lon="26.97728200815618">
        <ele>181.34999999999999</ele>
        <time>2012-07-28T08:38:24Z</time>
      </trkpt>
      <trkpt lat="53.523012008517981" lon="26.976846987381577">
        <ele>179.90000000000001</ele>
        <time>2012-07-28T08:38:35Z</time>
      </trkpt>
      <trkpt lat="53.522950988262892" lon="26.976211974397302">
        <ele>180.87</ele>
        <time>2012-07-28T08:38:47Z</time>
      </trkpt>
      <trkpt lat="53.523019971325994" lon="26.975438995286822">
        <ele>181.34999999999999</ele>
        <time>2012-07-28T08:39:00Z</time>
      </trkpt>
      <trkpt lat="53.523060036823153" lon="26.974847987294197">
        <ele>181.34999999999999</ele>
        <time>2012-07-28T08:39:14Z</time>
      </trkpt>
      <trkpt lat="53.52305400185287" lon="26.974811023101211">
        <ele>181.34999999999999</ele>
        <time>2012-07-28T08:39:18Z</time>
      </trkpt>
      <trkpt lat="53.523057019338012" lon="26.974502988159657">
        <ele>180.38</ele>
        <time>2012-07-28T08:39:29Z</time>
      </trkpt>
      <trkpt lat="53.523050984367728" lon="26.974469963461161">
        <ele>180.38</ele>
        <time>2012-07-28T08:39:30Z</time>
      </trkpt>
      <trkpt lat="53.522946964949369" lon="26.974261002615094">
        <ele>181.34999999999999</ele>
        <time>2012-07-28T08:39:39Z</time>
      </trkpt>
      <trkpt lat="53.522645970806479" lon="26.973697990179062">
        <ele>181.83000000000001</ele>
        <time>2012-07-28T08:39:54Z</time>
      </trkpt>
      <trkpt lat="53.522374983876944" lon="26.973203038796782">
        <ele>182.78999999999999</ele>
        <time>2012-07-28T08:40:07Z</time>
      </trkpt>
      <trkpt lat="53.522215979173779" lon="26.972628962248564">
        <ele>185.19</ele>
        <time>2012-07-28T08:40:21Z</time>
      </trkpt>
      <trkpt lat="53.522105002775788" lon="26.97190904058516">
        <ele>187.11000000000001</ele>
        <time>2012-07-28T08:40:36Z</time>
      </trkpt>
      <trkpt lat="53.521947003901005" lon="26.97137201204896">
        <ele>190.47999999999999</ele>
        <time>2012-07-28T08:40:49Z</time>
      </trkpt>
      <trkpt lat="53.521873997524381" lon="26.970723001286387">
        <ele>192.40000000000001</ele>
        <time>2012-07-28T08:41:02Z</time>
      </trkpt>
      <trkpt lat="53.521791016682982" lon="26.970045994967222">
        <ele>190.96000000000001</ele>
        <time>2012-07-28T08:41:15Z</time>
      </trkpt>
      <trkpt lat="53.521702000871301" lon="26.969320038333535">
        <ele>190.47999999999999</ele>
        <time>2012-07-28T08:41:28Z</time>
      </trkpt>
      <trkpt lat="53.521660007536411" lon="26.968604978173971">
        <ele>192.88</ele>
        <time>2012-07-28T08:41:41Z</time>
      </trkpt>
      <trkpt lat="53.521498991176486" lon="26.967814983800054">
        <ele>195.77000000000001</ele>
        <time>2012-07-28T08:41:57Z</time>
      </trkpt>
      <trkpt lat="53.521437970921397" lon="26.967105036601424">
        <ele>197.69</ele>
        <time>2012-07-28T08:42:10Z</time>
      </trkpt>
      <trkpt lat="53.521363036707044" lon="26.966608995571733">
        <ele>197.21000000000001</ele>
        <time>2012-07-28T08:42:22Z</time>
      </trkpt>
      <trkpt lat="53.521375022828579" lon="26.965901982039213">
        <ele>195.77000000000001</ele>
        <time>2012-07-28T08:42:35Z</time>
      </trkpt>
      <trkpt lat="53.521450962871313" lon="26.965402001515031">
        <ele>195.28</ele>
        <time>2012-07-28T08:42:47Z</time>
      </trkpt>
      <trkpt lat="53.521495973691344" lon="26.964753996580839">
        <ele>194.31999999999999</ele>
        <time>2012-07-28T08:42:59Z</time>
      </trkpt>
      <trkpt lat="53.521539978682995" lon="26.963957967236638">
        <ele>193.36000000000001</ele>
        <time>2012-07-28T08:43:13Z</time>
      </trkpt>
      <trkpt lat="53.521562023088336" lon="26.963216001167893">
        <ele>193.84</ele>
        <time>2012-07-28T08:43:27Z</time>
      </trkpt>
      <trkpt lat="53.521565040573478" lon="26.962485015392303">
        <ele>196.25</ele>
        <time>2012-07-28T08:43:41Z</time>
      </trkpt>
      <trkpt lat="53.521672999486327" lon="26.96185695938766">
        <ele>198.16999999999999</ele>
        <time>2012-07-28T08:43:56Z</time>
      </trkpt>
      <trkpt lat="53.521761009469628" lon="26.961176013574004">
        <ele>198.16999999999999</ele>
        <time>2012-07-28T08:44:08Z</time>
      </trkpt>
      <trkpt lat="53.521789005026221" lon="26.960558015853167">
        <ele>198.16999999999999</ele>
        <time>2012-07-28T08:44:19Z</time>
      </trkpt>
      <trkpt lat="53.521695965901017" lon="26.959839016199112">
        <ele>194.80000000000001</ele>
        <time>2012-07-28T08:44:31Z</time>
      </trkpt>
      <trkpt lat="53.52157099172473" lon="26.959210960194468">
        <ele>196.25</ele>
        <time>2012-07-28T08:44:44Z</time>
      </trkpt>
      <trkpt lat="53.521456997841597" lon="26.958529008552432">
        <ele>197.21000000000001</ele>
        <time>2012-07-28T08:44:58Z</time>
      </trkpt>
      <trkpt lat="53.521321965381503" lon="26.957789976149797">
        <ele>199.61000000000001</ele>
        <time>2012-07-28T08:45:12Z</time>
      </trkpt>
      <trkpt lat="53.521074028685689" lon="26.957409018650651">
        <ele>201.53</ele>
        <time>2012-07-28T08:45:25Z</time>
      </trkpt>
      <trkpt lat="53.520746966823936" lon="26.957293013110757">
        <ele>201.53</ele>
        <time>2012-07-28T08:45:38Z</time>
      </trkpt>
      <trkpt lat="53.520337007939816" lon="26.957342969253659">
        <ele>199.13</ele>
        <time>2012-07-28T08:45:51Z</time>
      </trkpt>
      <trkpt lat="53.519952027127147" lon="26.957096960395575">
        <ele>197.69</ele>
        <time>2012-07-28T08:46:04Z</time>
      </trkpt>
      <trkpt lat="53.519512983039021" lon="26.956863021478057">
        <ele>196.25</ele>
        <time>2012-07-28T08:46:18Z</time>
      </trkpt>
      <trkpt lat="53.519163960590959" lon="26.956615000963211">
        <ele>195.77000000000001</ele>
        <time>2012-07-28T08:46:31Z</time>
      </trkpt>
      <trkpt lat="53.518760036677122" lon="26.956428000703454">
        <ele>196.72999999999999</ele>
        <time>2012-07-28T08:46:44Z</time>
      </trkpt>
      <trkpt lat="53.518337002024055" lon="26.956406962126493">
        <ele>194.31999999999999</ele>
        <time>2012-07-28T08:46:57Z</time>
      </trkpt>
      <trkpt lat="53.51794196292758" lon="26.956439986824989">
        <ele>190</ele>
        <time>2012-07-28T08:47:10Z</time>
      </trkpt>
      <trkpt lat="53.517538961023092" lon="26.95620403625071">
        <ele>190.96000000000001</ele>
        <time>2012-07-28T08:47:23Z</time>
      </trkpt>
      <trkpt lat="53.517045015469193" lon="26.95575300604105">
        <ele>190.96000000000001</ele>
        <time>2012-07-28T08:47:40Z</time>
      </trkpt>
      <trkpt lat="53.516707979142666" lon="26.95545201189816">
        <ele>189.03999999999999</ele>
        <time>2012-07-28T08:47:53Z</time>
      </trkpt>
      <trkpt lat="53.516368009150028" lon="26.955116987228394">
        <ele>192.88</ele>
        <time>2012-07-28T08:48:05Z</time>
      </trkpt>
      <trkpt lat="53.516033990308642" lon="26.954623963683844">
        <ele>197.69</ele>
        <time>2012-07-28T08:48:19Z</time>
      </trkpt>
      <trkpt lat="53.515797033905983" lon="26.954182991757989">
        <ele>197.69</ele>
        <time>2012-07-28T08:48:31Z</time>
      </trkpt>
      <trkpt lat="53.515802985057235" lon="26.953507997095585">
        <ele>197.21000000000001</ele>
        <time>2012-07-28T08:48:42Z</time>
      </trkpt>
      <trkpt lat="53.515783958137035" lon="26.953013967722654">
        <ele>193.84</ele>
        <time>2012-07-28T08:48:54Z</time>
      </trkpt>
      <trkpt lat="53.515743976458907" lon="26.95231600664556">
        <ele>191.91999999999999</ele>
        <time>2012-07-28T08:49:06Z</time>
      </trkpt>
      <trkpt lat="53.515619002282619" lon="26.951566999778152">
        <ele>192.88</ele>
        <time>2012-07-28T08:49:19Z</time>
      </trkpt>
      <trkpt lat="53.515438036993146" lon="26.951128039509058">
        <ele>196.72999999999999</ele>
        <time>2012-07-28T08:49:32Z</time>
      </trkpt>
      <trkpt lat="53.515325970947742" lon="26.951142959296703">
        <ele>195.77000000000001</ele>
        <time>2012-07-28T08:49:41Z</time>
      </trkpt>
      <trkpt lat="53.515267968177795" lon="26.951180007308722">
        <ele>195.77000000000001</ele>
        <time>2012-07-28T08:49:46Z</time>
      </trkpt>
      <trkpt lat="53.515005027875304" lon="26.95122099481523">
        <ele>193.84</ele>
        <time>2012-07-28T08:50:00Z</time>
      </trkpt>
      <trkpt lat="53.514748038724065" lon="26.951266005635262">
        <ele>193.84</ele>
        <time>2012-07-28T08:50:12Z</time>
      </trkpt>
      <trkpt lat="53.514563972130418" lon="26.951315039768815">
        <ele>195.28</ele>
        <time>2012-07-28T08:50:23Z</time>
      </trkpt>
      <trkpt lat="53.514504041522741" lon="26.951324008405209">
        <ele>193.36000000000001</ele>
        <time>2012-07-28T08:51:46Z</time>
      </trkpt>
      <trkpt lat="53.514279993250966" lon="26.951286038383842">
        <ele>191.91999999999999</ele>
        <time>2012-07-28T08:52:13Z</time>
      </trkpt>
      <trkpt lat="53.514127023518085" lon="26.951315039768815">
        <ele>191.44</ele>
        <time>2012-07-28T08:52:16Z</time>
      </trkpt>
      <trkpt lat="53.513632994145155" lon="26.951360972598195">
        <ele>190.47999999999999</ele>
        <time>2012-07-28T08:52:24Z</time>
      </trkpt>
      <trkpt lat="53.513378016650677" lon="26.95137295871973">
        <ele>188.08000000000001</ele>
        <time>2012-07-28T08:52:28Z</time>
      </trkpt>
      <trkpt lat="53.513108035549521" lon="26.951417969539762">
        <ele>184.71000000000001</ele>
        <time>2012-07-28T08:52:33Z</time>
      </trkpt>
      <trkpt lat="53.512991024181247" lon="26.951438002288342">
        <ele>182.78999999999999</ele>
        <time>2012-07-28T08:52:35Z</time>
      </trkpt>
      <trkpt lat="53.512651976197958" lon="26.951475972309709">
        <ele>176.53999999999999</ele>
        <time>2012-07-28T08:52:41Z</time>
      </trkpt>
      <trkpt lat="53.512499006465077" lon="26.951510002836585">
        <ele>173.66</ele>
        <time>2012-07-28T08:52:44Z</time>
      </trkpt>
      <trkpt lat="53.512356011196971" lon="26.951510002836585">
        <ele>172.21000000000001</ele>
        <time>2012-07-28T08:52:48Z</time>
      </trkpt>
      <trkpt lat="53.512211004272103" lon="26.951587032526731">
        <ele>169.33000000000001</ele>
        <time>2012-07-28T08:52:52Z</time>
      </trkpt>
      <trkpt lat="53.511902969330549" lon="26.951580997556448">
        <ele>163.56</ele>
        <time>2012-07-28T08:52:58Z</time>
      </trkpt>
      <trkpt lat="53.511668024584651" lon="26.951598012819886">
        <ele>159.72</ele>
        <time>2012-07-28T08:53:02Z</time>
      </trkpt>
      <trkpt lat="53.51130299270153" lon="26.951665990054607">
        <ele>154.91</ele>
        <time>2012-07-28T08:53:09Z</time>
      </trkpt>
      <trkpt lat="53.510960005223751" lon="26.951673030853271">
        <ele>151.06</ele>
        <time>2012-07-28T08:53:16Z</time>
      </trkpt>
      <trkpt lat="53.510658005252481" lon="26.951687028631568">
        <ele>151.06</ele>
        <time>2012-07-28T08:53:21Z</time>
      </trkpt>
      <trkpt lat="53.510461030527949" lon="26.951688034459949">
        <ele>150.09999999999999</ele>
        <time>2012-07-28T08:53:24Z</time>
      </trkpt>
      <trkpt lat="53.510146038606763" lon="26.951747965067625">
        <ele>148.18000000000001</ele>
        <time>2012-07-28T08:53:29Z</time>
      </trkpt>
      <trkpt lat="53.509691990911961" lon="26.951760035008192">
        <ele>146.25999999999999</ele>
        <time>2012-07-28T08:53:36Z</time>
      </trkpt>
      <trkpt lat="53.509351015090942" lon="26.951827006414533">
        <ele>145.78</ele>
        <time>2012-07-28T08:53:41Z</time>
      </trkpt>
      <trkpt lat="53.509087990969419" lon="26.951861958950758">
        <ele>145.30000000000001</ele>
        <time>2012-07-28T08:53:45Z</time>
      </trkpt>
      <trkpt lat="53.508633021265268" lon="26.951923985034227">
        <ele>144.81999999999999</ele>
        <time>2012-07-28T08:53:52Z</time>
      </trkpt>
      <trkpt lat="53.507954003289342" lon="26.952013000845909">
        <ele>145.30000000000001</ele>
        <time>2012-07-28T08:54:03Z</time>
      </trkpt>
      <trkpt lat="53.507748981937766" lon="26.95203403942287">
        <ele>145.30000000000001</ele>
        <time>2012-07-28T08:54:06Z</time>
      </trkpt>
      <trkpt lat="53.507274985313416" lon="26.952112996950746">
        <ele>141.44999999999999</ele>
        <time>2012-07-28T08:54:13Z</time>
      </trkpt>
      <trkpt lat="53.507079016417265" lon="26.952112996950746">
        <ele>139.53</ele>
        <time>2012-07-28T08:54:16Z</time>
      </trkpt>
      <trkpt lat="53.506633015349507" lon="26.952174017205834">
        <ele>136.16</ele>
        <time>2012-07-28T08:54:23Z</time>
      </trkpt>
      <trkpt lat="53.506324980407953" lon="26.952153984457254">
        <ele>133.75999999999999</ele>
        <time>2012-07-28T08:54:28Z</time>
      </trkpt>
      <trkpt lat="53.505369024351239" lon="26.952291028574109">
        <ele>132.80000000000001</ele>
        <time>2012-07-28T08:54:42Z</time>
      </trkpt>
      <trkpt lat="53.505101976916194" lon="26.952339978888631">
        <ele>132.80000000000001</ele>
        <time>2012-07-28T08:54:46Z</time>
      </trkpt>
      <trkpt lat="53.504440980032086" lon="26.952471993863583">
        <ele>136.16</ele>
        <time>2012-07-28T08:54:56Z</time>
      </trkpt>
      <trkpt lat="53.503641011193395" lon="26.952577019110322">
        <ele>138.56999999999999</ele>
        <time>2012-07-28T08:55:06Z</time>
      </trkpt>
      <trkpt lat="53.503493992611766" lon="26.95259696803987">
        <ele>138.56999999999999</ele>
        <time>2012-07-28T08:55:08Z</time>
      </trkpt>
      <trkpt lat="53.502688994631171" lon="26.952655976638198">
        <ele>134.24000000000001</ele>
        <time>2012-07-28T08:55:19Z</time>
      </trkpt>
      <trkpt lat="53.502335026860237" lon="26.95267902687192">
        <ele>130.40000000000001</ele>
        <time>2012-07-28T08:55:24Z</time>
      </trkpt>
      <trkpt lat="53.501527011394501" lon="26.952840965241194">
        <ele>123.19</ele>
        <time>2012-07-28T08:55:36Z</time>
      </trkpt>
      <trkpt lat="53.501028036698699" lon="26.952920006588101">
        <ele>118.86</ele>
        <time>2012-07-28T08:55:44Z</time>
      </trkpt>
      <trkpt lat="53.500761995092034" lon="26.952936016023159">
        <ele>117.42</ele>
        <time>2012-07-28T08:55:48Z</time>
      </trkpt>
      <trkpt lat="53.50004299543798" lon="26.952994018793106">
        <ele>113.56999999999999</ele>
        <time>2012-07-28T08:55:59Z</time>
      </trkpt>
      <trkpt lat="53.49946397356689" lon="26.953042969107628">
        <ele>109.73</ele>
        <time>2012-07-28T08:56:08Z</time>
      </trkpt>
      <trkpt lat="53.499057032167912" lon="26.953094014897943">
        <ele>105.88</ele>
        <time>2012-07-28T08:56:14Z</time>
      </trkpt>
      <trkpt lat="53.49823996424675" lon="26.953170960769057">
        <ele>97.230000000000004</ele>
        <time>2012-07-28T08:56:26Z</time>
      </trkpt>
      <trkpt lat="53.497558012604713" lon="26.953267017379403">
        <ele>93.870000000000005</ele>
        <time>2012-07-28T08:56:36Z</time>
      </trkpt>
      <trkpt lat="53.497062977403402" lon="26.953319991007447">
        <ele>98.189999999999998</ele>
        <time>2012-07-28T08:56:43Z</time>
      </trkpt>
      <trkpt lat="53.496769024059176" lon="26.953349998220801">
        <ele>100.59999999999999</ele>
        <time>2012-07-28T08:56:47Z</time>
      </trkpt>
      <trkpt lat="53.496123030781746" lon="26.953444965183735">
        <ele>106.36</ele>
        <time>2012-07-28T08:56:56Z</time>
      </trkpt>
      <trkpt lat="53.4951860178262" lon="26.953565999865532">
        <ele>111.65000000000001</ele>
        <time>2012-07-28T08:57:09Z</time>
      </trkpt>
      <trkpt lat="53.494858033955097" lon="26.953642023727298">
        <ele>112.61</ele>
        <time>2012-07-28T08:57:14Z</time>
      </trkpt>
      <trkpt lat="53.49471596069634" lon="26.953651998192072">
        <ele>114.05</ele>
        <time>2012-07-28T08:57:16Z</time>
      </trkpt>
      <trkpt lat="53.49409201182425" lon="26.953730033710599">
        <ele>118.86</ele>
        <time>2012-07-28T08:57:25Z</time>
      </trkpt>
      <trkpt lat="53.493875004351139" lon="26.953766997903585">
        <ele>120.3</ele>
        <time>2012-07-28T08:57:28Z</time>
      </trkpt>
      <trkpt lat="53.493450963869691" lon="26.953806979581714">
        <ele>123.19</ele>
        <time>2012-07-28T08:57:34Z</time>
      </trkpt>
      <trkpt lat="53.493032036349177" lon="26.953870011493564">
        <ele>124.63</ele>
        <time>2012-07-28T08:57:40Z</time>
      </trkpt>
      <trkpt lat="53.492747973650694" lon="26.953866994008422">
        <ele>125.59</ele>
        <time>2012-07-28T08:57:44Z</time>
      </trkpt>
      <trkpt lat="53.491799980401993" lon="26.954005965963006">
        <ele>127.51000000000001</ele>
        <time>2012-07-28T08:57:57Z</time>
      </trkpt>
      <trkpt lat="53.490966986864805" lon="26.954127000644803">
        <ele>126.55</ele>
        <time>2012-07-28T08:58:09Z</time>
      </trkpt>
      <trkpt lat="53.490703040733933" lon="26.95414200425148">
        <ele>125.11</ele>
        <time>2012-07-28T08:58:13Z</time>
      </trkpt>
      <trkpt lat="53.490419983863831" lon="26.954139992594719">
        <ele>124.63</ele>
        <time>2012-07-28T08:58:17Z</time>
      </trkpt>
      <trkpt lat="53.490285035222769" lon="26.954157007858157">
        <ele>124.15000000000001</ele>
        <time>2012-07-28T08:58:19Z</time>
      </trkpt>
      <trkpt lat="53.489844985306263" lon="26.954208975657821">
        <ele>124.15000000000001</ele>
        <time>2012-07-28T08:58:25Z</time>
      </trkpt>
      <trkpt lat="53.488982990384102" lon="26.954366974532604">
        <ele>128.47</ele>
        <time>2012-07-28T08:58:36Z</time>
      </trkpt>
      <trkpt lat="53.487991997972131" lon="26.954498989507556">
        <ele>136.16</ele>
        <time>2012-07-28T08:58:49Z</time>
      </trkpt>
      <trkpt lat="53.487842967733741" lon="26.954489015042782">
        <ele>137.13</ele>
        <time>2012-07-28T08:58:51Z</time>
      </trkpt>
      <trkpt lat="53.487706007435918" lon="26.954509969800711">
        <ele>138.09</ele>
        <time>2012-07-28T08:58:53Z</time>
      </trkpt>
      <trkpt lat="53.487361008301377" lon="26.9545519631356">
        <ele>139.05000000000001</ele>
        <time>2012-07-28T08:58:58Z</time>
      </trkpt>
      <trkpt lat="53.487213989719748" lon="26.954576019197702">
        <ele>139.53</ele>
        <time>2012-07-28T08:59:00Z</time>
      </trkpt>
      <trkpt lat="53.4863789845258" lon="26.954645002260804">
        <ele>138.56999999999999</ele>
        <time>2012-07-28T08:59:11Z</time>
      </trkpt>
      <trkpt lat="53.485767021775246" lon="26.954722031950951">
        <ele>138.56999999999999</ele>
        <time>2012-07-28T08:59:19Z</time>
      </trkpt>
      <trkpt lat="53.484911983832717" lon="26.954822028055787">
        <ele>137.61000000000001</ele>
        <time>2012-07-28T08:59:31Z</time>
      </trkpt>
      <trkpt lat="53.484779968857765" lon="26.954847006127238">
        <ele>138.09</ele>
        <time>2012-07-28T08:59:33Z</time>
      </trkpt>
      <trkpt lat="53.484535971656442" lon="26.954867038875818">
        <ele>138.56999999999999</ele>
        <time>2012-07-28T08:59:37Z</time>
      </trkpt>
      <trkpt lat="53.484157025814056" lon="26.954920012503862">
        <ele>139.53</ele>
        <time>2012-07-28T08:59:43Z</time>
      </trkpt>
      <trkpt lat="53.483299976214767" lon="26.955064013600349">
        <ele>140.00999999999999</ele>
        <time>2012-07-28T08:59:56Z</time>
      </trkpt>
      <trkpt lat="53.483234010636806" lon="26.955077005550265">
        <ele>140.00999999999999</ele>
        <time>2012-07-28T08:59:57Z</time>
      </trkpt>
      <trkpt lat="53.482931004837155" lon="26.955143976956606">
        <ele>139.53</ele>
        <time>2012-07-28T09:00:02Z</time>
      </trkpt>
      <trkpt lat="53.482011007145047" lon="26.955244978889823">
        <ele>133.28</ele>
        <time>2012-07-28T09:00:15Z</time>
      </trkpt>
      <trkpt lat="53.481112970039248" lon="26.955372970551252">
        <ele>128.94999999999999</ele>
        <time>2012-07-28T09:00:26Z</time>
      </trkpt>
      <trkpt lat="53.48085698671639" lon="26.955415969714522">
        <ele>130.40000000000001</ele>
        <time>2012-07-28T09:00:30Z</time>
      </trkpt>
      <trkpt lat="53.480588011443615" lon="26.955293007194996">
        <ele>128.94999999999999</ele>
        <time>2012-07-28T09:00:35Z</time>
      </trkpt>
      <trkpt lat="53.480465970933437" lon="26.955241961404681">
        <ele>128.47</ele>
        <time>2012-07-28T09:00:37Z</time>
      </trkpt>
      <trkpt lat="53.480219962075353" lon="26.955290995538235">
        <ele>127.98999999999999</ele>
        <time>2012-07-28T09:00:41Z</time>
      </trkpt>
      <trkpt lat="53.479452012106776" lon="26.955514959990978">
        <ele>121.73999999999999</ele>
        <time>2012-07-28T09:00:52Z</time>
      </trkpt>
      <trkpt lat="53.479255037382245" lon="26.955529963597655">
        <ele>121.73999999999999</ele>
        <time>2012-07-28T09:00:55Z</time>
      </trkpt>
      <trkpt lat="53.478982960805297" lon="26.955572962760925">
        <ele>122.70999999999999</ele>
        <time>2012-07-28T09:00:59Z</time>
      </trkpt>
      <trkpt lat="53.478838037699461" lon="26.955613028258085">
        <ele>123.19</ele>
        <time>2012-07-28T09:01:01Z</time>
      </trkpt>
      <trkpt lat="53.478577025234699" lon="26.955650998279452">
        <ele>123.67</ele>
        <time>2012-07-28T09:01:05Z</time>
      </trkpt>
      <trkpt lat="53.478222973644733" lon="26.955697014927864">
        <ele>125.11</ele>
        <time>2012-07-28T09:01:11Z</time>
      </trkpt>
      <trkpt lat="53.478056006133556" lon="26.955692991614342">
        <ele>126.55</ele>
        <time>2012-07-28T09:01:14Z</time>
      </trkpt>
      <trkpt lat="53.477802034467459" lon="26.955695003271103">
        <ele>128.94999999999999</ele>
        <time>2012-07-28T09:01:18Z</time>
      </trkpt>
      <trkpt lat="53.477509003132582" lon="26.955721992999315">
        <ele>130.40000000000001</ele>
        <time>2012-07-28T09:01:23Z</time>
      </trkpt>
      <trkpt lat="53.477334994822741" lon="26.955746971070766">
        <ele>130.88</ele>
        <time>2012-07-28T09:01:26Z</time>
      </trkpt>
      <trkpt lat="53.477184036746621" lon="26.955790976062417">
        <ele>130.88</ele>
        <time>2012-07-28T09:01:29Z</time>
      </trkpt>
      <trkpt lat="53.476931992918253" lon="26.955906981602311">
        <ele>131.84</ele>
        <time>2012-07-28T09:01:34Z</time>
      </trkpt>
      <trkpt lat="53.476702999323606" lon="26.95588200353086">
        <ele>134.72</ele>
        <time>2012-07-28T09:01:38Z</time>
      </trkpt>
      <trkpt lat="53.476247023791075" lon="26.955960039049387">
        <ele>145.30000000000001</ele>
        <time>2012-07-28T09:01:45Z</time>
      </trkpt>
      <trkpt lat="53.475820971652865" lon="26.9559680018574">
        <ele>151.06</ele>
        <time>2012-07-28T09:01:52Z</time>
      </trkpt>
      <trkpt lat="53.475225018337369" lon="26.9559680018574">
        <ele>158.27000000000001</ele>
        <time>2012-07-28T09:02:00Z</time>
      </trkpt>
      <trkpt lat="53.474785974249244" lon="26.956007983535528">
        <ele>165</ele>
        <time>2012-07-28T09:02:06Z</time>
      </trkpt>
      <trkpt lat="53.474592017009854" lon="26.956027010455728">
        <ele>165</ele>
        <time>2012-07-28T09:02:09Z</time>
      </trkpt>
      <trkpt lat="53.474259003996849" lon="26.956046959385276">
        <ele>165.96000000000001</ele>
        <time>2012-07-28T09:02:14Z</time>
      </trkpt>
      <trkpt lat="53.473534975200891" lon="26.956062968820333">
        <ele>164.52000000000001</ele>
        <time>2012-07-28T09:02:25Z</time>
      </trkpt>
      <trkpt lat="53.473345963284373" lon="26.956046959385276">
        <ele>164.52000000000001</ele>
        <time>2012-07-28T09:02:28Z</time>
      </trkpt>
      <trkpt lat="53.473012028262019" lon="26.956120971590281">
        <ele>165.47999999999999</ele>
        <time>2012-07-28T09:02:38Z</time>
      </trkpt>
      <trkpt lat="53.472683960571885" lon="26.956150978803635">
        <ele>165.47999999999999</ele>
        <time>2012-07-28T09:02:49Z</time>
      </trkpt>
      <trkpt lat="53.472424037754536" lon="26.956075960770249">
        <ele>166.93000000000001</ele>
        <time>2012-07-28T09:02:57Z</time>
      </trkpt>
      <trkpt lat="53.472300991415977" lon="26.9559680018574">
        <ele>168.37</ele>
        <time>2012-07-28T09:03:03Z</time>
      </trkpt>
      <trkpt lat="53.471522983163595" lon="26.95594503544271">
        <ele>165.47999999999999</ele>
        <time>2012-07-28T09:03:16Z</time>
      </trkpt>
      <trkpt lat="53.470852011814713" lon="26.956008989363909">
        <ele>165</ele>
        <time>2012-07-28T09:03:27Z</time>
      </trkpt>
      <trkpt lat="53.469871999695897" lon="26.956022987142205">
        <ele>165</ele>
        <time>2012-07-28T09:03:43Z</time>
      </trkpt>
      <trkpt lat="53.469134978950024" lon="26.956062968820333">
        <ele>165.47999999999999</ele>
        <time>2012-07-28T09:03:54Z</time>
      </trkpt>
      <trkpt lat="53.468615971505642" lon="26.956089958548546">
        <ele>166.44999999999999</ele>
        <time>2012-07-28T09:04:02Z</time>
      </trkpt>
      <trkpt lat="53.468429977074265" lon="26.956049976870418">
        <ele>166.44999999999999</ele>
        <time>2012-07-28T09:04:05Z</time>
      </trkpt>
      <trkpt lat="53.467966038733721" lon="26.956101022660732">
        <ele>165.96000000000001</ele>
        <time>2012-07-28T09:04:12Z</time>
      </trkpt>
      <trkpt lat="53.466982003301382" lon="26.956153996288776">
        <ele>165</ele>
        <time>2012-07-28T09:04:27Z</time>
      </trkpt>
      <trkpt lat="53.465886991471052" lon="26.956144021824002">
        <ele>160.68000000000001</ele>
        <time>2012-07-28T09:04:43Z</time>
      </trkpt>
      <trkpt lat="53.465617010369897" lon="26.956143015995622">
        <ele>159.24000000000001</ele>
        <time>2012-07-28T09:04:48Z</time>
      </trkpt>
      <trkpt lat="53.4653440117836" lon="26.956424983218312">
        <ele>158.75</ele>
        <time>2012-07-28T09:04:55Z</time>
      </trkpt>
      <trkpt lat="53.465210990980268" lon="26.957337018102407">
        <ele>157.31</ele>
        <time>2012-07-28T09:05:07Z</time>
      </trkpt>
      <trkpt lat="53.465119963511825" lon="26.957958033308387">
        <ele>156.34999999999999</ele>
        <time>2012-07-28T09:05:17Z</time>
      </trkpt>
      <trkpt lat="53.464964982122183" lon="26.958802007138729">
        <ele>154.91</ele>
        <time>2012-07-28T09:05:30Z</time>
      </trkpt>
      <trkpt lat="53.464927012100816" lon="26.958999987691641">
        <ele>155.38999999999999</ele>
        <time>2012-07-28T09:05:38Z</time>
      </trkpt>
      <trkpt lat="53.464916031807661" lon="26.959011973813176">
        <ele>155.38999999999999</ele>
        <time>2012-07-28T09:05:39Z</time>
      </trkpt>
      <trkpt lat="53.464908991008997" lon="26.959031000733376">
        <ele>155.38999999999999</ele>
        <time>2012-07-28T09:05:40Z</time>
      </trkpt>
      <trkpt lat="53.464831961318851" lon="26.959507009014487">
        <ele>156.34999999999999</ele>
        <time>2012-07-28T09:05:50Z</time>
      </trkpt>
      <trkpt lat="53.464687038213015" lon="26.960379984229803">
        <ele>158.27000000000001</ele>
        <time>2012-07-28T09:06:04Z</time>
      </trkpt>
      <trkpt lat="53.464650996029377" lon="26.961276009678841">
        <ele>159.72</ele>
        <time>2012-07-28T09:06:18Z</time>
      </trkpt>
      <trkpt lat="53.464617971330881" lon="26.962127024307847">
        <ele>160.19999999999999</ele>
        <time>2012-07-28T09:06:32Z</time>
      </trkpt>
      <trkpt lat="53.464569021016359" lon="26.963005028665066">
        <ele>161.16</ele>
        <time>2012-07-28T09:06:48Z</time>
      </trkpt>
      <trkpt lat="53.46452996134758" lon="26.963568041101098">
        <ele>162.59999999999999</ele>
        <time>2012-07-28T09:07:00Z</time>
      </trkpt>
      <trkpt lat="53.464460978284478" lon="26.963727967813611">
        <ele>163.56</ele>
        <time>2012-07-28T09:07:09Z</time>
      </trkpt>
      <trkpt lat="53.464451003819704" lon="26.963735008612275">
        <ele>163.08000000000001</ele>
        <time>2012-07-28T09:07:20Z</time>
      </trkpt>
      <trkpt lat="53.464451003819704" lon="26.963735008612275">
        <ele>163.08000000000001</ele>
        <time>2012-07-28T09:07:37Z</time>
      </trkpt>
      <trkpt lat="53.464454021304846" lon="26.963736014440656">
        <ele>163.08000000000001</ele>
        <time>2012-07-28T09:11:42Z</time>
      </trkpt>
      <trkpt lat="53.464452009648085" lon="26.963734002783895">
        <ele>163.08000000000001</ele>
        <time>2012-07-28T09:13:07Z</time>
      </trkpt>
      <trkpt lat="53.464444968849421" lon="26.963800974190235">
        <ele>162.12</ele>
        <time>2012-07-28T09:13:10Z</time>
      </trkpt>
      <trkpt lat="53.464486040174961" lon="26.963750012218952">
        <ele>162.59999999999999</ele>
        <time>2012-07-28T09:13:23Z</time>
      </trkpt>
      <trkpt lat="53.464458966627717" lon="26.963734002783895">
        <ele>162.59999999999999</ele>
        <time>2012-07-28T09:13:39Z</time>
      </trkpt>
      <trkpt lat="53.464471958577633" lon="26.963711036369205">
        <ele>162.59999999999999</ele>
        <time>2012-07-28T09:14:02Z</time>
      </trkpt>
      <trkpt lat="53.464472964406013" lon="26.963706007227302">
        <ele>162.59999999999999</ele>
        <time>2012-07-28T09:16:12Z</time>
      </trkpt>
      <trkpt lat="53.464475981891155" lon="26.963714975863695">
        <ele>162.12</ele>
        <time>2012-07-28T09:18:00Z</time>
      </trkpt>
      <trkpt lat="53.464494002982974" lon="26.963586984202266">
        <ele>161.63999999999999</ele>
        <time>2012-07-28T09:18:33Z</time>
      </trkpt>
      <trkpt lat="53.464597016572952" lon="26.962579982355237">
        <ele>159.24000000000001</ele>
        <time>2012-07-28T09:18:46Z</time>
      </trkpt>
      <trkpt lat="53.464643033221364" lon="26.961753023788333">
        <ele>157.31</ele>
        <time>2012-07-28T09:18:56Z</time>
      </trkpt>
      <trkpt lat="53.464632974937558" lon="26.961738020181656">
        <ele>157.31</ele>
        <time>2012-07-28T09:19:03Z</time>
      </trkpt>
      <trkpt lat="53.464581007137895" lon="26.961693009361625">
        <ele>157.31</ele>
        <time>2012-07-28T09:19:11Z</time>
      </trkpt>
      <trkpt lat="53.46457103267312" lon="26.961706001311541">
        <ele>157.31</ele>
        <time>2012-07-28T09:19:32Z</time>
      </trkpt>
      <trkpt lat="53.464583018794656" lon="26.961715975776315">
        <ele>156.34999999999999</ele>
        <time>2012-07-28T09:20:06Z</time>
      </trkpt>
      <trkpt lat="53.464586958289146" lon="26.961703989654779">
        <ele>156.83000000000001</ele>
        <time>2012-07-28T09:20:20Z</time>
      </trkpt>
      <trkpt lat="53.464585030451417" lon="26.961702983826399">
        <ele>156.83000000000001</ele>
        <time>2012-07-28T09:21:59Z</time>
      </trkpt>
      <trkpt lat="53.464582012966275" lon="26.961707007139921">
        <ele>156.34999999999999</ele>
        <time>2012-07-28T09:22:56Z</time>
      </trkpt>
      <trkpt lat="53.464581007137895" lon="26.961731985211372">
        <ele>156.83000000000001</ele>
        <time>2012-07-28T09:23:14Z</time>
      </trkpt>
      <trkpt lat="53.46457002684474" lon="26.961757969111204">
        <ele>156.83000000000001</ele>
        <time>2012-07-28T09:23:15Z</time>
      </trkpt>
      <trkpt lat="53.464543959125876" lon="26.961774984374642">
        <ele>156.34999999999999</ele>
        <time>2012-07-28T09:23:16Z</time>
      </trkpt>
      <trkpt lat="53.464425019919872" lon="26.961769033223391">
        <ele>155.87</ele>
        <time>2012-07-28T09:23:19Z</time>
      </trkpt>
      <trkpt lat="53.464039033278823" lon="26.961528975516558">
        <ele>155.38999999999999</ele>
        <time>2012-07-28T09:23:27Z</time>
      </trkpt>
      <trkpt lat="53.463814985007048" lon="26.961355973035097">
        <ele>154.43000000000001</ele>
        <time>2012-07-28T09:23:32Z</time>
      </trkpt>
      <trkpt lat="53.463691016659141" lon="26.961296964436769">
        <ele>154.43000000000001</ele>
        <time>2012-07-28T09:23:35Z</time>
      </trkpt>
      <trkpt lat="53.463527988642454" lon="26.960831014439464">
        <ele>154.91</ele>
        <time>2012-07-28T09:23:43Z</time>
      </trkpt>
      <trkpt lat="53.463530000299215" lon="26.959900036454201">
        <ele>153.47</ele>
        <time>2012-07-28T09:23:57Z</time>
      </trkpt>
      <trkpt lat="53.463530000299215" lon="26.959690991789103">
        <ele>152.99000000000001</ele>
        <time>2012-07-28T09:24:00Z</time>
      </trkpt>
      <trkpt lat="53.463523965328932" lon="26.959071988239884">
        <ele>152.50999999999999</ele>
        <time>2012-07-28T09:24:09Z</time>
      </trkpt>
      <trkpt lat="53.463510973379016" lon="26.958285011351109">
        <ele>151.53999999999999</ele>
        <time>2012-07-28T09:24:20Z</time>
      </trkpt>
      <trkpt lat="53.463514996692538" lon="26.957813026383519">
        <ele>152.03</ele>
        <time>2012-07-28T09:24:27Z</time>
      </trkpt>
      <trkpt lat="53.4634979814291" lon="26.956481980159879">
        <ele>152.50999999999999</ele>
        <time>2012-07-28T09:24:46Z</time>
      </trkpt>
      <trkpt lat="53.463480966165662" lon="26.955141965299845">
        <ele>152.99000000000001</ele>
        <time>2012-07-28T09:25:06Z</time>
      </trkpt>
      <trkpt lat="53.463457999750972" lon="26.953893983736634">
        <ele>153.47</ele>
        <time>2012-07-28T09:25:25Z</time>
      </trkpt>
      <trkpt lat="53.463464034721255" lon="26.952931992709637">
        <ele>154.91</ele>
        <time>2012-07-28T09:25:40Z</time>
      </trkpt>
      <trkpt lat="53.463450958952308" lon="26.951980981975794">
        <ele>156.83000000000001</ele>
        <time>2012-07-28T09:25:54Z</time>
      </trkpt>
      <trkpt lat="53.463425980880857" lon="26.951009016484022">
        <ele>156.34999999999999</ele>
        <time>2012-07-28T09:26:09Z</time>
      </trkpt>
      <trkpt lat="53.463436961174011" lon="26.949807973578572">
        <ele>155.87</ele>
        <time>2012-07-28T09:26:27Z</time>
      </trkpt>
      <trkpt lat="53.463435033336282" lon="26.949674030765891">
        <ele>156.34999999999999</ele>
        <time>2012-07-28T09:26:29Z</time>
      </trkpt>
      <trkpt lat="53.463449031114578" lon="26.948526967316866">
        <ele>155.38999999999999</ele>
        <time>2012-07-28T09:26:47Z</time>
      </trkpt>
      <trkpt lat="53.463436961174011" lon="26.947988010942936">
        <ele>154.91</ele>
        <time>2012-07-28T09:26:59Z</time>
      </trkpt>
      <trkpt lat="53.463459005579352" lon="26.94733296521008">
        <ele>156.34999999999999</ele>
        <time>2012-07-28T09:27:14Z</time>
      </trkpt>
      <trkpt lat="53.463499993085861" lon="26.946714967489243">
        <ele>157.78999999999999</ele>
        <time>2012-07-28T09:27:28Z</time>
      </trkpt>
      <trkpt lat="53.463504016399384" lon="26.946672974154353">
        <ele>157.78999999999999</ele>
        <time>2012-07-28T09:27:29Z</time>
      </trkpt>
      <trkpt lat="53.463502004742622" lon="26.946167964488268">
        <ele>156.83000000000001</ele>
        <time>2012-07-28T09:27:41Z</time>
      </trkpt>
      <trkpt lat="53.463530000299215" lon="26.945501016452909">
        <ele>157.31</ele>
        <time>2012-07-28T09:27:56Z</time>
      </trkpt>
      <trkpt lat="53.463549027219415" lon="26.94490103982389">
        <ele>158.27000000000001</ele>
        <time>2012-07-28T09:28:10Z</time>
      </trkpt>
      <trkpt lat="53.4634979814291" lon="26.944270972162485">
        <ele>159.24000000000001</ele>
        <time>2012-07-28T09:28:23Z</time>
      </trkpt>
      <trkpt lat="53.463393962010741" lon="26.943641994148493">
        <ele>159.72</ele>
        <time>2012-07-28T09:28:36Z</time>
      </trkpt>
      <trkpt lat="53.463311986997724" lon="26.943018967285752">
        <ele>160.68000000000001</ele>
        <time>2012-07-28T09:28:49Z</time>
      </trkpt>
      <trkpt lat="53.463203022256494" lon="26.942351013422012">
        <ele>161.63999999999999</ele>
        <time>2012-07-28T09:29:04Z</time>
      </trkpt>
      <trkpt lat="53.463105959817767" lon="26.941833011806011">
        <ele>163.08000000000001</ele>
        <time>2012-07-28T09:29:17Z</time>
      </trkpt>
      <trkpt lat="53.462880989536643" lon="26.941587002947927">
        <ele>164.03999999999999</ele>
        <time>2012-07-28T09:29:28Z</time>
      </trkpt>
      <trkpt lat="53.46252903342247" lon="26.941326996311545">
        <ele>164.52000000000001</ele>
        <time>2012-07-28T09:29:41Z</time>
      </trkpt>
      <trkpt lat="53.462175987660885" lon="26.941048968583345">
        <ele>164.52000000000001</ele>
        <time>2012-07-28T09:29:55Z</time>
      </trkpt>
      <trkpt lat="53.461729986593127" lon="26.940693994984031">
        <ele>164.52000000000001</ele>
        <time>2012-07-28T09:30:11Z</time>
      </trkpt>
      <trkpt lat="53.461152976378798" lon="26.940245982259512">
        <ele>164.52000000000001</ele>
        <time>2012-07-28T09:30:31Z</time>
      </trkpt>
      <trkpt lat="53.460733965039253" lon="26.939991004765034">
        <ele>164.52000000000001</ele>
        <time>2012-07-28T09:30:45Z</time>
      </trkpt>
      <trkpt lat="53.460249993950129" lon="26.939791012555361">
        <ele>165.96000000000001</ele>
        <time>2012-07-28T09:31:03Z</time>
      </trkpt>
      <trkpt lat="53.459941036999226" lon="26.939666960388422">
        <ele>165.47999999999999</ele>
        <time>2012-07-28T09:31:14Z</time>
      </trkpt>
      <trkpt lat="53.459751019254327" lon="26.939593032002449">
        <ele>164.52000000000001</ele>
        <time>2012-07-28T09:31:19Z</time>
      </trkpt>
      <trkpt lat="53.459554966539145" lon="26.939572999253869">
        <ele>164.03999999999999</ele>
        <time>2012-07-28T09:31:24Z</time>
      </trkpt>
      <trkpt lat="53.459196975454688" lon="26.939676012843847">
        <ele>162.59999999999999</ele>
        <time>2012-07-28T09:31:32Z</time>
      </trkpt>
      <trkpt lat="53.459097985178232" lon="26.939689004793763">
        <ele>162.12</ele>
        <time>2012-07-28T09:31:34Z</time>
      </trkpt>
      <trkpt lat="53.458701018244028" lon="26.939636031165719">
        <ele>160.19999999999999</ele>
        <time>2012-07-28T09:31:42Z</time>
      </trkpt>
      <trkpt lat="53.458655001595616" lon="26.939610969275236">
        <ele>160.19999999999999</ele>
        <time>2012-07-28T09:31:43Z</time>
      </trkpt>
      <trkpt lat="53.458608984947205" lon="26.939591020345688">
        <ele>160.19999999999999</ele>
        <time>2012-07-28T09:31:44Z</time>
      </trkpt>
      <trkpt lat="53.458033986389637" lon="26.939354985952377">
        <ele>160.19999999999999</ele>
        <time>2012-07-28T09:31:59Z</time>
      </trkpt>
      <trkpt lat="53.457597959786654" lon="26.939131021499634">
        <ele>159.72</ele>
        <time>2012-07-28T09:32:13Z</time>
      </trkpt>
      <trkpt lat="53.457332001999021" lon="26.938927005976439">
        <ele>159.72</ele>
        <time>2012-07-28T09:32:23Z</time>
      </trkpt>
      <trkpt lat="53.456979962065816" lon="26.938639003783464">
        <ele>158.75</ele>
        <time>2012-07-28T09:32:36Z</time>
      </trkpt>
      <trkpt lat="53.456449974328279" lon="26.938386037945747">
        <ele>158.27000000000001</ele>
        <time>2012-07-28T09:32:52Z</time>
      </trkpt>
      <trkpt lat="53.455903977155685" lon="26.938099041581154">
        <ele>157.31</ele>
        <time>2012-07-28T09:33:08Z</time>
      </trkpt>
      <trkpt lat="53.45537499524653" lon="26.937747001647949">
        <ele>155.87</ele>
        <time>2012-07-28T09:33:22Z</time>
      </trkpt>
      <trkpt lat="53.455218002200127" lon="26.937670977786183">
        <ele>155.38999999999999</ele>
        <time>2012-07-28T09:33:26Z</time>
      </trkpt>
      <trkpt lat="53.454692037776113" lon="26.937517002224922">
        <ele>154.91</ele>
        <time>2012-07-28T09:33:41Z</time>
      </trkpt>
      <trkpt lat="53.454275038093328" lon="26.937431003898382">
        <ele>154.91</ele>
        <time>2012-07-28T09:33:55Z</time>
      </trkpt>
      <trkpt lat="53.454076973721385" lon="26.937376018613577">
        <ele>154.91</ele>
        <time>2012-07-28T09:34:07Z</time>
      </trkpt>
      <trkpt lat="53.454051995649934" lon="26.937371995300055">
        <ele>155.38999999999999</ele>
        <time>2012-07-28T09:34:08Z</time>
      </trkpt>
      <trkpt lat="53.454031962901354" lon="26.937368977814913">
        <ele>154.91</ele>
        <time>2012-07-28T09:34:09Z</time>
      </trkpt>
      <trkpt lat="53.454015031456947" lon="26.937367971986532">
        <ele>154.91</ele>
        <time>2012-07-28T09:34:10Z</time>
      </trkpt>
      <trkpt lat="53.453997010365129" lon="26.937363026663661">
        <ele>154.91</ele>
        <time>2012-07-28T09:34:11Z</time>
      </trkpt>
      <trkpt lat="53.453708002343774" lon="26.937403008341789">
        <ele>154.91</ele>
        <time>2012-07-28T09:34:24Z</time>
      </trkpt>
      <trkpt lat="53.45337800681591" lon="26.937560001388192">
        <ele>155.38999999999999</ele>
        <time>2012-07-28T09:34:38Z</time>
      </trkpt>
      <trkpt lat="53.452929994091392" lon="26.937716994434595">
        <ele>155.38999999999999</ele>
        <time>2012-07-28T09:34:55Z</time>
      </trkpt>
      <trkpt lat="53.452533027157187" lon="26.937825037166476">
        <ele>155.38999999999999</ele>
        <time>2012-07-28T09:35:10Z</time>
      </trkpt>
      <trkpt lat="53.452179981395602" lon="26.937923021614552">
        <ele>157.78999999999999</ele>
        <time>2012-07-28T09:35:25Z</time>
      </trkpt>
      <trkpt lat="53.451811010017991" lon="26.938041960820556">
        <ele>160.19999999999999</ele>
        <time>2012-07-28T09:35:41Z</time>
      </trkpt>
      <trkpt lat="53.451480008661747" lon="26.938181016594172">
        <ele>162.59999999999999</ele>
        <time>2012-07-28T09:35:54Z</time>
      </trkpt>
      <trkpt lat="53.451098967343569" lon="26.938280006870627">
        <ele>163.08000000000001</ele>
        <time>2012-07-28T09:36:08Z</time>
      </trkpt>
      <trkpt lat="53.45073401927948" lon="26.938398024067283">
        <ele>162.59999999999999</ele>
        <time>2012-07-28T09:36:22Z</time>
      </trkpt>
      <trkpt lat="53.450438976287842" lon="26.938492991030216">
        <ele>164.03999999999999</ele>
        <time>2012-07-28T09:36:37Z</time>
      </trkpt>
      <trkpt lat="53.450157009065151" lon="26.938555017113686">
        <ele>167.41</ele>
        <time>2012-07-28T09:36:52Z</time>
      </trkpt>
      <trkpt lat="53.450042009353638" lon="26.93856499157846">
        <ele>167.88999999999999</ele>
        <time>2012-07-28T09:36:58Z</time>
      </trkpt>
      <trkpt lat="53.450021976605058" lon="26.938574966043234">
        <ele>168.37</ele>
        <time>2012-07-28T09:36:59Z</time>
      </trkpt>
      <trkpt lat="53.45000303350389" lon="26.938579995185137">
        <ele>168.37</ele>
        <time>2012-07-28T09:37:00Z</time>
      </trkpt>
      <trkpt lat="53.449918963015079" lon="26.938591981306672">
        <ele>168.84999999999999</ele>
        <time>2012-07-28T09:37:04Z</time>
      </trkpt>
      <trkpt lat="53.449899014085531" lon="26.938602961599827">
        <ele>168.84999999999999</ele>
        <time>2012-07-28T09:37:05Z</time>
      </trkpt>
      <trkpt lat="53.44987696968019" lon="26.938612014055252">
        <ele>168.84999999999999</ele>
        <time>2012-07-28T09:37:06Z</time>
      </trkpt>
      <trkpt lat="53.449856014922261" lon="26.938616037368774">
        <ele>168.84999999999999</ele>
        <time>2012-07-28T09:37:07Z</time>
      </trkpt>
      <trkpt lat="53.449836988002062" lon="26.938619976863265">
        <ele>168.84999999999999</ele>
        <time>2012-07-28T09:37:08Z</time>
      </trkpt>
      <trkpt lat="53.44938101246953" lon="26.93871796131134">
        <ele>165.96000000000001</ele>
        <time>2012-07-28T09:37:23Z</time>
      </trkpt>
      <trkpt lat="53.448681039735675" lon="26.938862968236208">
        <ele>164.03999999999999</ele>
        <time>2012-07-28T09:37:34Z</time>
      </trkpt>
      <trkpt lat="53.448278959840536" lon="26.938961958512664">
        <ele>165.47999999999999</ele>
        <time>2012-07-28T09:37:45Z</time>
      </trkpt>
      <trkpt lat="53.4478750359267" lon="26.939039994031191">
        <ele>167.41</ele>
        <time>2012-07-28T09:38:00Z</time>
      </trkpt>
      <trkpt lat="53.447436997666955" lon="26.939097996801138">
        <ele>168.84999999999999</ele>
        <time>2012-07-28T09:38:16Z</time>
      </trkpt>
      <trkpt lat="53.446957971900702" lon="26.939165974035859">
        <ele>168.84999999999999</ele>
        <time>2012-07-28T09:38:31Z</time>
      </trkpt>
      <trkpt lat="53.446548013016582" lon="26.939267981797457">
        <ele>169.33000000000001</ele>
        <time>2012-07-28T09:38:43Z</time>
      </trkpt>
      <trkpt lat="53.44633100554347" lon="26.93938197568059">
        <ele>168.84999999999999</ele>
        <time>2012-07-28T09:38:52Z</time>
      </trkpt>
      <trkpt lat="53.446082985028625" lon="26.939477026462555">
        <ele>166.44999999999999</ele>
        <time>2012-07-28T09:39:03Z</time>
      </trkpt>
      <trkpt lat="53.445709990337491" lon="26.939655980095267">
        <ele>165</ele>
        <time>2012-07-28T09:39:14Z</time>
      </trkpt>
      <trkpt lat="53.445144966244698" lon="26.939888997003436">
        <ele>163.56</ele>
        <time>2012-07-28T09:39:28Z</time>
      </trkpt>
      <trkpt lat="53.444984033703804" lon="26.939979018643498">
        <ele>163.08000000000001</ele>
        <time>2012-07-28T09:39:32Z</time>
      </trkpt>
      <trkpt lat="53.444350026547909" lon="26.940312031656504">
        <ele>160.19999999999999</ele>
        <time>2012-07-28T09:39:47Z</time>
      </trkpt>
      <trkpt lat="53.4441829752177" lon="26.940163001418114">
        <ele>158.27000000000001</ele>
        <time>2012-07-28T09:39:58Z</time>
      </trkpt>
      <trkpt lat="53.444004021584988" lon="26.93996099755168">
        <ele>156.34999999999999</ele>
        <time>2012-07-28T09:40:08Z</time>
      </trkpt>
      <trkpt lat="53.443791037425399" lon="26.939695039764047">
        <ele>154.43000000000001</ele>
        <time>2012-07-28T09:40:19Z</time>
      </trkpt>
      <trkpt lat="53.44377301633358" lon="26.939674001187086">
        <ele>154.43000000000001</ele>
        <time>2012-07-28T09:40:20Z</time>
      </trkpt>
      <trkpt lat="53.443685006350279" lon="26.9397890008986">
        <ele>153.47</ele>
        <time>2012-07-28T09:40:28Z</time>
      </trkpt>
      <trkpt lat="53.443611999973655" lon="26.939992010593414">
        <ele>153.94999999999999</ele>
        <time>2012-07-28T09:40:35Z</time>
      </trkpt>
      <trkpt lat="53.443604959174991" lon="26.940054958686233">
        <ele>153.94999999999999</ele>
        <time>2012-07-28T09:40:51Z</time>
      </trkpt>
      <trkpt lat="53.443604037165642" lon="26.940054958686233">
        <ele>153.94999999999999</ele>
        <time>2012-07-28T09:41:23Z</time>
      </trkpt>
      <trkpt lat="53.443619040772319" lon="26.940098963677883">
        <ele>153.94999999999999</ele>
        <time>2012-07-28T09:41:26Z</time>
      </trkpt>
      <trkpt lat="53.443561960011721" lon="26.940636998042464">
        <ele>153.94999999999999</ele>
        <time>2012-07-28T09:41:37Z</time>
      </trkpt>
      <trkpt lat="53.44317396171391" lon="26.940751997753978">
        <ele>153.94999999999999</ele>
        <time>2012-07-28T09:41:47Z</time>
      </trkpt>
      <trkpt lat="53.443013029173017" lon="26.940784016624093">
        <ele>153.47</ele>
        <time>2012-07-28T09:41:51Z</time>
      </trkpt>
      <trkpt lat="53.442621007561684" lon="26.940650995820761">
        <ele>152.99000000000001</ele>
        <time>2012-07-28T09:42:03Z</time>
      </trkpt>
      <trkpt lat="53.442123038694263" lon="26.940845036879182">
        <ele>152.03</ele>
        <time>2012-07-28T09:42:16Z</time>
      </trkpt>
      <trkpt lat="53.44164602458477" lon="26.941139996051788">
        <ele>152.03</ele>
        <time>2012-07-28T09:42:29Z</time>
      </trkpt>
      <trkpt lat="53.441533036530018" lon="26.941196992993355">
        <ele>152.03</ele>
        <time>2012-07-28T09:42:32Z</time>
      </trkpt>
      <trkpt lat="53.441395992413163" lon="26.941351974382997">
        <ele>152.50999999999999</ele>
        <time>2012-07-28T09:42:36Z</time>
      </trkpt>
      <trkpt lat="53.441247968003154" lon="26.941482983529568">
        <ele>152.50999999999999</ele>
        <time>2012-07-28T09:42:40Z</time>
      </trkpt>
      <trkpt lat="53.440768020227551" lon="26.941842986270785">
        <ele>152.50999999999999</ele>
        <time>2012-07-28T09:42:53Z</time>
      </trkpt>
      <trkpt lat="53.440392008051276" lon="26.942269960418344">
        <ele>152.50999999999999</ele>
        <time>2012-07-28T09:43:05Z</time>
      </trkpt>
      <trkpt lat="53.440264016389847" lon="26.942950990051031">
        <ele>152.03</ele>
        <time>2012-07-28T09:43:18Z</time>
      </trkpt>
      <trkpt lat="53.440182963386178" lon="26.943663032725453">
        <ele>151.53999999999999</ele>
        <time>2012-07-28T09:43:31Z</time>
      </trkpt>
      <trkpt lat="53.440247001126409" lon="26.944217998534441">
        <ele>151.53999999999999</ele>
        <time>2012-07-28T09:43:44Z</time>
      </trkpt>
      <trkpt lat="53.440342973917723" lon="26.944693000987172">
        <ele>152.03</ele>
        <time>2012-07-28T09:43:56Z</time>
      </trkpt>
      <trkpt lat="53.440375998616219" lon="26.944830967113376">
        <ele>152.03</ele>
        <time>2012-07-28T09:44:01Z</time>
      </trkpt>
      <trkpt lat="53.440413968637586" lon="26.94490497931838">
        <ele>152.50999999999999</ele>
        <time>2012-07-28T09:44:05Z</time>
      </trkpt>
      <trkpt lat="53.440449004992843" lon="26.944897016510367">
        <ele>152.99000000000001</ele>
        <time>2012-07-28T09:44:08Z</time>
      </trkpt>
      <trkpt lat="53.440460991114378" lon="26.944859968498349">
        <ele>152.50999999999999</ele>
        <time>2012-07-28T09:44:27Z</time>
      </trkpt>
      <trkpt lat="53.440454034134746" lon="26.944859968498349">
        <ele>152.50999999999999</ele>
        <time>2012-07-28T09:48:25Z</time>
      </trkpt>
      <trkpt lat="53.440454034134746" lon="26.944884024560452">
        <ele>153.47</ele>
        <time>2012-07-28T09:52:46Z</time>
      </trkpt>
      <trkpt lat="53.440459985285997" lon="26.944869020953774">
        <ele>154.43000000000001</ele>
        <time>2012-07-28T10:01:06Z</time>
      </trkpt>
      <trkpt lat="53.440455961972475" lon="26.944870026782155">
        <ele>153.47</ele>
        <time>2012-07-28T10:06:34Z</time>
      </trkpt>
      <trkpt lat="53.440451016649604" lon="26.944869020953774">
        <ele>153.47</ele>
        <time>2012-07-28T10:14:06Z</time>
      </trkpt>
      <trkpt lat="53.440446993336082" lon="26.944869020953774">
        <ele>152.03</ele>
        <time>2012-07-28T10:17:02Z</time>
      </trkpt>
      <trkpt lat="53.440446993336082" lon="26.944866003468633">
        <ele>152.03</ele>
        <time>2012-07-28T10:18:20Z</time>
      </trkpt>
      <trkpt lat="53.440450010821223" lon="26.944863991811872">
        <ele>152.03</ele>
        <time>2012-07-28T10:20:03Z</time>
      </trkpt>
      <trkpt lat="53.44044498167932" lon="26.944862985983491">
        <ele>152.03</ele>
        <time>2012-07-28T10:22:08Z</time>
      </trkpt>
      <trkpt lat="53.440447999164462" lon="26.944870026782155">
        <ele>151.53999999999999</ele>
        <time>2012-07-28T10:25:02Z</time>
      </trkpt>
      <trkpt lat="53.440446993336082" lon="26.944866003468633">
        <ele>152.03</ele>
        <time>2012-07-28T10:28:24Z</time>
      </trkpt>
      <trkpt lat="53.440449004992843" lon="26.944870026782155">
        <ele>152.03</ele>
        <time>2012-07-28T10:31:41Z</time>
      </trkpt>
      <trkpt lat="53.440447999164462" lon="26.944869020953774">
        <ele>151.53999999999999</ele>
        <time>2012-07-28T10:33:04Z</time>
      </trkpt>
      <trkpt lat="53.440452022477984" lon="26.944869020953774">
        <ele>152.03</ele>
        <time>2012-07-28T10:34:19Z</time>
      </trkpt>
      <trkpt lat="53.440455961972475" lon="26.944874972105026">
        <ele>151.06</ele>
        <time>2012-07-28T10:37:59Z</time>
      </trkpt>
      <trkpt lat="53.440455961972475" lon="26.944874972105026">
        <ele>151.06</ele>
        <time>2012-07-28T10:39:01Z</time>
      </trkpt>
      <trkpt lat="53.440454034134746" lon="26.944872960448265">
        <ele>151.06</ele>
        <time>2012-07-28T10:39:38Z</time>
      </trkpt>
      <trkpt lat="53.440437018871307" lon="26.944877989590168">
        <ele>150.58000000000001</ele>
        <time>2012-07-28T10:40:50Z</time>
      </trkpt>
      <trkpt lat="53.440426038578153" lon="26.94486198015511">
        <ele>151.53999999999999</ele>
        <time>2012-07-28T10:41:19Z</time>
      </trkpt>
      <trkpt lat="53.440394019708037" lon="26.944811018183827">
        <ele>151.53999999999999</ele>
        <time>2012-07-28T10:41:23Z</time>
      </trkpt>
      <trkpt lat="53.440348003059626" lon="26.944720996543765">
        <ele>151.53999999999999</ele>
        <time>2012-07-28T10:41:33Z</time>
      </trkpt>
      <trkpt lat="53.440311038866639" lon="26.944394018501043">
        <ele>151.53999999999999</ele>
        <time>2012-07-28T10:41:51Z</time>
      </trkpt>
      <trkpt lat="53.440212970599532" lon="26.944008031859994">
        <ele>151.06</ele>
        <time>2012-07-28T10:42:12Z</time>
      </trkpt>
      <trkpt lat="53.440177012234926" lon="26.943695973604918">
        <ele>151.06</ele>
        <time>2012-07-28T10:42:27Z</time>
      </trkpt>
      <trkpt lat="53.440222023054957" lon="26.943256007507443">
        <ele>151.53999999999999</ele>
        <time>2012-07-28T10:42:48Z</time>
      </trkpt>
      <trkpt lat="53.440268961712718" lon="26.942997006699443">
        <ele>151.06</ele>
        <time>2012-07-28T10:43:03Z</time>
      </trkpt>
      <trkpt lat="53.440287988632917" lon="26.942702969536185">
        <ele>151.53999999999999</ele>
        <time>2012-07-28T10:43:18Z</time>
      </trkpt>
      <trkpt lat="53.440337022766471" lon="26.942387977614999">
        <ele>152.03</ele>
        <time>2012-07-28T10:43:35Z</time>
      </trkpt>
      <trkpt lat="53.440472977235913" lon="26.942093018442392">
        <ele>152.99000000000001</ele>
        <time>2012-07-28T10:43:55Z</time>
      </trkpt>
      <trkpt lat="53.440496027469635" lon="26.942063011229038">
        <ele>152.50999999999999</ele>
        <time>2012-07-28T10:43:58Z</time>
      </trkpt>
      <trkpt lat="53.440566016361117" lon="26.941981036216021">
        <ele>152.99000000000001</ele>
        <time>2012-07-28T10:44:18Z</time>
      </trkpt>
      <trkpt lat="53.440621001645923" lon="26.941906018182635">
        <ele>152.99000000000001</ele>
        <time>2012-07-28T10:44:44Z</time>
      </trkpt>
      <trkpt lat="53.440901041030884" lon="26.941727986559272">
        <ele>152.99000000000001</ele>
        <time>2012-07-28T10:44:54Z</time>
      </trkpt>
      <trkpt lat="53.441169010475278" lon="26.941531011834741">
        <ele>152.99000000000001</ele>
        <time>2012-07-28T10:45:05Z</time>
      </trkpt>
      <trkpt lat="53.4414769615978" lon="26.941256001591682">
        <ele>152.50999999999999</ele>
        <time>2012-07-28T10:45:18Z</time>
      </trkpt>
      <trkpt lat="53.441866971552372" lon="26.941008986905217">
        <ele>152.50999999999999</ele>
        <time>2012-07-28T10:45:31Z</time>
      </trkpt>
      <trkpt lat="53.442271985113621" lon="26.940794996917248">
        <ele>153.47</ele>
        <time>2012-07-28T10:45:45Z</time>
      </trkpt>
      <trkpt lat="53.4427410364151" lon="26.940636998042464">
        <ele>154.43000000000001</ele>
        <time>2012-07-28T10:46:01Z</time>
      </trkpt>
      <trkpt lat="53.443156024441123" lon="26.940743029117584">
        <ele>154.43000000000001</ele>
        <time>2012-07-28T10:46:15Z</time>
      </trkpt>
      <trkpt lat="53.443510998040438" lon="26.940728025510907">
        <ele>154.91</ele>
        <time>2012-07-28T10:46:27Z</time>
      </trkpt>
      <trkpt lat="53.443628009408712" lon="26.940276995301247">
        <ele>155.38999999999999</ele>
        <time>2012-07-28T10:46:37Z</time>
      </trkpt>
      <trkpt lat="53.443744014948606" lon="26.93966000340879">
        <ele>154.91</ele>
        <time>2012-07-28T10:46:49Z</time>
      </trkpt>
      <trkpt lat="53.443803023546934" lon="26.939063966274261">
        <ele>155.38999999999999</ele>
        <time>2012-07-28T10:47:01Z</time>
      </trkpt>
      <trkpt lat="53.443867983296514" lon="26.938425013795495">
        <ele>156.34999999999999</ele>
        <time>2012-07-28T10:47:14Z</time>
      </trkpt>
      <trkpt lat="53.444004021584988" lon="26.937898965552449">
        <ele>156.34999999999999</ele>
        <time>2012-07-28T10:47:27Z</time>
      </trkpt>
      <trkpt lat="53.44413997605443" lon="26.937345005571842">
        <ele>155.38999999999999</ele>
        <time>2012-07-28T10:47:40Z</time>
      </trkpt>
      <trkpt lat="53.444317001849413" lon="26.936550987884402">
        <ele>154.43000000000001</ele>
        <time>2012-07-28T10:47:57Z</time>
      </trkpt>
      <trkpt lat="53.444370981305838" lon="26.935806004330516">
        <ele>154.91</ele>
        <time>2012-07-28T10:48:12Z</time>
      </trkpt>
      <trkpt lat="53.444400988519192" lon="26.935177026316524">
        <ele>155.38999999999999</ele>
        <time>2012-07-28T10:48:25Z</time>
      </trkpt>
      <trkpt lat="53.444509031251073" lon="26.934236995875835">
        <ele>155.87</ele>
        <time>2012-07-28T10:48:43Z</time>
      </trkpt>
      <trkpt lat="53.444637022912502" lon="26.93334398791194">
        <ele>155.38999999999999</ele>
        <time>2012-07-28T10:49:02Z</time>
      </trkpt>
      <trkpt lat="53.444662000983953" lon="26.932878959923983">
        <ele>155.38999999999999</ele>
        <time>2012-07-28T10:49:13Z</time>
      </trkpt>
      <trkpt lat="53.444770965725183" lon="26.932304967194796">
        <ele>156.34999999999999</ele>
        <time>2012-07-28T10:49:27Z</time>
      </trkpt>
      <trkpt lat="53.444858975708485" lon="26.931661991402507">
        <ele>155.38999999999999</ele>
        <time>2012-07-28T10:49:40Z</time>
      </trkpt>
      <trkpt lat="53.445013035088778" lon="26.930871997028589">
        <ele>154.91</ele>
        <time>2012-07-28T10:49:56Z</time>
      </trkpt>
      <trkpt lat="53.445032984018326" lon="26.930116033181548">
        <ele>154.91</ele>
        <time>2012-07-28T10:50:10Z</time>
      </trkpt>
      <trkpt lat="53.445069026201963" lon="26.929410025477409">
        <ele>154.43000000000001</ele>
        <time>2012-07-28T10:50:23Z</time>
      </trkpt>
      <trkpt lat="53.445168016478419" lon="26.928644003346562">
        <ele>155.38999999999999</ele>
        <time>2012-07-28T10:50:38Z</time>
      </trkpt>
      <trkpt lat="53.445219984278083" lon="26.928005972877145">
        <ele>155.87</ele>
        <time>2012-07-28T10:50:52Z</time>
      </trkpt>
      <trkpt lat="53.445275975391269" lon="26.92720097489655">
        <ele>156.83000000000001</ele>
        <time>2012-07-28T10:51:09Z</time>
      </trkpt>
      <trkpt lat="53.445330038666725" lon="26.926551964133978">
        <ele>155.87</ele>
        <time>2012-07-28T10:51:22Z</time>
      </trkpt>
      <trkpt lat="53.445355016738176" lon="26.925950981676579">
        <ele>155.38999999999999</ele>
        <time>2012-07-28T10:51:35Z</time>
      </trkpt>
      <trkpt lat="53.445399021729827" lon="26.925362991169095">
        <ele>155.38999999999999</ele>
        <time>2012-07-28T10:51:48Z</time>
      </trkpt>
      <trkpt lat="53.445373959839344" lon="26.924934005364776">
        <ele>156.83000000000001</ele>
        <time>2012-07-28T10:52:01Z</time>
      </trkpt>
      <trkpt lat="53.445359962061048" lon="26.924930987879634">
        <ele>156.83000000000001</ele>
        <time>2012-07-28T10:52:13Z</time>
      </trkpt>
      <trkpt lat="53.445361973717809" lon="26.924927970394492">
        <ele>156.83000000000001</ele>
        <time>2012-07-28T10:58:55Z</time>
      </trkpt>
      <trkpt lat="53.445359962061048" lon="26.924937022849917">
        <ele>156.34999999999999</ele>
        <time>2012-07-28T11:02:12Z</time>
      </trkpt>
      <trkpt lat="53.445350993424654" lon="26.924906009808183">
        <ele>156.83000000000001</ele>
        <time>2012-07-28T11:02:57Z</time>
      </trkpt>
      <trkpt lat="53.445351999253035" lon="26.924890000373125">
        <ele>156.83000000000001</ele>
        <time>2012-07-28T11:02:58Z</time>
      </trkpt>
      <trkpt lat="53.44534202478826" lon="26.924547012895346">
        <ele>157.31</ele>
        <time>2012-07-28T11:03:09Z</time>
      </trkpt>
      <trkpt lat="53.445325009524822" lon="26.924355989322066">
        <ele>157.31</ele>
        <time>2012-07-28T11:03:14Z</time>
      </trkpt>
      <trkpt lat="53.445310005918145" lon="26.924159014597535">
        <ele>156.83000000000001</ele>
        <time>2012-07-28T11:03:19Z</time>
      </trkpt>
      <trkpt lat="53.445254014804959" lon="26.923603964969516">
        <ele>157.31</ele>
        <time>2012-07-28T11:03:32Z</time>
      </trkpt>
      <trkpt lat="53.445186959579587" lon="26.923004994168878">
        <ele>157.31</ele>
        <time>2012-07-28T11:03:44Z</time>
      </trkpt>
      <trkpt lat="53.445125017315149" lon="26.922466037794948">
        <ele>156.83000000000001</ele>
        <time>2012-07-28T11:03:55Z</time>
      </trkpt>
      <trkpt lat="53.44506299123168" lon="26.921799005940557">
        <ele>156.34999999999999</ele>
        <time>2012-07-28T11:04:08Z</time>
      </trkpt>
      <trkpt lat="53.444990990683436" lon="26.92092795856297">
        <ele>156.83000000000001</ele>
        <time>2012-07-28T11:04:24Z</time>
      </trkpt>
      <trkpt lat="53.444910021498799" lon="26.920167971402407">
        <ele>156.83000000000001</ele>
        <time>2012-07-28T11:04:39Z</time>
      </trkpt>
      <trkpt lat="53.444830980151892" lon="26.919319974258542">
        <ele>157.31</ele>
        <time>2012-07-28T11:04:56Z</time>
      </trkpt>
      <trkpt lat="53.444736013188958" lon="26.918483963236213">
        <ele>157.31</ele>
        <time>2012-07-28T11:05:11Z</time>
      </trkpt>
      <trkpt lat="53.444596035405993" lon="26.917944001033902">
        <ele>157.31</ele>
        <time>2012-07-28T11:05:24Z</time>
      </trkpt>
      <trkpt lat="53.444279031828046" lon="26.917363973334432">
        <ele>158.27000000000001</ele>
        <time>2012-07-28T11:05:39Z</time>
      </trkpt>
      <trkpt lat="53.444050038233399" lon="26.916788974776864">
        <ele>160.68000000000001</ele>
        <time>2012-07-28T11:05:53Z</time>
      </trkpt>
      <trkpt lat="53.443828001618385" lon="26.916120015084743">
        <ele>164.52000000000001</ele>
        <time>2012-07-28T11:06:09Z</time>
      </trkpt>
      <trkpt lat="53.443646030500531" lon="26.915588015690446">
        <ele>167.88999999999999</ele>
        <time>2012-07-28T11:06:23Z</time>
      </trkpt>
      <trkpt lat="53.443486019968987" lon="26.914957026019692">
        <ele>169.81</ele>
        <time>2012-07-28T11:06:36Z</time>
      </trkpt>
      <trkpt lat="53.443208998069167" lon="26.914185974746943">
        <ele>164.52000000000001</ele>
        <time>2012-07-28T11:06:52Z</time>
      </trkpt>
      <trkpt lat="53.442883025854826" lon="26.913570994511247">
        <ele>163.56</ele>
        <time>2012-07-28T11:07:09Z</time>
      </trkpt>
      <trkpt lat="53.442587982863188" lon="26.913162041455507">
        <ele>164.03999999999999</ele>
        <time>2012-07-28T11:07:22Z</time>
      </trkpt>
      <trkpt lat="53.442215994000435" lon="26.912817964330316">
        <ele>164.52000000000001</ele>
        <time>2012-07-28T11:07:37Z</time>
      </trkpt>
      <trkpt lat="53.441849034279585" lon="26.912408005446196">
        <ele>165.47999999999999</ele>
        <time>2012-07-28T11:07:52Z</time>
      </trkpt>
      <trkpt lat="53.441461035981774" lon="26.911905007436872">
        <ele>168.37</ele>
        <time>2012-07-28T11:08:09Z</time>
      </trkpt>
      <trkpt lat="53.441123999655247" lon="26.911355992779136">
        <ele>170.28999999999999</ele>
        <time>2012-07-28T11:08:24Z</time>
      </trkpt>
      <trkpt lat="53.440805990248919" lon="26.911023985594511">
        <ele>171.72999999999999</ele>
        <time>2012-07-28T11:08:37Z</time>
      </trkpt>
      <trkpt lat="53.440441964194179" lon="26.910558035597205">
        <ele>176.53999999999999</ele>
        <time>2012-07-28T11:08:52Z</time>
      </trkpt>
      <trkpt lat="53.44016301445663" lon="26.910017989575863">
        <ele>177.97999999999999</ele>
        <time>2012-07-28T11:09:06Z</time>
      </trkpt>
      <trkpt lat="53.440033011138439" lon="26.909311981871724">
        <ele>177.97999999999999</ele>
        <time>2012-07-28T11:09:18Z</time>
      </trkpt>
      <trkpt lat="53.43986202031374" lon="26.908633969724178">
        <ele>176.06</ele>
        <time>2012-07-28T11:09:31Z</time>
      </trkpt>
      <trkpt lat="53.439722964540124" lon="26.907944977283478">
        <ele>163.08000000000001</ele>
        <time>2012-07-28T11:09:44Z</time>
      </trkpt>
      <trkpt lat="53.439652975648642" lon="26.907227989286184">
        <ele>160.19999999999999</ele>
        <time>2012-07-28T11:09:59Z</time>
      </trkpt>
      <trkpt lat="53.439663033932447" lon="26.906748963519931">
        <ele>158.27000000000001</ele>
        <time>2012-07-28T11:10:11Z</time>
      </trkpt>
      <trkpt lat="53.439659010618925" lon="26.906631030142307">
        <ele>157.78999999999999</ele>
        <time>2012-07-28T11:10:15Z</time>
      </trkpt>
      <trkpt lat="53.439636966213584" lon="26.906333975493908">
        <ele>159.72</ele>
        <time>2012-07-28T11:10:28Z</time>
      </trkpt>
      <trkpt lat="53.439631015062332" lon="26.906347973272204">
        <ele>160.19999999999999</ele>
        <time>2012-07-28T11:10:46Z</time>
      </trkpt>
      <trkpt lat="53.439632020890713" lon="26.906372029334307">
        <ele>159.72</ele>
        <time>2012-07-28T11:10:47Z</time>
      </trkpt>
      <trkpt lat="53.439468992874026" lon="26.906589958816767">
        <ele>159.24000000000001</ele>
        <time>2012-07-28T11:10:59Z</time>
      </trkpt>
      <trkpt lat="53.439466981217265" lon="26.906557017937303">
        <ele>159.72</ele>
        <time>2012-07-28T11:11:21Z</time>
      </trkpt>
      <trkpt lat="53.439463041722775" lon="26.906517036259174">
        <ele>159.72</ele>
        <time>2012-07-28T11:11:42Z</time>
      </trkpt>
      <trkpt lat="53.439350975677371" lon="26.905954023823142">
        <ele>160.68000000000001</ele>
        <time>2012-07-28T11:11:56Z</time>
      </trkpt>
      <trkpt lat="53.439084012061357" lon="26.904949033632874">
        <ele>157.78999999999999</ele>
        <time>2012-07-28T11:12:12Z</time>
      </trkpt>
      <trkpt lat="53.438912015408278" lon="26.904327012598515">
        <ele>156.83000000000001</ele>
        <time>2012-07-28T11:12:26Z</time>
      </trkpt>
      <trkpt lat="53.438812019303441" lon="26.903699040412903">
        <ele>155.38999999999999</ele>
        <time>2012-07-28T11:12:40Z</time>
      </trkpt>
      <trkpt lat="53.438905980437994" lon="26.903259996324778">
        <ele>155.87</ele>
        <time>2012-07-28T11:12:51Z</time>
      </trkpt>
      <trkpt lat="53.439178979024291" lon="26.903334008529782">
        <ele>156.34999999999999</ele>
        <time>2012-07-28T11:13:04Z</time>
      </trkpt>
      <trkpt lat="53.439200017601252" lon="26.903328979387879">
        <ele>156.83000000000001</ele>
        <time>2012-07-28T11:13:25Z</time>
      </trkpt>
      <trkpt lat="53.439255002886057" lon="26.903316993266344">
        <ele>156.83000000000001</ele>
        <time>2012-07-28T11:13:40Z</time>
      </trkpt>
      <trkpt lat="53.439462035894394" lon="26.903177015483379">
        <ele>157.78999999999999</ele>
        <time>2012-07-28T11:13:52Z</time>
      </trkpt>
      <trkpt lat="53.439717013388872" lon="26.902866968885064">
        <ele>158.27000000000001</ele>
        <time>2012-07-28T11:14:05Z</time>
      </trkpt>
      <trkpt lat="53.440051032230258" lon="26.90253596752882">
        <ele>157.31</ele>
        <time>2012-07-28T11:14:19Z</time>
      </trkpt>
      <trkpt lat="53.440383961424232" lon="26.902160961180925">
        <ele>154.91</ele>
        <time>2012-07-28T11:14:34Z</time>
      </trkpt>
      <trkpt lat="53.44048798084259" lon="26.901628039777279">
        <ele>154.43000000000001</ele>
        <time>2012-07-28T11:14:47Z</time>
      </trkpt>
      <trkpt lat="53.440532991662621" lon="26.900826981291175">
        <ele>155.38999999999999</ele>
        <time>2012-07-28T11:15:04Z</time>
      </trkpt>
      <trkpt lat="53.440646985545754" lon="26.900242008268833">
        <ele>157.78999999999999</ele>
        <time>2012-07-28T11:15:18Z</time>
      </trkpt>
      <trkpt lat="53.44076500274241" lon="26.899524014443159">
        <ele>158.27000000000001</ele>
        <time>2012-07-28T11:15:35Z</time>
      </trkpt>
      <trkpt lat="53.440915960818529" lon="26.898952033370733">
        <ele>160.19999999999999</ele>
        <time>2012-07-28T11:15:49Z</time>
      </trkpt>
      <trkpt lat="53.441226007416844" lon="26.898426990956068">
        <ele>157.31</ele>
        <time>2012-07-28T11:16:04Z</time>
      </trkpt>
      <trkpt lat="53.441198011860251" lon="26.897794995456934">
        <ele>155.87</ele>
        <time>2012-07-28T11:16:15Z</time>
      </trkpt>
      <trkpt lat="53.441047975793481" lon="26.897078007459641">
        <ele>155.87</ele>
        <time>2012-07-28T11:16:29Z</time>
      </trkpt>
      <trkpt lat="53.440956026315689" lon="26.8963030166924">
        <ele>155.87</ele>
        <time>2012-07-28T11:16:46Z</time>
      </trkpt>
      <trkpt lat="53.44087103381753" lon="26.895491983741522">
        <ele>155.38999999999999</ele>
        <time>2012-07-28T11:17:03Z</time>
      </trkpt>
      <trkpt lat="53.440812025219202" lon="26.894699977710843">
        <ele>156.34999999999999</ele>
        <time>2012-07-28T11:17:20Z</time>
      </trkpt>
      <trkpt lat="53.440728038549423" lon="26.89379196614027">
        <ele>156.34999999999999</ele>
        <time>2012-07-28T11:17:39Z</time>
      </trkpt>
      <trkpt lat="53.440629970282316" lon="26.892825029790401">
        <ele>155.38999999999999</ele>
        <time>2012-07-28T11:17:59Z</time>
      </trkpt>
      <trkpt lat="53.440536009147763" lon="26.891992036253214">
        <ele>156.34999999999999</ele>
        <time>2012-07-28T11:18:17Z</time>
      </trkpt>
      <trkpt lat="53.44057297334075" lon="26.891300026327372">
        <ele>156.83000000000001</ele>
        <time>2012-07-28T11:18:32Z</time>
      </trkpt>
      <trkpt lat="53.440642040222883" lon="26.890714969485998">
        <ele>155.87</ele>
        <time>2012-07-28T11:18:46Z</time>
      </trkpt>
      <trkpt lat="53.44080800190568" lon="26.890169978141785">
        <ele>154.91</ele>
        <time>2012-07-28T11:19:02Z</time>
      </trkpt>
      <trkpt lat="53.440974969416857" lon="26.889652982354164">
        <ele>154.43000000000001</ele>
        <time>2012-07-28T11:19:16Z</time>
      </trkpt>
      <trkpt lat="53.441071026027203" lon="26.88919298350811">
        <ele>154.43000000000001</ele>
        <time>2012-07-28T11:19:28Z</time>
      </trkpt>
      <trkpt lat="53.441114025190473" lon="26.888726027682424">
        <ele>155.38999999999999</ele>
        <time>2012-07-28T11:19:41Z</time>
      </trkpt>
      <trkpt lat="53.441084017977118" lon="26.88820299692452">
        <ele>156.34999999999999</ele>
        <time>2012-07-28T11:19:55Z</time>
      </trkpt>
      <trkpt lat="53.441010005772114" lon="26.887712990865111">
        <ele>157.31</ele>
        <time>2012-07-28T11:20:08Z</time>
      </trkpt>
      <trkpt lat="53.440902968868613" lon="26.887105973437428">
        <ele>156.83000000000001</ele>
        <time>2012-07-28T11:20:23Z</time>
      </trkpt>
      <trkpt lat="53.440814036875963" lon="26.88657003454864">
        <ele>157.78999999999999</ele>
        <time>2012-07-28T11:20:35Z</time>
      </trkpt>
      <trkpt lat="53.440714962780476" lon="26.885949019342661">
        <ele>159.24000000000001</ele>
        <time>2012-07-28T11:20:49Z</time>
      </trkpt>
      <trkpt lat="53.44057297334075" lon="26.885311994701624">
        <ele>160.19999999999999</ele>
        <time>2012-07-28T11:21:04Z</time>
      </trkpt>
      <trkpt lat="53.440387984737754" lon="26.884682010859251">
        <ele>161.63999999999999</ele>
        <time>2012-07-28T11:21:21Z</time>
      </trkpt>
      <trkpt lat="53.4403579775244" lon="26.884771026670933">
        <ele>160.68000000000001</ele>
        <time>2012-07-28T11:21:33Z</time>
      </trkpt>
      <trkpt lat="53.440130995586514" lon="26.884237015619874">
        <ele>159.72</ele>
        <time>2012-07-28T11:21:50Z</time>
      </trkpt>
      <trkpt lat="53.439993029460311" lon="26.883637961000204">
        <ele>159.72</ele>
        <time>2012-07-28T11:22:04Z</time>
      </trkpt>
      <trkpt lat="53.439914993941784" lon="26.883047036826611">
        <ele>160.68000000000001</ele>
        <time>2012-07-28T11:22:19Z</time>
      </trkpt>
      <trkpt lat="53.43962699174881" lon="26.882961038500071">
        <ele>161.63999999999999</ele>
        <time>2012-07-28T11:22:32Z</time>
      </trkpt>
      <trkpt lat="53.439290039241314" lon="26.882956009358168">
        <ele>160.19999999999999</ele>
        <time>2012-07-28T11:22:46Z</time>
      </trkpt>
      <trkpt lat="53.438953002914786" lon="26.882875962182879">
        <ele>157.78999999999999</ele>
        <time>2012-07-28T11:23:00Z</time>
      </trkpt>
      <trkpt lat="53.438619989901781" lon="26.882730033248663">
        <ele>157.78999999999999</ele>
        <time>2012-07-28T11:23:14Z</time>
      </trkpt>
      <trkpt lat="53.43829401768744" lon="26.882644034922123">
        <ele>158.75</ele>
        <time>2012-07-28T11:23:27Z</time>
      </trkpt>
      <trkpt lat="53.437895039096475" lon="26.882567005231977">
        <ele>159.24000000000001</ele>
        <time>2012-07-28T11:23:43Z</time>
      </trkpt>
      <trkpt lat="53.43752003274858" lon="26.882514031603932">
        <ele>158.75</ele>
        <time>2012-07-28T11:23:57Z</time>
      </trkpt>
      <trkpt lat="53.437120970338583" lon="26.882426021620631">
        <ele>157.31</ele>
        <time>2012-07-28T11:24:12Z</time>
      </trkpt>
      <trkpt lat="53.436861969530582" lon="26.882362989708781">
        <ele>155.87</ele>
        <time>2012-07-28T11:24:23Z</time>
      </trkpt>
      <trkpt lat="53.436549995094538" lon="26.882437001913786">
        <ele>155.38999999999999</ele>
        <time>2012-07-28T11:24:38Z</time>
      </trkpt>
      <trkpt lat="53.436414040625095" lon="26.882521994411945">
        <ele>156.34999999999999</ele>
        <time>2012-07-28T11:24:51Z</time>
      </trkpt>
      <trkpt lat="53.436126038432121" lon="26.882571028545499">
        <ele>155.87</ele>
        <time>2012-07-28T11:25:03Z</time>
      </trkpt>
      <trkpt lat="53.435709960758686" lon="26.882775966078043">
        <ele>154.43000000000001</ele>
        <time>2012-07-28T11:25:20Z</time>
      </trkpt>
      <trkpt lat="53.435386000201106" lon="26.882899012416601">
        <ele>153.94999999999999</ele>
        <time>2012-07-28T11:25:33Z</time>
      </trkpt>
      <trkpt lat="53.434909991919994" lon="26.883052987977862">
        <ele>153.94999999999999</ele>
        <time>2012-07-28T11:25:51Z</time>
      </trkpt>
      <trkpt lat="53.434487963095307" lon="26.883144015446305">
        <ele>154.43000000000001</ele>
        <time>2012-07-28T11:26:06Z</time>
      </trkpt>
      <trkpt lat="53.434154028072953" lon="26.88278803601861">
        <ele>153.94999999999999</ele>
        <time>2012-07-28T11:26:20Z</time>
      </trkpt>
      <trkpt lat="53.433821015059948" lon="26.882349997758865">
        <ele>152.99000000000001</ele>
        <time>2012-07-28T11:26:36Z</time>
      </trkpt>
      <trkpt lat="53.433535024523735" lon="26.881993012502789">
        <ele>152.03</ele>
        <time>2012-07-28T11:26:49Z</time>
      </trkpt>
      <trkpt lat="53.433125987648964" lon="26.881440980359912">
        <ele>153.47</ele>
        <time>2012-07-28T11:27:07Z</time>
      </trkpt>
      <trkpt lat="53.43277201987803" lon="26.88098500482738">
        <ele>153.47</ele>
        <time>2012-07-28T11:27:22Z</time>
      </trkpt>
      <trkpt lat="53.432499021291733" lon="26.880617961287498">
        <ele>154.43000000000001</ele>
        <time>2012-07-28T11:27:35Z</time>
      </trkpt>
      <trkpt lat="53.432187968865037" lon="26.880262987688184">
        <ele>154.91</ele>
        <time>2012-07-28T11:27:49Z</time>
      </trkpt>
      <trkpt lat="53.431873982772231" lon="26.88031998462975">
        <ele>155.38999999999999</ele>
        <time>2012-07-28T11:28:01Z</time>
      </trkpt>
      <trkpt lat="53.431399986147881" lon="26.880572028458118">
        <ele>154.43000000000001</ele>
        <time>2012-07-28T11:28:19Z</time>
      </trkpt>
      <trkpt lat="53.431030008941889" lon="26.880752993747592">
        <ele>154.91</ele>
        <time>2012-07-28T11:28:33Z</time>
      </trkpt>
      <trkpt lat="53.430618038401008" lon="26.880916021764278">
        <ele>155.38999999999999</ele>
        <time>2012-07-28T11:28:48Z</time>
      </trkpt>
      <trkpt lat="53.430180000141263" lon="26.881037978455424">
        <ele>156.83000000000001</ele>
        <time>2012-07-28T11:29:04Z</time>
      </trkpt>
      <trkpt lat="53.429772974923253" lon="26.881165970116854">
        <ele>157.78999999999999</ele>
        <time>2012-07-28T11:29:19Z</time>
      </trkpt>
      <trkpt lat="53.429305013269186" lon="26.881320029497147">
        <ele>155.38999999999999</ele>
        <time>2012-07-28T11:29:34Z</time>
      </trkpt>
      <trkpt lat="53.428933024406433" lon="26.881224978715181">
        <ele>154.91</ele>
        <time>2012-07-28T11:29:48Z</time>
      </trkpt>
      <trkpt lat="53.42894802801311" lon="26.8807059712708">
        <ele>154.91</ele>
        <time>2012-07-28T11:29:59Z</time>
      </trkpt>
      <trkpt lat="53.429179033264518" lon="26.880161985754967">
        <ele>154.43000000000001</ele>
        <time>2012-07-28T11:30:13Z</time>
      </trkpt>
      <trkpt lat="53.42937701381743" lon="26.879870966076851">
        <ele>153.47</ele>
        <time>2012-07-28T11:30:26Z</time>
      </trkpt>
      <trkpt lat="53.429727964103222" lon="26.87958799302578">
        <ele>152.03</ele>
        <time>2012-07-28T11:30:40Z</time>
      </trkpt>
      <trkpt lat="53.430052008479834" lon="26.879325974732637">
        <ele>151.06</ele>
        <time>2012-07-28T11:30:53Z</time>
      </trkpt>
      <trkpt lat="53.430522987619042" lon="26.878853989765048">
        <ele>150.09999999999999</ele>
        <time>2012-07-28T11:31:08Z</time>
      </trkpt>
      <trkpt lat="53.430952979251742" lon="26.878390973433852">
        <ele>148.18000000000001</ele>
        <time>2012-07-28T11:31:24Z</time>
      </trkpt>
      <trkpt lat="53.431367967277765" lon="26.878000041469932">
        <ele>155.38999999999999</ele>
        <time>2012-07-28T11:31:38Z</time>
      </trkpt>
      <trkpt lat="53.431625962257385" lon="26.877620005980134">
        <ele>152.99000000000001</ele>
        <time>2012-07-28T11:31:51Z</time>
      </trkpt>
      <trkpt lat="53.431981019675732" lon="26.877248017117381">
        <ele>152.50999999999999</ele>
        <time>2012-07-28T11:32:05Z</time>
      </trkpt>
      <trkpt lat="53.432341022416949" lon="26.876993039622903">
        <ele>151.53999999999999</ele>
        <time>2012-07-28T11:32:19Z</time>
      </trkpt>
      <trkpt lat="53.432683004066348" lon="26.876743007451296">
        <ele>151.53999999999999</ele>
        <time>2012-07-28T11:32:32Z</time>
      </trkpt>
      <trkpt lat="53.432733966037631" lon="26.876678969711065">
        <ele>152.99000000000001</ele>
        <time>2012-07-28T11:32:50Z</time>
      </trkpt>
      <trkpt lat="53.432774031534791" lon="26.876643011346459">
        <ele>153.47</ele>
        <time>2012-07-28T11:33:34Z</time>
      </trkpt>
      <trkpt lat="53.432766990736127" lon="26.876632031053305">
        <ele>155.87</ele>
        <time>2012-07-28T11:34:28Z</time>
      </trkpt>
      <trkpt lat="53.432744024321437" lon="26.876677041873336">
        <ele>156.83000000000001</ele>
        <time>2012-07-28T11:34:45Z</time>
      </trkpt>
      <trkpt lat="53.432660959661007" lon="26.876746024936438">
        <ele>158.75</ele>
        <time>2012-07-28T11:34:58Z</time>
      </trkpt>
      <trkpt lat="53.432660959661007" lon="26.876746024936438">
        <ele>158.75</ele>
        <time>2012-07-28T11:35:36Z</time>
      </trkpt>
      <trkpt lat="53.432626007124782" lon="26.876777037978172">
        <ele>159.72</ele>
        <time>2012-07-28T11:35:46Z</time>
      </trkpt>
      <trkpt lat="53.432136001065373" lon="26.877011982724071">
        <ele>159.24000000000001</ele>
        <time>2012-07-28T11:36:02Z</time>
      </trkpt>
      <trkpt lat="53.431740961968899" lon="26.877538030967116">
        <ele>159.72</ele>
        <time>2012-07-28T11:36:14Z</time>
      </trkpt>
      <trkpt lat="53.431306025013328" lon="26.87810598872602">
        <ele>161.16</ele>
        <time>2012-07-28T11:36:27Z</time>
      </trkpt>
      <trkpt lat="53.430961025878787" lon="26.87849298119545">
        <ele>160.68000000000001</ele>
        <time>2012-07-28T11:36:37Z</time>
      </trkpt>
      <trkpt lat="53.430813001468778" lon="26.878632036969066">
        <ele>161.16</ele>
        <time>2012-07-28T11:36:41Z</time>
      </trkpt>
      <trkpt lat="53.430292988196015" lon="26.879173004999757">
        <ele>158.27000000000001</ele>
        <time>2012-07-28T11:36:54Z</time>
      </trkpt>
      <trkpt lat="53.430181005969644" lon="26.87926797196269">
        <ele>156.83000000000001</ele>
        <time>2012-07-28T11:36:57Z</time>
      </trkpt>
      <trkpt lat="53.429802982136607" lon="26.879477016627789">
        <ele>150.09999999999999</ele>
        <time>2012-07-28T11:37:06Z</time>
      </trkpt>
      <trkpt lat="53.429328985512257" lon="26.879785973578691">
        <ele>137.13</ele>
        <time>2012-07-28T11:37:19Z</time>
      </trkpt>
      <trkpt lat="53.429220020771027" lon="26.879908014088869">
        <ele>135.68000000000001</ele>
        <time>2012-07-28T11:37:29Z</time>
      </trkpt>
      <trkpt lat="53.429237036034465" lon="26.879916982725263">
        <ele>137.61000000000001</ele>
        <time>2012-07-28T11:37:47Z</time>
      </trkpt>
      <trkpt lat="53.429237036034465" lon="26.879967022687197">
        <ele>138.56999999999999</ele>
        <time>2012-07-28T11:37:52Z</time>
      </trkpt>
      <trkpt lat="53.429062021896243" lon="26.880402965471148">
        <ele>135.68000000000001</ele>
        <time>2012-07-28T11:38:02Z</time>
      </trkpt>
      <trkpt lat="53.428807966411114" lon="26.880852989852428">
        <ele>135.68000000000001</ele>
        <time>2012-07-28T11:38:12Z</time>
      </trkpt>
      <trkpt lat="53.42877603136003" lon="26.880894983187318">
        <ele>134.72</ele>
        <time>2012-07-28T11:38:17Z</time>
      </trkpt>
      <trkpt lat="53.428759016096592" lon="26.880909986793995">
        <ele>135.19999999999999</ele>
        <time>2012-07-28T11:38:39Z</time>
      </trkpt>
      <trkpt lat="53.42875499278307" lon="26.880914010107517">
        <ele>136.16</ele>
        <time>2012-07-28T11:39:19Z</time>
      </trkpt>
      <trkpt lat="53.428623983636498" lon="26.880933037027717">
        <ele>138.56999999999999</ele>
        <time>2012-07-28T11:39:32Z</time>
      </trkpt>
      <trkpt lat="53.428585007786751" lon="26.880949968472123">
        <ele>139.53</ele>
        <time>2012-07-28T11:39:47Z</time>
      </trkpt>
      <trkpt lat="53.428350985050201" lon="26.880949968472123">
        <ele>141.93000000000001</ele>
        <time>2012-07-28T11:40:00Z</time>
      </trkpt>
      <trkpt lat="53.427932979539037" lon="26.881097992882133">
        <ele>141.44999999999999</ele>
        <time>2012-07-28T11:40:13Z</time>
      </trkpt>
      <trkpt lat="53.427408020943403" lon="26.881293961778283">
        <ele>145.78</ele>
        <time>2012-07-28T11:40:29Z</time>
      </trkpt>
      <trkpt lat="53.426968976855278" lon="26.881288010627031">
        <ele>154.43000000000001</ele>
        <time>2012-07-28T11:40:43Z</time>
      </trkpt>
      <trkpt lat="53.426619032397866" lon="26.881260015070438">
        <ele>157.31</ele>
        <time>2012-07-28T11:40:55Z</time>
      </trkpt>
      <trkpt lat="53.426032969728112" lon="26.881205029785633">
        <ele>156.34999999999999</ele>
        <time>2012-07-28T11:41:08Z</time>
      </trkpt>
      <trkpt lat="53.425746979191899" lon="26.881570983678102">
        <ele>153.47</ele>
        <time>2012-07-28T11:41:18Z</time>
      </trkpt>
      <trkpt lat="53.425406003370881" lon="26.882130978628993">
        <ele>152.50999999999999</ele>
        <time>2012-07-28T11:41:30Z</time>
      </trkpt>
      <trkpt lat="53.425012975931168" lon="26.882591983303428">
        <ele>152.50999999999999</ele>
        <time>2012-07-28T11:41:44Z</time>
      </trkpt>
      <trkpt lat="53.424593964591622" lon="26.882488969713449">
        <ele>152.50999999999999</ele>
        <time>2012-07-28T11:41:56Z</time>
      </trkpt>
      <trkpt lat="53.424100019037724" lon="26.882366007193923">
        <ele>154.43000000000001</ele>
        <time>2012-07-28T11:42:11Z</time>
      </trkpt>
      <trkpt lat="53.423526026308537" lon="26.882362989708781">
        <ele>155.87</ele>
        <time>2012-07-28T11:42:29Z</time>
      </trkpt>
      <trkpt lat="53.422829993069172" lon="26.882351003587246">
        <ele>154.91</ele>
        <time>2012-07-28T11:42:49Z</time>
      </trkpt>
      <trkpt lat="53.422338981181383" lon="26.882284032180905">
        <ele>154.91</ele>
        <time>2012-07-28T11:43:04Z</time>
      </trkpt>
      <trkpt lat="53.421649988740683" lon="26.882070964202285">
        <ele>153.94999999999999</ele>
        <time>2012-07-28T11:43:22Z</time>
      </trkpt>
      <trkpt lat="53.421203987672925" lon="26.881811963394284">
        <ele>153.94999999999999</ele>
        <time>2012-07-28T11:43:35Z</time>
      </trkpt>
      <trkpt lat="53.42093501240015" lon="26.881550028920174">
        <ele>153.47</ele>
        <time>2012-07-28T11:43:46Z</time>
      </trkpt>
      <trkpt lat="53.420852031558752" lon="26.881561009213328">
        <ele>154.43000000000001</ele>
        <time>2012-07-28T11:43:52Z</time>
      </trkpt>
      <trkpt lat="53.420769972726703" lon="26.881534019485116">
        <ele>154.91</ele>
        <time>2012-07-28T11:43:58Z</time>
      </trkpt>
      <trkpt lat="53.42046202160418" lon="26.881603002548218">
        <ele>155.38999999999999</ele>
        <time>2012-07-28T11:44:11Z</time>
      </trkpt>
      <trkpt lat="53.420411981642246" lon="26.881691012531519">
        <ele>156.34999999999999</ele>
        <time>2012-07-28T11:44:15Z</time>
      </trkpt>
      <trkpt lat="53.420403013005853" lon="26.881535025313497">
        <ele>155.87</ele>
        <time>2012-07-28T11:44:27Z</time>
      </trkpt>
      <trkpt lat="53.420412987470627" lon="26.881535025313497">
        <ele>155.38999999999999</ele>
        <time>2012-07-28T11:44:28Z</time>
      </trkpt>
      <trkpt lat="53.42046202160418" lon="26.881537958979607">
        <ele>155.38999999999999</ele>
        <time>2012-07-28T11:44:31Z</time>
      </trkpt>
      <trkpt lat="53.42050401493907" lon="26.881590010598302">
        <ele>158.27000000000001</ele>
        <time>2012-07-28T11:44:40Z</time>
      </trkpt>
      <trkpt lat="53.420466966927052" lon="26.881699981167912">
        <ele>159.24000000000001</ele>
        <time>2012-07-28T11:44:54Z</time>
      </trkpt>
      <trkpt lat="53.420433020219207" lon="26.881635021418333">
        <ele>158.75</ele>
        <time>2012-07-28T11:45:03Z</time>
      </trkpt>
      <trkpt lat="53.420411981642246" lon="26.88148096203804">
        <ele>157.78999999999999</ele>
        <time>2012-07-28T11:45:13Z</time>
      </trkpt>
      <trkpt lat="53.420370994135737" lon="26.881390018388629">
        <ele>157.31</ele>
        <time>2012-07-28T11:45:17Z</time>
      </trkpt>
      <trkpt lat="53.420047033578157" lon="26.881334027275443">
        <ele>155.87</ele>
        <time>2012-07-28T11:45:28Z</time>
      </trkpt>
      <trkpt lat="53.419627016410232" lon="26.881421031430364">
        <ele>153.47</ele>
        <time>2012-07-28T11:45:41Z</time>
      </trkpt>
      <trkpt lat="53.419231977313757" lon="26.881418013945222">
        <ele>154.43000000000001</ele>
        <time>2012-07-28T11:45:55Z</time>
      </trkpt>
      <trkpt lat="53.418802991509438" lon="26.881240988150239">
        <ele>157.31</ele>
        <time>2012-07-28T11:46:09Z</time>
      </trkpt>
      <trkpt lat="53.418276021257043" lon="26.880962960422039">
        <ele>160.19999999999999</ele>
        <time>2012-07-28T11:46:24Z</time>
      </trkpt>
      <trkpt lat="53.418092960491776" lon="26.880986010655761">
        <ele>158.75</ele>
        <time>2012-07-28T11:46:31Z</time>
      </trkpt>
      <trkpt lat="53.417991036549211" lon="26.881149038672447">
        <ele>157.78999999999999</ele>
        <time>2012-07-28T11:46:36Z</time>
      </trkpt>
      <trkpt lat="53.417888022959232" lon="26.881301002576947">
        <ele>156.83000000000001</ele>
        <time>2012-07-28T11:46:45Z</time>
      </trkpt>
      <trkpt lat="53.417967986315489" lon="26.88122296705842">
        <ele>157.31</ele>
        <time>2012-07-28T11:46:54Z</time>
      </trkpt>
      <trkpt lat="53.418004028499126" lon="26.881024986505508">
        <ele>156.83000000000001</ele>
        <time>2012-07-28T11:47:00Z</time>
      </trkpt>
      <trkpt lat="53.417956000193954" lon="26.880943011492491">
        <ele>154.91</ele>
        <time>2012-07-28T11:47:10Z</time>
      </trkpt>
      <trkpt lat="53.417886011302471" lon="26.88100696541369">
        <ele>153.94999999999999</ele>
        <time>2012-07-28T11:47:15Z</time>
      </trkpt>
      <trkpt lat="53.417479991912842" lon="26.881225984543562">
        <ele>154.43000000000001</ele>
        <time>2012-07-28T11:47:26Z</time>
      </trkpt>
      <trkpt lat="53.417436992749572" lon="26.881186002865434">
        <ele>154.43000000000001</ele>
        <time>2012-07-28T11:47:36Z</time>
      </trkpt>
      <trkpt lat="53.417445039376616" lon="26.881175022572279">
        <ele>154.43000000000001</ele>
        <time>2012-07-28T11:49:18Z</time>
      </trkpt>
      <trkpt lat="53.417453002184629" lon="26.881164964288473">
        <ele>153.47</ele>
        <time>2012-07-28T11:52:52Z</time>
      </trkpt>
      <trkpt lat="53.417450990527868" lon="26.881151972338557">
        <ele>152.50999999999999</ele>
        <time>2012-07-28T11:56:13Z</time>
      </trkpt>
      <trkpt lat="53.417455013841391" lon="26.881159013137221">
        <ele>152.50999999999999</ele>
        <time>2012-07-28T11:58:31Z</time>
      </trkpt>
      <trkpt lat="53.41745400801301" lon="26.881167981773615">
        <ele>152.03</ele>
        <time>2012-07-28T12:01:01Z</time>
      </trkpt>
      <trkpt lat="53.417456019669771" lon="26.881166975945234">
        <ele>151.53999999999999</ele>
        <time>2012-07-28T12:01:53Z</time>
      </trkpt>
      <trkpt lat="53.417457025498152" lon="26.881166975945234">
        <ele>151.53999999999999</ele>
        <time>2012-07-28T12:02:35Z</time>
      </trkpt>
      <trkpt lat="53.41745400801301" lon="26.881162030622363">
        <ele>151.53999999999999</ele>
        <time>2012-07-28T12:03:00Z</time>
      </trkpt>
      <trkpt lat="53.417453002184629" lon="26.881170999258757">
        <ele>152.03</ele>
        <time>2012-07-28T12:04:07Z</time>
      </trkpt>
      <trkpt lat="53.417502036318183" lon="26.881211986765265">
        <ele>151.53999999999999</ele>
        <time>2012-07-28T12:04:19Z</time>
      </trkpt>
      <trkpt lat="53.417543023824692" lon="26.881225984543562">
        <ele>151.53999999999999</ele>
        <time>2012-07-28T12:04:32Z</time>
      </trkpt>
      <trkpt lat="53.417659029364586" lon="26.881259009242058">
        <ele>151.53999999999999</ele>
        <time>2012-07-28T12:04:42Z</time>
      </trkpt>
      <trkpt lat="53.417799007147551" lon="26.88117996789515">
        <ele>150.58000000000001</ele>
        <time>2012-07-28T12:04:54Z</time>
      </trkpt>
      <trkpt lat="53.417845023795962" lon="26.881034960970283">
        <ele>150.58000000000001</ele>
        <time>2012-07-28T12:05:02Z</time>
      </trkpt>
      <trkpt lat="53.417821973562241" lon="26.880738995969296">
        <ele>153.94999999999999</ele>
        <time>2012-07-28T12:05:17Z</time>
      </trkpt>
      <trkpt lat="53.417573031038046" lon="26.880673030391335">
        <ele>161.63999999999999</ele>
        <time>2012-07-28T12:05:34Z</time>
      </trkpt>
      <trkpt lat="53.417403968051076" lon="26.88057697378099">
        <ele>164.03999999999999</ele>
        <time>2012-07-28T12:05:48Z</time>
      </trkpt>
      <trkpt lat="53.417249992489815" lon="26.880465997382998">
        <ele>163.56</ele>
        <time>2012-07-28T12:06:02Z</time>
      </trkpt>
      <trkpt lat="53.417235994711518" lon="26.880449987947941">
        <ele>163.56</ele>
        <time>2012-07-28T12:06:20Z</time>
      </trkpt>
      <trkpt lat="53.417056035250425" lon="26.880393996834755">
        <ele>164.03999999999999</ele>
        <time>2012-07-28T12:06:36Z</time>
      </trkpt>
      <trkpt lat="53.416640963405371" lon="26.88018998131156">
        <ele>160.68000000000001</ele>
        <time>2012-07-28T12:06:50Z</time>
      </trkpt>
      <trkpt lat="53.416277021169662" lon="26.880111023783684">
        <ele>157.78999999999999</ele>
        <time>2012-07-28T12:07:03Z</time>
      </trkpt>
      <trkpt lat="53.415932022035122" lon="26.880034999921918">
        <ele>154.43000000000001</ele>
        <time>2012-07-28T12:07:17Z</time>
      </trkpt>
      <trkpt lat="53.415578976273537" lon="26.879875995218754">
        <ele>153.47</ele>
        <time>2012-07-28T12:07:29Z</time>
      </trkpt>
      <trkpt lat="53.415261972695589" lon="26.879775999113917">
        <ele>149.62</ele>
        <time>2012-07-28T12:07:41Z</time>
      </trkpt>
      <trkpt lat="53.414975982159376" lon="26.879679020494223">
        <ele>146.74000000000001</ele>
        <time>2012-07-28T12:07:53Z</time>
      </trkpt>
      <trkpt lat="53.414794011041522" lon="26.879555974155664">
        <ele>144.34</ele>
        <time>2012-07-28T12:08:05Z</time>
      </trkpt>
      <trkpt lat="53.414464015513659" lon="26.879294039681554">
        <ele>145.78</ele>
        <time>2012-07-28T12:08:19Z</time>
      </trkpt>
      <trkpt lat="53.414089009165764" lon="26.879031015560031">
        <ele>149.13999999999999</ele>
        <time>2012-07-28T12:08:33Z</time>
      </trkpt>
      <trkpt lat="53.413676032796502" lon="26.878603035584092">
        <ele>150.58000000000001</ele>
        <time>2012-07-28T12:08:48Z</time>
      </trkpt>
      <trkpt lat="53.413460031151772" lon="26.878446964547038">
        <ele>155.87</ele>
        <time>2012-07-28T12:08:58Z</time>
      </trkpt>
      <trkpt lat="53.41317999176681" lon="26.87821302562952">
        <ele>156.83000000000001</ele>
        <time>2012-07-28T12:09:11Z</time>
      </trkpt>
      <trkpt lat="53.412776989862323" lon="26.877986965700984">
        <ele>160.68000000000001</ele>
        <time>2012-07-28T12:09:24Z</time>
      </trkpt>
      <trkpt lat="53.412412041798234" lon="26.877876995131373">
        <ele>162.12</ele>
        <time>2012-07-28T12:09:38Z</time>
      </trkpt>
      <trkpt lat="53.412035023793578" lon="26.877660993486643">
        <ele>163.08000000000001</ele>
        <time>2012-07-28T12:09:52Z</time>
      </trkpt>
      <trkpt lat="53.411662029102445" lon="26.87737500295043">
        <ele>162.59999999999999</ele>
        <time>2012-07-28T12:10:06Z</time>
      </trkpt>
      <trkpt lat="53.411255003884435" lon="26.876987004652619">
        <ele>163.08000000000001</ele>
        <time>2012-07-28T12:10:22Z</time>
      </trkpt>
      <trkpt lat="53.410915033891797" lon="26.876793969422579">
        <ele>165</ele>
        <time>2012-07-28T12:10:36Z</time>
      </trkpt>
      <trkpt lat="53.410562993958592" lon="26.876593977212906">
        <ele>164.52000000000001</ele>
        <time>2012-07-28T12:10:50Z</time>
      </trkpt>
      <trkpt lat="53.410237021744251" lon="26.87632299028337">
        <ele>164.52000000000001</ele>
        <time>2012-07-28T12:11:03Z</time>
      </trkpt>
      <trkpt lat="53.409872995689511" lon="26.875960975885391">
        <ele>164.03999999999999</ele>
        <time>2012-07-28T12:11:17Z</time>
      </trkpt>
      <trkpt lat="53.409484997391701" lon="26.875579012557864">
        <ele>163.56</ele>
        <time>2012-07-28T12:11:30Z</time>
      </trkpt>
      <trkpt lat="53.409232031553984" lon="26.87522697262466">
        <ele>163.56</ele>
        <time>2012-07-28T12:11:36Z</time>
      </trkpt>
      <trkpt lat="53.40873297303915" lon="26.874607969075441">
        <ele>162.12</ele>
        <time>2012-07-28T12:11:48Z</time>
      </trkpt>
      <trkpt lat="53.40845100581646" lon="26.874139001592994">
        <ele>160.68000000000001</ele>
        <time>2012-07-28T12:11:55Z</time>
      </trkpt>
      <trkpt lat="53.408255958929658" lon="26.873523015528917">
        <ele>159.72</ele>
        <time>2012-07-28T12:12:04Z</time>
      </trkpt>
      <trkpt lat="53.408178007230163" lon="26.872851038351655">
        <ele>156.34999999999999</ele>
        <time>2012-07-28T12:12:17Z</time>
      </trkpt>
      <trkpt lat="53.408096032217145" lon="26.872242009267211">
        <ele>154.43000000000001</ele>
        <time>2012-07-28T12:12:30Z</time>
      </trkpt>
      <trkpt lat="53.407952031120658" lon="26.871610013768077">
        <ele>154.91</ele>
        <time>2012-07-28T12:12:42Z</time>
      </trkpt>
      <trkpt lat="53.407709039747715" lon="26.8714240193367">
        <ele>153.47</ele>
        <time>2012-07-28T12:12:53Z</time>
      </trkpt>
      <trkpt lat="53.407713985070586" lon="26.871426030993462">
        <ele>152.99000000000001</ele>
        <time>2012-07-28T12:13:10Z</time>
      </trkpt>
      <trkpt lat="53.407712979242206" lon="26.87142301350832">
        <ele>152.99000000000001</ele>
        <time>2012-07-28T12:14:42Z</time>
      </trkpt>
      <trkpt lat="53.407712979242206" lon="26.87142301350832">
        <ele>152.99000000000001</ele>
        <time>2012-07-28T12:14:47Z</time>
      </trkpt>
      <trkpt lat="53.407461019232869" lon="26.871752003207803">
        <ele>152.03</ele>
        <time>2012-07-28T12:14:59Z</time>
      </trkpt>
      <trkpt lat="53.407431012019515" lon="26.87176700681448">
        <ele>152.03</ele>
        <time>2012-07-28T12:15:10Z</time>
      </trkpt>
      <trkpt lat="53.4073989931494" lon="26.871778992936015">
        <ele>151.53999999999999</ele>
        <time>2012-07-28T12:15:25Z</time>
      </trkpt>
      <trkpt lat="53.40739999897778" lon="26.871777987107635">
        <ele>151.06</ele>
        <time>2012-07-28T12:16:08Z</time>
      </trkpt>
      <trkpt lat="53.40739999897778" lon="26.871783016249537">
        <ele>151.53999999999999</ele>
        <time>2012-07-28T12:16:27Z</time>
      </trkpt>
      <trkpt lat="53.407395975664258" lon="26.871781004592776">
        <ele>152.03</ele>
        <time>2012-07-28T12:16:57Z</time>
      </trkpt>
      <trkpt lat="53.407407039776444" lon="26.871766000986099">
        <ele>151.53999999999999</ele>
        <time>2012-07-28T12:17:01Z</time>
      </trkpt>
      <trkpt lat="53.407703004777431" lon="26.871457966044545">
        <ele>151.53999999999999</ele>
        <time>2012-07-28T12:17:14Z</time>
      </trkpt>
      <trkpt lat="53.407711973413825" lon="26.87144698575139">
        <ele>151.06</ele>
        <time>2012-07-28T12:17:22Z</time>
      </trkpt>
      <trkpt lat="53.407706022262573" lon="26.871483027935028">
        <ele>151.06</ele>
        <time>2012-07-28T12:17:25Z</time>
      </trkpt>
      <trkpt lat="53.407552968710661" lon="26.871667010709643">
        <ele>151.53999999999999</ele>
        <time>2012-07-28T12:17:29Z</time>
      </trkpt>
      <trkpt lat="53.407370997592807" lon="26.871775975450873">
        <ele>152.03</ele>
        <time>2012-07-28T12:17:40Z</time>
      </trkpt>
      <trkpt lat="53.407364040613174" lon="26.871793996542692">
        <ele>151.53999999999999</ele>
        <time>2012-07-28T12:17:42Z</time>
      </trkpt>
      <trkpt lat="53.407294973731041" lon="26.871997006237507">
        <ele>151.53999999999999</ele>
        <time>2012-07-28T12:17:49Z</time>
      </trkpt>
      <trkpt lat="53.407070003449917" lon="26.872870987281203">
        <ele>150.09999999999999</ele>
        <time>2012-07-28T12:18:06Z</time>
      </trkpt>
      <trkpt lat="53.407166982069612" lon="26.873543970286846">
        <ele>149.62</ele>
        <time>2012-07-28T12:18:19Z</time>
      </trkpt>
      <trkpt lat="53.407255997881293" lon="26.874365983530879">
        <ele>150.58000000000001</ele>
        <time>2012-07-28T12:18:34Z</time>
      </trkpt>
      <trkpt lat="53.407327998429537" lon="26.875581024214625">
        <ele>149.62</ele>
        <time>2012-07-28T12:18:55Z</time>
      </trkpt>
      <trkpt lat="53.407358005642891" lon="26.876517031341791">
        <ele>149.62</ele>
        <time>2012-07-28T12:19:11Z</time>
      </trkpt>
      <trkpt lat="53.40729002840817" lon="26.877336027100682">
        <ele>149.62</ele>
        <time>2012-07-28T12:19:27Z</time>
      </trkpt>
      <trkpt lat="53.407283993437886" lon="26.878078998997808">
        <ele>150.58000000000001</ele>
        <time>2012-07-28T12:19:42Z</time>
      </trkpt>
      <trkpt lat="53.407440986484289" lon="26.878981981426477">
        <ele>152.03</ele>
        <time>2012-07-28T12:19:57Z</time>
      </trkpt>
      <trkpt lat="53.407483985647559" lon="26.879829978570342">
        <ele>150.58000000000001</ele>
        <time>2012-07-28T12:20:11Z</time>
      </trkpt>
      <trkpt lat="53.407481973990798" lon="26.8799530249089">
        <ele>150.09999999999999</ele>
        <time>2012-07-28T12:20:13Z</time>
      </trkpt>
      <trkpt lat="53.407370997592807" lon="26.88031998462975">
        <ele>149.62</ele>
        <time>2012-07-28T12:20:18Z</time>
      </trkpt>
      <trkpt lat="53.407006971538067" lon="26.880675964057446">
        <ele>148.18000000000001</ele>
        <time>2012-07-28T12:20:28Z</time>
      </trkpt>
      <trkpt lat="53.406459968537092" lon="26.880659032613039">
        <ele>149.62</ele>
        <time>2012-07-28T12:20:44Z</time>
      </trkpt>
      <trkpt lat="53.405948001891375" lon="26.880655009299517">
        <ele>149.62</ele>
        <time>2012-07-28T12:20:59Z</time>
      </trkpt>
      <trkpt lat="53.405420025810599" lon="26.880685016512871">
        <ele>148.66</ele>
        <time>2012-07-28T12:21:13Z</time>
      </trkpt>
      <trkpt lat="53.40486497618258" lon="26.880704965442419">
        <ele>150.58000000000001</ele>
        <time>2012-07-28T12:21:28Z</time>
      </trkpt>
      <trkpt lat="53.40443498454988" lon="26.880355020985007">
        <ele>150.58000000000001</ele>
        <time>2012-07-28T12:21:41Z</time>
      </trkpt>
      <trkpt lat="53.403994012624025" lon="26.880156034603715">
        <ele>151.06</ele>
        <time>2012-07-28T12:21:53Z</time>
      </trkpt>
      <trkpt lat="53.403485985472798" lon="26.880111023783684">
        <ele>151.06</ele>
        <time>2012-07-28T12:22:06Z</time>
      </trkpt>
      <trkpt lat="53.402987010776997" lon="26.879868032410741">
        <ele>150.09999999999999</ele>
        <time>2012-07-28T12:22:20Z</time>
      </trkpt>
      <trkpt lat="53.402472026646137" lon="26.879536025226116">
        <ele>152.03</ele>
        <time>2012-07-28T12:22:35Z</time>
      </trkpt>
      <trkpt lat="53.401966011151671" lon="26.879619006067514">
        <ele>151.53999999999999</ele>
        <time>2012-07-28T12:22:49Z</time>
      </trkpt>
      <trkpt lat="53.401430994272232" lon="26.879659993574023">
        <ele>151.06</ele>
        <time>2012-07-28T12:23:04Z</time>
      </trkpt>
      <trkpt lat="53.40095398016274" lon="26.879660999402404">
        <ele>151.53999999999999</ele>
        <time>2012-07-28T12:23:18Z</time>
      </trkpt>
      <trkpt lat="53.400469003245234" lon="26.879475004971027">
        <ele>151.53999999999999</ele>
        <time>2012-07-28T12:23:33Z</time>
      </trkpt>
      <trkpt lat="53.400312010198832" lon="26.879126988351345">
        <ele>152.03</ele>
        <time>2012-07-28T12:23:44Z</time>
      </trkpt>
      <trkpt lat="53.400294994935393" lon="26.878485018387437">
        <ele>151.53999999999999</ele>
        <time>2012-07-28T12:23:57Z</time>
      </trkpt>
      <trkpt lat="53.400323996320367" lon="26.877536019310355">
        <ele>152.03</ele>
        <time>2012-07-28T12:24:14Z</time>
      </trkpt>
      <trkpt lat="53.40024596080184" lon="26.876818025484681">
        <ele>151.53999999999999</ele>
        <time>2012-07-28T12:24:27Z</time>
      </trkpt>
      <trkpt lat="53.400044962763786" lon="26.875890986993909">
        <ele>152.03</ele>
        <time>2012-07-28T12:24:44Z</time>
      </trkpt>
      <trkpt lat="53.399881012737751" lon="26.875158995389938">
        <ele>151.06</ele>
        <time>2012-07-28T12:24:58Z</time>
      </trkpt>
      <trkpt lat="53.399639027193189" lon="26.874233968555927">
        <ele>150.09999999999999</ele>
        <time>2012-07-28T12:25:15Z</time>
      </trkpt>
      <trkpt lat="53.399395029991865" lon="26.873519998043776">
        <ele>149.62</ele>
        <time>2012-07-28T12:25:29Z</time>
      </trkpt>
      <trkpt lat="53.399138040840626" lon="26.873015994206071">
        <ele>150.09999999999999</ele>
        <time>2012-07-28T12:25:42Z</time>
      </trkpt>
      <trkpt lat="53.398879962041974" lon="26.872424986213446">
        <ele>150.58000000000001</ele>
        <time>2012-07-28T12:25:56Z</time>
      </trkpt>
      <trkpt lat="53.398610986769199" lon="26.871684025973082">
        <ele>151.06</ele>
        <time>2012-07-28T12:26:12Z</time>
      </trkpt>
      <trkpt lat="53.398274034261703" lon="26.870786994695663">
        <ele>150.58000000000001</ele>
        <time>2012-07-28T12:26:30Z</time>
      </trkpt>
      <trkpt lat="53.398041017353535" lon="26.870038993656635">
        <ele>150.58000000000001</ele>
        <time>2012-07-28T12:26:45Z</time>
      </trkpt>
      <trkpt lat="53.397889975458384" lon="26.869383025914431">
        <ele>150.09999999999999</ele>
        <time>2012-07-28T12:26:58Z</time>
      </trkpt>
      <trkpt lat="53.39777497574687" lon="26.868835017085075">
        <ele>149.62</ele>
        <time>2012-07-28T12:27:09Z</time>
      </trkpt>
      <trkpt lat="53.397487979382277" lon="26.868163039907813">
        <ele>149.62</ele>
        <time>2012-07-28T12:27:24Z</time>
      </trkpt>
      <trkpt lat="53.397164018824697" lon="26.868107970803976">
        <ele>149.13999999999999</ele>
        <time>2012-07-28T12:27:34Z</time>
      </trkpt>
      <trkpt lat="53.396707959473133" lon="26.868089027702808">
        <ele>149.62</ele>
        <time>2012-07-28T12:27:49Z</time>
      </trkpt>
      <trkpt lat="53.396436972543597" lon="26.867654006928205">
        <ele>149.62</ele>
        <time>2012-07-28T12:28:01Z</time>
      </trkpt>
      <trkpt lat="53.396360026672482" lon="26.867156960070133">
        <ele>148.66</ele>
        <time>2012-07-28T12:28:11Z</time>
      </trkpt>
      <trkpt lat="53.396357009187341" lon="26.866486994549632">
        <ele>147.69999999999999</ele>
        <time>2012-07-28T12:28:23Z</time>
      </trkpt>
      <trkpt lat="53.396087028086185" lon="26.865996988490224">
        <ele>148.18000000000001</ele>
        <time>2012-07-28T12:28:35Z</time>
      </trkpt>
      <trkpt lat="53.39583900757134" lon="26.865513017401099">
        <ele>148.66</ele>
        <time>2012-07-28T12:28:46Z</time>
      </trkpt>
      <trkpt lat="53.395740017294884" lon="26.86459201388061">
        <ele>148.66</ele>
        <time>2012-07-28T12:29:02Z</time>
      </trkpt>
      <trkpt lat="53.395807994529605" lon="26.863991031423211">
        <ele>148.18000000000001</ele>
        <time>2012-07-28T12:29:13Z</time>
      </trkpt>
      <trkpt lat="53.395803971216083" lon="26.863510999828577">
        <ele>148.18000000000001</ele>
        <time>2012-07-28T12:29:24Z</time>
      </trkpt>
      <trkpt lat="53.39577597565949" lon="26.862867018207908">
        <ele>149.13999999999999</ele>
        <time>2012-07-28T12:29:35Z</time>
      </trkpt>
      <trkpt lat="53.395910002291203" lon="26.861953977495432">
        <ele>149.62</ele>
        <time>2012-07-28T12:29:52Z</time>
      </trkpt>
      <trkpt lat="53.395902961492538" lon="26.861258028075099">
        <ele>149.13999999999999</ele>
        <time>2012-07-28T12:30:05Z</time>
      </trkpt>
      <trkpt lat="53.395685032010078" lon="26.860798029229045">
        <ele>148.18000000000001</ele>
        <time>2012-07-28T12:30:17Z</time>
      </trkpt>
      <trkpt lat="53.395417984575033" lon="26.860517989844084">
        <ele>149.13999999999999</ele>
        <time>2012-07-28T12:30:28Z</time>
      </trkpt>
      <trkpt lat="53.395096035674214" lon="26.860256977379322">
        <ele>149.62</ele>
        <time>2012-07-28T12:30:41Z</time>
      </trkpt>
      <trkpt lat="53.394839968532324" lon="26.860090009868145">
        <ele>150.09999999999999</ele>
        <time>2012-07-28T12:30:52Z</time>
      </trkpt>
      <trkpt lat="53.39459496550262" lon="26.859675021842122">
        <ele>150.58000000000001</ele>
        <time>2012-07-28T12:31:06Z</time>
      </trkpt>
      <trkpt lat="53.394403019919991" lon="26.859316024929285">
        <ele>150.58000000000001</ele>
        <time>2012-07-28T12:31:20Z</time>
      </trkpt>
      <trkpt lat="53.394303023815155" lon="26.859161965548992">
        <ele>150.09999999999999</ele>
        <time>2012-07-28T12:31:31Z</time>
      </trkpt>
      <trkpt lat="53.394281985238194" lon="26.859157020226121">
        <ele>150.09999999999999</ele>
        <time>2012-07-28T12:31:43Z</time>
      </trkpt>
      <trkpt lat="53.394282991066575" lon="26.85915601439774">
        <ele>149.62</ele>
        <time>2012-07-28T12:31:59Z</time>
      </trkpt>
      <trkpt lat="53.394310986623168" lon="26.859176969155669">
        <ele>150.09999999999999</ele>
        <time>2012-07-28T12:32:12Z</time>
      </trkpt>
      <trkpt lat="53.394373012706637" lon="26.859232038259506">
        <ele>149.62</ele>
        <time>2012-07-28T12:32:25Z</time>
      </trkpt>
      <trkpt lat="53.394373012706637" lon="26.859232038259506">
        <ele>149.62</ele>
        <time>2012-07-28T12:32:56Z</time>
      </trkpt>
      <trkpt lat="53.394375024363399" lon="26.859228014945984">
        <ele>148.66</ele>
        <time>2012-07-28T12:33:50Z</time>
      </trkpt>
      <trkpt lat="53.394388016313314" lon="26.859248969703913">
        <ele>148.66</ele>
        <time>2012-07-28T12:34:03Z</time>
      </trkpt>
      <trkpt lat="53.39437996968627" lon="26.859255004674196">
        <ele>148.66</ele>
        <time>2012-07-28T12:34:26Z</time>
      </trkpt>
      <trkpt lat="53.394391033798456" lon="26.8592410068959">
        <ele>149.13999999999999</ele>
        <time>2012-07-28T12:34:48Z</time>
      </trkpt>
      <trkpt lat="53.394407965242863" lon="26.859227009117603">
        <ele>148.66</ele>
        <time>2012-07-28T12:35:02Z</time>
      </trkpt>
      <trkpt lat="53.394452976062894" lon="26.859109997749329">
        <ele>148.66</ele>
        <time>2012-07-28T12:35:15Z</time>
      </trkpt>
      <trkpt lat="53.39446697384119" lon="26.859016036614776">
        <ele>148.18000000000001</ele>
        <time>2012-07-28T12:35:23Z</time>
      </trkpt>
      <trkpt lat="53.394459011033177" lon="26.858857031911612">
        <ele>146.74000000000001</ele>
        <time>2012-07-28T12:35:36Z</time>
      </trkpt>
      <trkpt lat="53.394459011033177" lon="26.858685035258532">
        <ele>146.74000000000001</ele>
        <time>2012-07-28T12:35:49Z</time>
      </trkpt>
      <trkpt lat="53.394437972456217" lon="26.858551008626819">
        <ele>147.22</ele>
        <time>2012-07-28T12:36:01Z</time>
      </trkpt>
      <trkpt lat="53.394388016313314" lon="26.858419999480247">
        <ele>148.66</ele>
        <time>2012-07-28T12:36:13Z</time>
      </trkpt>
      <trkpt lat="53.394372006878257" lon="26.858366020023823">
        <ele>148.66</ele>
        <time>2012-07-28T12:36:26Z</time>
      </trkpt>
      <trkpt lat="53.39437703602016" lon="26.858353028073907">
        <ele>149.13999999999999</ele>
        <time>2012-07-28T12:39:41Z</time>
      </trkpt>
      <trkpt lat="53.394378963857889" lon="26.858343975618482">
        <ele>149.62</ele>
        <time>2012-07-28T12:40:13Z</time>
      </trkpt>
      <trkpt lat="53.394376030191779" lon="26.858315980061889">
        <ele>149.62</ele>
        <time>2012-07-28T12:40:32Z</time>
      </trkpt>
      <trkpt lat="53.394392961636186" lon="26.858235010877252">
        <ele>150.09999999999999</ele>
        <time>2012-07-28T12:41:08Z</time>
      </trkpt>
      <trkpt lat="53.394393967464566" lon="26.85823199339211">
        <ele>149.62</ele>
        <time>2012-07-28T12:41:40Z</time>
      </trkpt>
      <trkpt lat="53.394393967464566" lon="26.858227970078588">
        <ele>150.09999999999999</ele>
        <time>2012-07-28T12:43:24Z</time>
      </trkpt>
      <trkpt lat="53.394732009619474" lon="26.858264012262225">
        <ele>149.62</ele>
        <time>2012-07-28T12:43:35Z</time>
      </trkpt>
      <trkpt lat="53.395042978227139" lon="26.858501974493265">
        <ele>149.62</ele>
        <time>2012-07-28T12:43:45Z</time>
      </trkpt>
      <trkpt lat="53.395430976524949" lon="26.858828030526638">
        <ele>151.06</ele>
        <time>2012-07-28T12:43:58Z</time>
      </trkpt>
      <trkpt lat="53.395814029499888" lon="26.858600964769721">
        <ele>154.43000000000001</ele>
        <time>2012-07-28T12:44:10Z</time>
      </trkpt>
      <trkpt lat="53.396000023931265" lon="26.85857598669827">
        <ele>156.83000000000001</ele>
        <time>2012-07-28T12:44:18Z</time>
      </trkpt>
      <trkpt lat="53.396071018651128" lon="26.858365014195442">
        <ele>157.78999999999999</ele>
        <time>2012-07-28T12:44:25Z</time>
      </trkpt>
      <trkpt lat="53.396050985902548" lon="26.85825596563518">
        <ele>157.78999999999999</ele>
        <time>2012-07-28T12:44:27Z</time>
      </trkpt>
      <trkpt lat="53.395999018102884" lon="26.857552975416183">
        <ele>155.38999999999999</ele>
        <time>2012-07-28T12:44:39Z</time>
      </trkpt>
      <trkpt lat="53.395987031981349" lon="26.857333034276962">
        <ele>154.43000000000001</ele>
        <time>2012-07-28T12:44:50Z</time>
      </trkpt>
      <trkpt lat="53.395987031981349" lon="26.857333034276962">
        <ele>154.43000000000001</ele>
        <time>2012-07-28T12:44:54Z</time>
      </trkpt>
      <trkpt lat="53.395989965647459" lon="26.857352983206511">
        <ele>154.43000000000001</ele>
        <time>2012-07-28T12:44:56Z</time>
      </trkpt>
      <trkpt lat="53.395988959819078" lon="26.857406040653586">
        <ele>154.91</ele>
        <time>2012-07-28T12:44:58Z</time>
      </trkpt>
      <trkpt lat="53.396048974245787" lon="26.857958994805813">
        <ele>155.87</ele>
        <time>2012-07-28T12:45:09Z</time>
      </trkpt>
      <trkpt lat="53.39609800837934" lon="26.858582021668553">
        <ele>158.75</ele>
        <time>2012-07-28T12:45:21Z</time>
      </trkpt>
      <trkpt lat="53.396073030307889" lon="26.858617980033159">
        <ele>159.24000000000001</ele>
        <time>2012-07-28T12:45:32Z</time>
      </trkpt>
      <trkpt lat="53.396063977852464" lon="26.858609011396766">
        <ele>159.24000000000001</ele>
        <time>2012-07-28T12:45:56Z</time>
      </trkpt>
      <trkpt lat="53.395992983132601" lon="26.858594007790089">
        <ele>159.72</ele>
        <time>2012-07-28T12:46:00Z</time>
      </trkpt>
      <trkpt lat="53.395833978429437" lon="26.858572969213128">
        <ele>158.27000000000001</ele>
        <time>2012-07-28T12:46:10Z</time>
      </trkpt>
      <trkpt lat="53.395414967089891" lon="26.858810009434819">
        <ele>155.87</ele>
        <time>2012-07-28T12:46:21Z</time>
      </trkpt>
      <trkpt lat="53.395201982930303" lon="26.858753012493253">
        <ele>154.91</ele>
        <time>2012-07-28T12:46:25Z</time>
      </trkpt>
      <trkpt lat="53.39508899487555" lon="26.858589984476566">
        <ele>154.43000000000001</ele>
        <time>2012-07-28T12:46:28Z</time>
      </trkpt>
      <trkpt lat="53.39481096714735" lon="26.858315980061889">
        <ele>153.47</ele>
        <time>2012-07-28T12:46:36Z</time>
      </trkpt>
      <trkpt lat="53.394580967724323" lon="26.85814700089395">
        <ele>152.50999999999999</ele>
        <time>2012-07-28T12:46:45Z</time>
      </trkpt>
      <trkpt lat="53.39463897049427" lon="26.858208021149039">
        <ele>150.58000000000001</ele>
        <time>2012-07-28T12:46:52Z</time>
      </trkpt>
      <trkpt lat="53.394827982410789" lon="26.858342969790101">
        <ele>150.09999999999999</ele>
        <time>2012-07-28T12:46:57Z</time>
      </trkpt>
      <trkpt lat="53.394914986565709" lon="26.858388986438513">
        <ele>150.09999999999999</ele>
        <time>2012-07-28T12:46:59Z</time>
      </trkpt>
      <trkpt lat="53.39508899487555" lon="26.858550002798438">
        <ele>150.58000000000001</ele>
        <time>2012-07-28T12:47:04Z</time>
      </trkpt>
      <trkpt lat="53.395183961838484" lon="26.858699033036828">
        <ele>150.58000000000001</ele>
        <time>2012-07-28T12:47:07Z</time>
      </trkpt>
      <trkpt lat="53.395437011495233" lon="26.858787965029478">
        <ele>150.09999999999999</ele>
        <time>2012-07-28T12:47:14Z</time>
      </trkpt>
      <trkpt lat="53.395876977592707" lon="26.858562994748354">
        <ele>153.47</ele>
        <time>2012-07-28T12:47:30Z</time>
      </trkpt>
      <trkpt lat="53.39607696980238" lon="26.858257977291942">
        <ele>154.91</ele>
        <time>2012-07-28T12:47:42Z</time>
      </trkpt>
      <trkpt lat="53.39599197730422" lon="26.857410985976458">
        <ele>153.47</ele>
        <time>2012-07-28T12:47:53Z</time>
      </trkpt>
      <trkpt lat="53.395975967869163" lon="26.857267990708351">
        <ele>152.99000000000001</ele>
        <time>2012-07-28T12:48:00Z</time>
      </trkpt>
      <trkpt lat="53.395946966484189" lon="26.857235971838236">
        <ele>153.94999999999999</ele>
        <time>2012-07-28T12:48:15Z</time>
      </trkpt>
      <trkpt lat="53.395954007282853" lon="26.857234966009855">
        <ele>153.47</ele>
        <time>2012-07-28T12:50:19Z</time>
      </trkpt>
      <trkpt lat="53.395953001454473" lon="26.857224991545081">
        <ele>153.47</ele>
        <time>2012-07-28T12:50:45Z</time>
      </trkpt>
      <trkpt lat="53.395939003676176" lon="26.857108986005187">
        <ele>152.99000000000001</ele>
        <time>2012-07-28T12:51:15Z</time>
      </trkpt>
      <trkpt lat="53.395887035876513" lon="26.856209021061659">
        <ele>152.03</ele>
        <time>2012-07-28T12:51:32Z</time>
      </trkpt>
      <trkpt lat="53.395844036713243" lon="26.855433024466038">
        <ele>152.03</ele>
        <time>2012-07-28T12:51:47Z</time>
      </trkpt>
      <trkpt lat="53.395980997011065" lon="26.854712013155222">
        <ele>153.47</ele>
        <time>2012-07-28T12:52:02Z</time>
      </trkpt>
      <trkpt lat="53.396383998915553" lon="26.854028971865773">
        <ele>153.94999999999999</ele>
        <time>2012-07-28T12:52:20Z</time>
      </trkpt>
      <trkpt lat="53.396750958636403" lon="26.85335498303175">
        <ele>154.43000000000001</ele>
        <time>2012-07-28T12:52:38Z</time>
      </trkpt>
      <trkpt lat="53.397147003561258" lon="26.852810997515917">
        <ele>154.91</ele>
        <time>2012-07-28T12:52:55Z</time>
      </trkpt>
      <trkpt lat="53.397546987980604" lon="26.852304982021451">
        <ele>155.38999999999999</ele>
        <time>2012-07-28T12:53:11Z</time>
      </trkpt>
      <trkpt lat="53.397913025692105" lon="26.851841965690255">
        <ele>156.83000000000001</ele>
        <time>2012-07-28T12:53:26Z</time>
      </trkpt>
      <trkpt lat="53.398258024826646" lon="26.851495038717985">
        <ele>155.38999999999999</ele>
        <time>2012-07-28T12:53:39Z</time>
      </trkpt>
      <trkpt lat="53.398527000099421" lon="26.851115003228188">
        <ele>157.78999999999999</ele>
        <time>2012-07-28T12:53:51Z</time>
      </trkpt>
      <trkpt lat="53.398860013112426" lon="26.850603958591819">
        <ele>159.72</ele>
        <time>2012-07-28T12:54:06Z</time>
      </trkpt>
      <trkpt lat="53.399172993376851" lon="26.849923012778163">
        <ele>161.16</ele>
        <time>2012-07-28T12:54:23Z</time>
      </trkpt>
      <trkpt lat="53.399353958666325" lon="26.849217005074024">
        <ele>162.59999999999999</ele>
        <time>2012-07-28T12:54:38Z</time>
      </trkpt>
      <trkpt lat="53.39947197586298" lon="26.848613005131483">
        <ele>162.59999999999999</ele>
        <time>2012-07-28T12:54:51Z</time>
      </trkpt>
      <trkpt lat="53.39959803968668" lon="26.847931975498796">
        <ele>164.03999999999999</ele>
        <time>2012-07-28T12:55:06Z</time>
      </trkpt>
      <trkpt lat="53.399673979729414" lon="26.847250023856759">
        <ele>167.41</ele>
        <time>2012-07-28T12:55:20Z</time>
      </trkpt>
      <trkpt lat="53.399781016632915" lon="26.846536975353956">
        <ele>167.88999999999999</ele>
        <time>2012-07-28T12:55:35Z</time>
      </trkpt>
      <trkpt lat="53.399904984980822" lon="26.845689984038472">
        <ele>167.41</ele>
        <time>2012-07-28T12:55:51Z</time>
      </trkpt>
      <trkpt lat="53.400006992742419" lon="26.84480301104486">
        <ele>166.44999999999999</ele>
        <time>2012-07-28T12:56:06Z</time>
      </trkpt>
      <trkpt lat="53.40011402964592" lon="26.843710010871291">
        <ele>165.96000000000001</ele>
        <time>2012-07-28T12:56:23Z</time>
      </trkpt>
      <trkpt lat="53.40020103380084" lon="26.842798981815577">
        <ele>165.96000000000001</ele>
        <time>2012-07-28T12:56:36Z</time>
      </trkpt>
      <trkpt lat="53.400245038792491" lon="26.84186096303165">
        <ele>165.96000000000001</ele>
        <time>2012-07-28T12:56:50Z</time>
      </trkpt>
      <trkpt lat="53.400275968015194" lon="26.841026963666081">
        <ele>165.96000000000001</ele>
        <time>2012-07-28T12:57:02Z</time>
      </trkpt>
      <trkpt lat="53.400284014642239" lon="26.840717000886798">
        <ele>165.47999999999999</ele>
        <time>2012-07-28T12:57:06Z</time>
      </trkpt>
      <trkpt lat="53.400471014901996" lon="26.840464035049081">
        <ele>164.03999999999999</ele>
        <time>2012-07-28T12:57:16Z</time>
      </trkpt>
      <trkpt lat="53.401008965447545" lon="26.84039999730885">
        <ele>165</ele>
        <time>2012-07-28T12:57:30Z</time>
      </trkpt>
      <trkpt lat="53.401544988155365" lon="26.840281980112195">
        <ele>168.37</ele>
        <time>2012-07-28T12:57:44Z</time>
      </trkpt>
      <trkpt lat="53.402301035821438" lon="26.84007503092289">
        <ele>169.33000000000001</ele>
        <time>2012-07-28T12:58:03Z</time>
      </trkpt>
      <trkpt lat="53.402741001918912" lon="26.839914014562964">
        <ele>168.37</ele>
        <time>2012-07-28T12:58:13Z</time>
      </trkpt>
      <trkpt lat="53.403699975460768" lon="26.839484022930264">
        <ele>164.03999999999999</ele>
        <time>2012-07-28T12:58:30Z</time>
      </trkpt>
      <trkpt lat="53.404397014528513" lon="26.839169031009078">
        <ele>160.19999999999999</ele>
        <time>2012-07-28T12:58:42Z</time>
      </trkpt>
      <trkpt lat="53.405268983915448" lon="26.838939031586051">
        <ele>158.75</ele>
        <time>2012-07-28T12:58:58Z</time>
      </trkpt>
      <trkpt lat="53.40576795861125" lon="26.838834006339312">
        <ele>159.72</ele>
        <time>2012-07-28T12:59:11Z</time>
      </trkpt>
      <trkpt lat="53.40600298717618" lon="26.838793018832803">
        <ele>159.72</ele>
        <time>2012-07-28T12:59:21Z</time>
      </trkpt>
      <trkpt lat="53.406124021857977" lon="26.838749013841152">
        <ele>160.68000000000001</ele>
        <time>2012-07-28T12:59:33Z</time>
      </trkpt>
      <trkpt lat="53.406112035736442" lon="26.838739039376378">
        <ele>160.68000000000001</ele>
        <time>2012-07-28T12:59:38Z</time>
      </trkpt>
      <trkpt lat="53.406096026301384" lon="26.838731998577714">
        <ele>160.68000000000001</ele>
        <time>2012-07-28T12:59:39Z</time>
      </trkpt>
      <trkpt lat="53.406080016866326" lon="26.838738033547997">
        <ele>160.68000000000001</ele>
        <time>2012-07-28T12:59:40Z</time>
      </trkpt>
      <trkpt lat="53.406060989946127" lon="26.838753037154675">
        <ele>160.68000000000001</ele>
        <time>2012-07-28T12:59:41Z</time>
      </trkpt>
      <trkpt lat="53.406038023531437" lon="26.8387689627707">
        <ele>160.68000000000001</ele>
        <time>2012-07-28T12:59:42Z</time>
      </trkpt>
      <trkpt lat="53.40585102327168" lon="26.838819002732635">
        <ele>160.68000000000001</ele>
        <time>2012-07-28T12:59:52Z</time>
      </trkpt>
      <trkpt lat="53.405849011614919" lon="26.838786983862519">
        <ele>160.19999999999999</ele>
        <time>2012-07-28T13:00:17Z</time>
      </trkpt>
      <trkpt lat="53.405859991908073" lon="26.838757982477546">
        <ele>160.19999999999999</ele>
        <time>2012-07-28T13:00:18Z</time>
      </trkpt>
      <trkpt lat="53.405878012999892" lon="26.838736021891236">
        <ele>160.19999999999999</ele>
        <time>2012-07-28T13:00:19Z</time>
      </trkpt>
      <trkpt lat="53.405901985242963" lon="26.838728981092572">
        <ele>160.19999999999999</ele>
        <time>2012-07-28T13:00:20Z</time>
      </trkpt>
      <trkpt lat="53.405930986627936" lon="26.838725041598082">
        <ele>160.68000000000001</ele>
        <time>2012-07-28T13:00:21Z</time>
      </trkpt>
      <trkpt lat="53.405963005498052" lon="26.838716994971037">
        <ele>160.68000000000001</ele>
        <time>2012-07-28T13:00:22Z</time>
      </trkpt>
      <trkpt lat="53.406039029359818" lon="26.838618004694581">
        <ele>160.68000000000001</ele>
        <time>2012-07-28T13:00:25Z</time>
      </trkpt>
      <trkpt lat="53.406031988561153" lon="26.83838197030127">
        <ele>160.19999999999999</ele>
        <time>2012-07-28T13:00:29Z</time>
      </trkpt>
      <trkpt lat="53.406030982732773" lon="26.838266970589757">
        <ele>159.72</ele>
        <time>2012-07-28T13:00:31Z</time>
      </trkpt>
      <trkpt lat="53.405977003276348" lon="26.838006963953376">
        <ele>159.72</ele>
        <time>2012-07-28T13:00:35Z</time>
      </trkpt>
      <trkpt lat="53.405905002728105" lon="26.837148992344737">
        <ele>159.72</ele>
        <time>2012-07-28T13:00:47Z</time>
      </trkpt>
      <trkpt lat="53.405811041593552" lon="26.836322033777833">
        <ele>158.27000000000001</ele>
        <time>2012-07-28T13:00:58Z</time>
      </trkpt>
      <trkpt lat="53.405893016606569" lon="26.835935963317752">
        <ele>157.78999999999999</ele>
        <time>2012-07-28T13:01:04Z</time>
      </trkpt>
      <trkpt lat="53.405984966084361" lon="26.83584401383996">
        <ele>157.78999999999999</ele>
        <time>2012-07-28T13:01:07Z</time>
      </trkpt>
      <trkpt lat="53.406501961871982" lon="26.83571501635015">
        <ele>159.24000000000001</ele>
        <time>2012-07-28T13:01:21Z</time>
      </trkpt>
      <trkpt lat="53.407000014558434" lon="26.835600016638637">
        <ele>161.16</ele>
        <time>2012-07-28T13:01:35Z</time>
      </trkpt>
      <trkpt lat="53.40759202837944" lon="26.835462972521782">
        <ele>160.19999999999999</ele>
        <time>2012-07-28T13:01:51Z</time>
      </trkpt>
      <trkpt lat="53.408117992803454" lon="26.835357025265694">
        <ele>160.68000000000001</ele>
        <time>2012-07-28T13:02:04Z</time>
      </trkpt>
      <trkpt lat="53.408238021656871" lon="26.835298016667366">
        <ele>161.16</ele>
        <time>2012-07-28T13:02:07Z</time>
      </trkpt>
      <trkpt lat="53.408887032419443" lon="26.835109004750848">
        <ele>161.63999999999999</ele>
        <time>2012-07-28T13:02:23Z</time>
      </trkpt>
      <trkpt lat="53.409075038507581" lon="26.835077991709113">
        <ele>161.16</ele>
        <time>2012-07-28T13:02:27Z</time>
      </trkpt>
      <trkpt lat="53.409537971019745" lon="26.834945976734161">
        <ele>160.19999999999999</ele>
        <time>2012-07-28T13:02:40Z</time>
      </trkpt>
      <trkpt lat="53.409924041479826" lon="26.834883028641343">
        <ele>160.68000000000001</ele>
        <time>2012-07-28T13:02:52Z</time>
      </trkpt>
      <trkpt lat="53.410165021196008" lon="26.834760988131166">
        <ele>160.19999999999999</ele>
        <time>2012-07-28T13:02:58Z</time>
      </trkpt>
      <trkpt lat="53.410283960402012" lon="26.834290008991957">
        <ele>157.31</ele>
        <time>2012-07-28T13:03:08Z</time>
      </trkpt>
      <trkpt lat="53.410208020359278" lon="26.833625994622707">
        <ele>155.87</ele>
        <time>2012-07-28T13:03:20Z</time>
      </trkpt>
      <trkpt lat="53.410182958468795" lon="26.833484005182981">
        <ele>156.34999999999999</ele>
        <time>2012-07-28T13:03:22Z</time>
      </trkpt>
      <trkpt lat="53.410055972635746" lon="26.832425035536289">
        <ele>154.43000000000001</ele>
        <time>2012-07-28T13:03:38Z</time>
      </trkpt>
      <trkpt lat="53.409987995401025" lon="26.832046005874872">
        <ele>153.94999999999999</ele>
        <time>2012-07-28T13:03:44Z</time>
      </trkpt>
      <trkpt lat="53.410087991505861" lon="26.831390038132668">
        <ele>152.03</ele>
        <time>2012-07-28T13:03:56Z</time>
      </trkpt>
      <trkpt lat="53.410098971799016" lon="26.831356007605791">
        <ele>152.03</ele>
        <time>2012-07-28T13:03:57Z</time>
      </trkpt>
      <trkpt lat="53.410099977627397" lon="26.831361958757043">
        <ele>151.53999999999999</ele>
        <time>2012-07-28T13:04:13Z</time>
      </trkpt>
      <trkpt lat="53.410281026735902" lon="26.831137994304299">
        <ele>152.03</ele>
        <time>2012-07-28T13:04:23Z</time>
      </trkpt>
      <trkpt lat="53.410565005615354" lon="26.830571964383125">
        <ele>152.99000000000001</ele>
        <time>2012-07-28T13:04:37Z</time>
      </trkpt>
      <trkpt lat="53.410585038363934" lon="26.830349005758762">
        <ele>152.99000000000001</ele>
        <time>2012-07-28T13:04:48Z</time>
      </trkpt>
      <trkpt lat="53.410603981465101" lon="26.829835027456284">
        <ele>153.47</ele>
        <time>2012-07-28T13:04:59Z</time>
      </trkpt>
      <trkpt lat="53.410605993121862" lon="26.829835027456284">
        <ele>152.99000000000001</ele>
        <time>2012-07-28T13:05:09Z</time>
      </trkpt>
      <trkpt lat="53.410619990900159" lon="26.829860005527735">
        <ele>152.99000000000001</ele>
        <time>2012-07-28T13:05:17Z</time>
      </trkpt>
      <trkpt lat="53.410930037498474" lon="26.830088999122381">
        <ele>153.47</ele>
        <time>2012-07-28T13:05:28Z</time>
      </trkpt>
      <trkpt lat="53.411016035825014" lon="26.830121017992496">
        <ele>153.47</ele>
        <time>2012-07-28T13:05:30Z</time>
      </trkpt>
      <trkpt lat="53.411151990294456" lon="26.830126969143748">
        <ele>153.47</ele>
        <time>2012-07-28T13:05:33Z</time>
      </trkpt>
      <trkpt lat="53.411303032189608" lon="26.830020016059279">
        <ele>153.47</ele>
        <time>2012-07-28T13:05:37Z</time>
      </trkpt>
      <trkpt lat="53.411832014098763" lon="26.829136982560158">
        <ele>152.99000000000001</ele>
        <time>2012-07-28T13:05:55Z</time>
      </trkpt>
      <trkpt lat="53.411862021312118" lon="26.829084008932114">
        <ele>152.99000000000001</ele>
        <time>2012-07-28T13:05:56Z</time>
      </trkpt>
      <trkpt lat="53.412244990468025" lon="26.828034007921815">
        <ele>153.47</ele>
        <time>2012-07-28T13:06:13Z</time>
      </trkpt>
      <trkpt lat="53.412411035969853" lon="26.827498991042376">
        <ele>152.99000000000001</ele>
        <time>2012-07-28T13:06:21Z</time>
      </trkpt>
      <trkpt lat="53.412558976560831" lon="26.827194979414344">
        <ele>152.99000000000001</ele>
        <time>2012-07-28T13:06:26Z</time>
      </trkpt>
      <trkpt lat="53.412758968770504" lon="26.826835982501507">
        <ele>152.99000000000001</ele>
        <time>2012-07-28T13:06:32Z</time>
      </trkpt>
      <trkpt lat="53.412862988188863" lon="26.826577987521887">
        <ele>152.99000000000001</ele>
        <time>2012-07-28T13:06:36Z</time>
      </trkpt>
      <trkpt lat="53.41294102370739" lon="26.826395010575652">
        <ele>152.99000000000001</ele>
        <time>2012-07-28T13:06:39Z</time>
      </trkpt>
      <trkpt lat="53.413088964298368" lon="26.826207004487514">
        <ele>152.99000000000001</ele>
        <time>2012-07-28T13:06:43Z</time>
      </trkpt>
      <trkpt lat="53.413591962307692" lon="26.825634017586708">
        <ele>152.50999999999999</ele>
        <time>2012-07-28T13:06:57Z</time>
      </trkpt>
      <trkpt lat="53.41384501196444" lon="26.825240990146995">
        <ele>153.47</ele>
        <time>2012-07-28T13:07:07Z</time>
      </trkpt>
      <trkpt lat="53.41386797837913" lon="26.824841005727649">
        <ele>153.47</ele>
        <time>2012-07-28T13:07:13Z</time>
      </trkpt>
      <trkpt lat="53.41403603553772" lon="26.824512016028166">
        <ele>152.03</ele>
        <time>2012-07-28T13:07:19Z</time>
      </trkpt>
      <trkpt lat="53.41455303132534" lon="26.824430041015148">
        <ele>151.06</ele>
        <time>2012-07-28T13:07:31Z</time>
      </trkpt>
      <trkpt lat="53.414760986343026" lon="26.824444038793445">
        <ele>151.06</ele>
        <time>2012-07-28T13:07:36Z</time>
      </trkpt>
      <trkpt lat="53.415460959076881" lon="26.824226025491953">
        <ele>151.06</ele>
        <time>2012-07-28T13:07:52Z</time>
      </trkpt>
      <trkpt lat="53.415593979880214" lon="26.824223008006811">
        <ele>151.53999999999999</ele>
        <time>2012-07-28T13:07:55Z</time>
      </trkpt>
      <trkpt lat="53.415759019553661" lon="26.82419802993536">
        <ele>151.53999999999999</ele>
        <time>2012-07-28T13:07:59Z</time>
      </trkpt>
      <trkpt lat="53.416234022006392" lon="26.823783041909337">
        <ele>151.53999999999999</ele>
        <time>2012-07-28T13:08:13Z</time>
      </trkpt>
      <trkpt lat="53.416453963145614" lon="26.823380962014198">
        <ele>152.03</ele>
        <time>2012-07-28T13:08:24Z</time>
      </trkpt>
      <trkpt lat="53.41653099283576" lon="26.822876036167145">
        <ele>152.03</ele>
        <time>2012-07-28T13:08:38Z</time>
      </trkpt>
      <trkpt lat="53.416527975350618" lon="26.822871007025242">
        <ele>152.03</ele>
        <time>2012-07-28T13:08:42Z</time>
      </trkpt>
      <trkpt lat="53.416685974225402" lon="26.822829013690352">
        <ele>152.03</ele>
        <time>2012-07-28T13:08:55Z</time>
      </trkpt>
      <trkpt lat="53.416697960346937" lon="26.822817027568817">
        <ele>152.50999999999999</ele>
        <time>2012-07-28T13:09:12Z</time>
      </trkpt>
      <trkpt lat="53.416703995317221" lon="26.822819961234927">
        <ele>151.53999999999999</ele>
        <time>2012-07-28T13:13:29Z</time>
      </trkpt>
      <trkpt lat="53.416711036115885" lon="26.822811998426914">
        <ele>151.06</ele>
        <time>2012-07-28T13:17:18Z</time>
      </trkpt>
      <trkpt lat="53.416705001145601" lon="26.822799006476998">
        <ele>149.62</ele>
        <time>2012-07-28T13:21:53Z</time>
      </trkpt>
      <trkpt lat="53.416699972003698" lon="26.822794983163476">
        <ele>149.62</ele>
        <time>2012-07-28T13:24:58Z</time>
      </trkpt>
      <trkpt lat="53.416707012802362" lon="26.822795988991857">
        <ele>149.62</ele>
        <time>2012-07-28T13:26:14Z</time>
      </trkpt>
      <trkpt lat="53.416711036115885" lon="26.822793977335095">
        <ele>149.13999999999999</ele>
        <time>2012-07-28T13:31:11Z</time>
      </trkpt>
      <trkpt lat="53.416715981438756" lon="26.82280202396214">
        <ele>150.09999999999999</ele>
        <time>2012-07-28T13:34:42Z</time>
      </trkpt>
      <trkpt lat="53.416712963953614" lon="26.822805963456631">
        <ele>151.06</ele>
        <time>2012-07-28T13:38:46Z</time>
      </trkpt>
      <trkpt lat="53.416724028065801" lon="26.822794983163476">
        <ele>151.53999999999999</ele>
        <time>2012-07-28T13:40:54Z</time>
      </trkpt>
      <trkpt lat="53.416713969781995" lon="26.822793977335095">
        <ele>150.09999999999999</ele>
        <time>2012-07-28T13:43:13Z</time>
      </trkpt>
      <trkpt lat="53.416708018630743" lon="26.822798000648618">
        <ele>149.62</ele>
        <time>2012-07-28T13:46:05Z</time>
      </trkpt>
      <trkpt lat="53.416711036115885" lon="26.822792971506715">
        <ele>149.62</ele>
        <time>2012-07-28T13:48:42Z</time>
      </trkpt>
      <trkpt lat="53.416710030287504" lon="26.82278199121356">
        <ele>149.62</ele>
        <time>2012-07-28T13:51:07Z</time>
      </trkpt>
      <trkpt lat="53.416708018630743" lon="26.822778973728418">
        <ele>149.62</ele>
        <time>2012-07-28T13:53:55Z</time>
      </trkpt>
      <trkpt lat="53.416689997538924" lon="26.822810992598534">
        <ele>150.09999999999999</ele>
        <time>2012-07-28T13:56:12Z</time>
      </trkpt>
      <trkpt lat="53.416630988940597" lon="26.822785008698702">
        <ele>151.53999999999999</ele>
        <time>2012-07-28T13:56:21Z</time>
      </trkpt>
      <trkpt lat="53.416629983112216" lon="26.82276195846498">
        <ele>151.06</ele>
        <time>2012-07-28T13:56:23Z</time>
      </trkpt>
      <trkpt lat="53.416525041684508" lon="26.822209004312754">
        <ele>152.03</ele>
        <time>2012-07-28T13:56:35Z</time>
      </trkpt>
      <trkpt lat="53.416337035596371" lon="26.821691002696753">
        <ele>151.06</ele>
        <time>2012-07-28T13:56:47Z</time>
      </trkpt>
      <trkpt lat="53.416291018947959" lon="26.821591006591916">
        <ele>150.58000000000001</ele>
        <time>2012-07-28T13:56:49Z</time>
      </trkpt>
      <trkpt lat="53.416125979274511" lon="26.820934033021331">
        <ele>150.09999999999999</ele>
        <time>2012-07-28T13:57:01Z</time>
      </trkpt>
      <trkpt lat="53.416180964559317" lon="26.82016097009182">
        <ele>150.58000000000001</ele>
        <time>2012-07-28T13:57:16Z</time>
      </trkpt>
      <trkpt lat="53.416372993960977" lon="26.819521011784673">
        <ele>151.06</ele>
        <time>2012-07-28T13:57:30Z</time>
      </trkpt>
      <trkpt lat="53.41663702391088" lon="26.818921035155654">
        <ele>150.58000000000001</ele>
        <time>2012-07-28T13:57:45Z</time>
      </trkpt>
      <trkpt lat="53.416970036923885" lon="26.818524990230799">
        <ele>151.06</ele>
        <time>2012-07-28T13:57:59Z</time>
      </trkpt>
      <trkpt lat="53.417455013841391" lon="26.818113019689918">
        <ele>150.58000000000001</ele>
        <time>2012-07-28T13:58:16Z</time>
      </trkpt>
      <trkpt lat="53.417911995202303" lon="26.81783901527524">
        <ele>151.06</ele>
        <time>2012-07-28T13:58:32Z</time>
      </trkpt>
      <trkpt lat="53.418428990989923" lon="26.817601975053549">
        <ele>150.09999999999999</ele>
        <time>2012-07-28T13:58:48Z</time>
      </trkpt>
      <trkpt lat="53.418803997337818" lon="26.817490998655558">
        <ele>150.58000000000001</ele>
        <time>2012-07-28T13:59:01Z</time>
      </trkpt>
      <trkpt lat="53.419304983690381" lon="26.817224035039544">
        <ele>150.09999999999999</ele>
        <time>2012-07-28T13:59:17Z</time>
      </trkpt>
      <trkpt lat="53.419705973938107" lon="26.817061007022858">
        <ele>150.58000000000001</ele>
        <time>2012-07-28T13:59:30Z</time>
      </trkpt>
      <trkpt lat="53.420027000829577" lon="26.816939972341061">
        <ele>150.58000000000001</ele>
        <time>2012-07-28T13:59:42Z</time>
      </trkpt>
      <trkpt lat="53.420395972207189" lon="26.816645013168454">
        <ele>151.06</ele>
        <time>2012-07-28T13:59:56Z</time>
      </trkpt>
      <trkpt lat="53.420773996040225" lon="26.816505035385489">
        <ele>151.53999999999999</ele>
        <time>2012-07-28T14:00:10Z</time>
      </trkpt>
      <trkpt lat="53.421041965484619" lon="26.816407972946763">
        <ele>150.58000000000001</ele>
        <time>2012-07-28T14:00:21Z</time>
      </trkpt>
      <trkpt lat="53.42147396877408" lon="26.816361034289002">
        <ele>149.13999999999999</ele>
        <time>2012-07-28T14:00:34Z</time>
      </trkpt>
      <trkpt lat="53.421731041744351" lon="26.816255003213882">
        <ele>148.66</ele>
        <time>2012-07-28T14:00:44Z</time>
      </trkpt>
      <trkpt lat="53.422032035887241" lon="26.816280987113714">
        <ele>149.62</ele>
        <time>2012-07-28T14:00:55Z</time>
      </trkpt>
      <trkpt lat="53.422490023076534" lon="26.816362040117383">
        <ele>149.13999999999999</ele>
        <time>2012-07-28T14:01:08Z</time>
      </trkpt>
      <trkpt lat="53.42284700833261" lon="26.816275035962462">
        <ele>149.62</ele>
        <time>2012-07-28T14:01:20Z</time>
      </trkpt>
      <trkpt lat="53.423109026625752" lon="26.816404033452272">
        <ele>150.09999999999999</ele>
        <time>2012-07-28T14:01:30Z</time>
      </trkpt>
      <trkpt lat="53.423332991078496" lon="26.816546022891998">
        <ele>149.62</ele>
        <time>2012-07-28T14:01:42Z</time>
      </trkpt>
      <trkpt lat="53.423588974401355" lon="26.816229019314051">
        <ele>150.09999999999999</ele>
        <time>2012-07-28T14:01:53Z</time>
      </trkpt>
      <trkpt lat="53.423646977171302" lon="26.816112007945776">
        <ele>150.09999999999999</ele>
        <time>2012-07-28T14:02:04Z</time>
      </trkpt>
      <trkpt lat="53.423645971342921" lon="26.816112007945776">
        <ele>150.09999999999999</ele>
        <time>2012-07-28T14:03:01Z</time>
      </trkpt>
      <trkpt lat="53.423645971342921" lon="26.816112007945776">
        <ele>150.09999999999999</ele>
        <time>2012-07-28T14:03:04Z</time>
      </trkpt>
      <trkpt lat="53.423682013526559" lon="26.816041013225913">
        <ele>151.06</ele>
        <time>2012-07-28T14:03:07Z</time>
      </trkpt>
      <trkpt lat="53.424099013209343" lon="26.815726021304727">
        <ele>151.53999999999999</ele>
        <time>2012-07-28T14:03:21Z</time>
      </trkpt>
      <trkpt lat="53.424633024260402" lon="26.815328970551491">
        <ele>152.50999999999999</ele>
        <time>2012-07-28T14:03:38Z</time>
      </trkpt>
      <trkpt lat="53.425064021721482" lon="26.815083967521787">
        <ele>153.47</ele>
        <time>2012-07-28T14:03:52Z</time>
      </trkpt>
      <trkpt lat="53.425331991165876" lon="26.814979026094079">
        <ele>156.34999999999999</ele>
        <time>2012-07-28T14:04:05Z</time>
      </trkpt>
      <trkpt lat="53.425355041399598" lon="26.814992018043995">
        <ele>157.31</ele>
        <time>2012-07-28T14:04:14Z</time>
      </trkpt>
      <trkpt lat="53.425323022529483" lon="26.814952958375216">
        <ele>157.31</ele>
        <time>2012-07-28T14:04:29Z</time>
      </trkpt>
      <trkpt lat="53.425369039177895" lon="26.814906019717455">
        <ele>156.34999999999999</ele>
        <time>2012-07-28T14:05:20Z</time>
      </trkpt>
      <trkpt lat="53.425787966698408" lon="26.814748020842671">
        <ele>153.47</ele>
        <time>2012-07-28T14:05:32Z</time>
      </trkpt>
      <trkpt lat="53.42609298415482" lon="26.814277963712811">
        <ele>151.53999999999999</ele>
        <time>2012-07-28T14:05:43Z</time>
      </trkpt>
      <trkpt lat="53.426256012171507" lon="26.813298035413027">
        <ele>152.03</ele>
        <time>2012-07-28T14:05:59Z</time>
      </trkpt>
      <trkpt lat="53.426617020741105" lon="26.812752038240433">
        <ele>152.50999999999999</ele>
        <time>2012-07-28T14:06:13Z</time>
      </trkpt>
      <trkpt lat="53.427146002650261" lon="26.812288016080856">
        <ele>153.47</ele>
        <time>2012-07-28T14:06:28Z</time>
      </trkpt>
      <trkpt lat="53.427682025358081" lon="26.811788035556674">
        <ele>153.94999999999999</ele>
        <time>2012-07-28T14:06:44Z</time>
      </trkpt>
      <trkpt lat="53.428130960091949" lon="26.811123015359044">
        <ele>155.38999999999999</ele>
        <time>2012-07-28T14:06:58Z</time>
      </trkpt>
      <trkpt lat="53.428343022242188" lon="26.810856973752379">
        <ele>154.91</ele>
        <time>2012-07-28T14:07:04Z</time>
      </trkpt>
      <trkpt lat="53.428752981126308" lon="26.810247022658587">
        <ele>156.34999999999999</ele>
        <time>2012-07-28T14:07:18Z</time>
      </trkpt>
      <trkpt lat="53.42901298776269" lon="26.809573033824563">
        <ele>158.27000000000001</ele>
        <time>2012-07-28T14:07:31Z</time>
      </trkpt>
      <trkpt lat="53.429370978847146" lon="26.808894015848637">
        <ele>157.78999999999999</ele>
        <time>2012-07-28T14:07:45Z</time>
      </trkpt>
      <trkpt lat="53.429825026541948" lon="26.808155989274383">
        <ele>154.91</ele>
        <time>2012-07-28T14:08:01Z</time>
      </trkpt>
      <trkpt lat="53.430364988744259" lon="26.807597000151873">
        <ele>154.43000000000001</ele>
        <time>2012-07-28T14:08:17Z</time>
      </trkpt>
      <trkpt lat="53.430754998698831" lon="26.806784961372614">
        <ele>153.47</ele>
        <time>2012-07-28T14:08:34Z</time>
      </trkpt>
      <trkpt lat="53.431168980896473" lon="26.805826993659139">
        <ele>152.50999999999999</ele>
        <time>2012-07-28T14:08:53Z</time>
      </trkpt>
      <trkpt lat="53.431495036929846" lon="26.805046973749995">
        <ele>152.50999999999999</ele>
        <time>2012-07-28T14:09:10Z</time>
      </trkpt>
      <trkpt lat="53.431683965027332" lon="26.804424030706286">
        <ele>153.47</ele>
        <time>2012-07-28T14:09:22Z</time>
      </trkpt>
      <trkpt lat="53.431966016069055" lon="26.803781976923347">
        <ele>152.99000000000001</ele>
        <time>2012-07-28T14:09:35Z</time>
      </trkpt>
      <trkpt lat="53.432264998555183" lon="26.80314595811069">
        <ele>152.99000000000001</ele>
        <time>2012-07-28T14:09:49Z</time>
      </trkpt>
      <trkpt lat="53.432598011568189" lon="26.802463000640273">
        <ele>152.50999999999999</ele>
        <time>2012-07-28T14:10:05Z</time>
      </trkpt>
      <trkpt lat="53.433049963787198" lon="26.802217997610569">
        <ele>150.58000000000001</ele>
        <time>2012-07-28T14:10:17Z</time>
      </trkpt>
      <trkpt lat="53.433454977348447" lon="26.802012976258993">
        <ele>151.53999999999999</ele>
        <time>2012-07-28T14:10:30Z</time>
      </trkpt>
      <trkpt lat="53.433841969817877" lon="26.801951033994555">
        <ele>152.03</ele>
        <time>2012-07-28T14:10:43Z</time>
      </trkpt>
      <trkpt lat="53.434205995872617" lon="26.802000990137458">
        <ele>150.58000000000001</ele>
        <time>2012-07-28T14:10:58Z</time>
      </trkpt>
      <trkpt lat="53.434545965865254" lon="26.801997972652316">
        <ele>148.18000000000001</ele>
        <time>2012-07-28T14:11:12Z</time>
      </trkpt>
      <trkpt lat="53.434918960556388" lon="26.80206997320056">
        <ele>148.66</ele>
        <time>2012-07-28T14:11:24Z</time>
      </trkpt>
      <trkpt lat="53.435335038229823" lon="26.802151026204228">
        <ele>149.13999999999999</ele>
        <time>2012-07-28T14:11:38Z</time>
      </trkpt>
      <trkpt lat="53.43577902764082" lon="26.802316987887025">
        <ele>152.99000000000001</ele>
        <time>2012-07-28T14:11:52Z</time>
      </trkpt>
      <trkpt lat="53.436182029545307" lon="26.802481021732092">
        <ele>154.91</ele>
        <time>2012-07-28T14:12:05Z</time>
      </trkpt>
      <trkpt lat="53.436527028679848" lon="26.802613036707044">
        <ele>154.91</ele>
        <time>2012-07-28T14:12:18Z</time>
      </trkpt>
      <trkpt lat="53.436952996999025" lon="26.802590992301702">
        <ele>156.83000000000001</ele>
        <time>2012-07-28T14:12:31Z</time>
      </trkpt>
      <trkpt lat="53.437419030815363" lon="26.80254296399653">
        <ele>156.83000000000001</ele>
        <time>2012-07-28T14:12:45Z</time>
      </trkpt>
      <trkpt lat="53.437841981649399" lon="26.802601972594857">
        <ele>155.38999999999999</ele>
        <time>2012-07-28T14:13:00Z</time>
      </trkpt>
      <trkpt lat="53.438127972185612" lon="26.802762988954782">
        <ele>153.47</ele>
        <time>2012-07-28T14:13:13Z</time>
      </trkpt>
      <trkpt lat="53.43838102184236" lon="26.802775980904698">
        <ele>147.69999999999999</ele>
        <time>2012-07-28T14:13:26Z</time>
      </trkpt>
      <trkpt lat="53.438749993219972" lon="26.802482027560472">
        <ele>142.88999999999999</ele>
        <time>2012-07-28T14:13:39Z</time>
      </trkpt>
      <trkpt lat="53.439202029258013" lon="26.801926977932453">
        <ele>150.58000000000001</ele>
        <time>2012-07-28T14:13:56Z</time>
      </trkpt>
      <trkpt lat="53.439635038375854" lon="26.801225999370217">
        <ele>152.03</ele>
        <time>2012-07-28T14:14:15Z</time>
      </trkpt>
      <trkpt lat="53.440044997259974" lon="26.800666004419327">
        <ele>152.50999999999999</ele>
        <time>2012-07-28T14:14:30Z</time>
      </trkpt>
      <trkpt lat="53.44031598418951" lon="26.80026400834322">
        <ele>153.47</ele>
        <time>2012-07-28T14:14:43Z</time>
      </trkpt>
      <trkpt lat="53.440691996365786" lon="26.799970977008343">
        <ele>153.94999999999999</ele>
        <time>2012-07-28T14:14:57Z</time>
      </trkpt>
      <trkpt lat="53.441064991056919" lon="26.799827981740236">
        <ele>153.47</ele>
        <time>2012-07-28T14:15:11Z</time>
      </trkpt>
      <trkpt lat="53.441489031538367" lon="26.799761010333896">
        <ele>150.09999999999999</ele>
        <time>2012-07-28T14:15:25Z</time>
      </trkpt>
      <trkpt lat="53.441891027614474" lon="26.799860000610352">
        <ele>149.62</ele>
        <time>2012-07-28T14:15:38Z</time>
      </trkpt>
      <trkpt lat="53.442296041175723" lon="26.80039300583303">
        <ele>147.22</ele>
        <time>2012-07-28T14:15:53Z</time>
      </trkpt>
      <trkpt lat="53.442624025046825" lon="26.800586963072419">
        <ele>145.30000000000001</ele>
        <time>2012-07-28T14:16:04Z</time>
      </trkpt>
      <trkpt lat="53.443102966994047" lon="26.801023995503783">
        <ele>150.09999999999999</ele>
        <time>2012-07-28T14:16:18Z</time>
      </trkpt>
      <trkpt lat="53.44347202219069" lon="26.801514001563191">
        <ele>154.91</ele>
        <time>2012-07-28T14:16:31Z</time>
      </trkpt>
      <trkpt lat="53.443886004388332" lon="26.802010964602232">
        <ele>156.34999999999999</ele>
        <time>2012-07-28T14:16:45Z</time>
      </trkpt>
      <trkpt lat="53.44439503736794" lon="26.802404997870326">
        <ele>159.72</ele>
        <time>2012-07-28T14:17:00Z</time>
      </trkpt>
      <trkpt lat="53.444771971553564" lon="26.802576994523406">
        <ele>160.19999999999999</ele>
        <time>2012-07-28T14:17:10Z</time>
      </trkpt>
      <trkpt lat="53.445253008976579" lon="26.80267296731472">
        <ele>161.16</ele>
        <time>2012-07-28T14:17:25Z</time>
      </trkpt>
      <trkpt lat="53.445577975362539" lon="26.802866002544761">
        <ele>163.56</ele>
        <time>2012-07-28T14:17:39Z</time>
      </trkpt>
      <trkpt lat="53.446004027500749" lon="26.803328013047576">
        <ele>163.56</ele>
        <time>2012-07-28T14:17:52Z</time>
      </trkpt>
      <trkpt lat="53.446346009150147" lon="26.803621966391802">
        <ele>163.08000000000001</ele>
        <time>2012-07-28T14:18:05Z</time>
      </trkpt>
      <trkpt lat="53.446334023028612" lon="26.803604029119015">
        <ele>163.56</ele>
        <time>2012-07-28T14:18:32Z</time>
      </trkpt>
      <trkpt lat="53.4464589972049" lon="26.803682986646891">
        <ele>162.59999999999999</ele>
        <time>2012-07-28T14:20:21Z</time>
      </trkpt>
      <trkpt lat="53.446904998272657" lon="26.803834028542042">
        <ele>160.68000000000001</ele>
        <time>2012-07-28T14:20:33Z</time>
      </trkpt>
      <trkpt lat="53.447445966303349" lon="26.803819024935365">
        <ele>159.24000000000001</ele>
        <time>2012-07-28T14:20:47Z</time>
      </trkpt>
      <trkpt lat="53.447916023433208" lon="26.804012982174754">
        <ele>152.99000000000001</ele>
        <time>2012-07-28T14:21:01Z</time>
      </trkpt>
      <trkpt lat="53.448281977325678" lon="26.804263014346361">
        <ele>147.22</ele>
        <time>2012-07-28T14:21:14Z</time>
      </trkpt>
      <trkpt lat="53.448764020577073" lon="26.804557973518968">
        <ele>144.34</ele>
        <time>2012-07-28T14:21:29Z</time>
      </trkpt>
      <trkpt lat="53.449324015527964" lon="26.804970027878881">
        <ele>147.69999999999999</ele>
        <time>2012-07-28T14:21:43Z</time>
      </trkpt>
      <trkpt lat="53.449383024126291" lon="26.804968016222119">
        <ele>149.62</ele>
        <time>2012-07-28T14:22:01Z</time>
      </trkpt>
      <trkpt lat="53.449396016076207" lon="26.804983019828796">
        <ele>149.62</ele>
        <time>2012-07-28T14:22:49Z</time>
      </trkpt>
      <trkpt lat="53.44942300580442" lon="26.805027024820447">
        <ele>150.09999999999999</ele>
        <time>2012-07-28T14:22:51Z</time>
      </trkpt>
      <trkpt lat="53.449774039909244" lon="26.805323995649815">
        <ele>154.43000000000001</ele>
        <time>2012-07-28T14:23:05Z</time>
      </trkpt>
      <trkpt lat="53.450142005458474" lon="26.805682992562652">
        <ele>156.34999999999999</ele>
        <time>2012-07-28T14:23:17Z</time>
      </trkpt>
      <trkpt lat="53.450315007939935" lon="26.805877033621073">
        <ele>154.91</ele>
        <time>2012-07-28T14:23:28Z</time>
      </trkpt>
      <trkpt lat="53.450391031801701" lon="26.80597904138267">
        <ele>154.91</ele>
        <time>2012-07-28T14:23:33Z</time>
      </trkpt>
      <trkpt lat="53.450649026781321" lon="26.806354969739914">
        <ele>154.91</ele>
        <time>2012-07-28T14:23:47Z</time>
      </trkpt>
      <trkpt lat="53.450814988464117" lon="26.806593015789986">
        <ele>155.87</ele>
        <time>2012-07-28T14:23:59Z</time>
      </trkpt>
      <trkpt lat="53.450867040082812" lon="26.80658102966845">
        <ele>155.87</ele>
        <time>2012-07-28T14:24:04Z</time>
      </trkpt>
      <trkpt lat="53.451095027849078" lon="26.806426970288157">
        <ele>158.75</ele>
        <time>2012-07-28T14:24:18Z</time>
      </trkpt>
      <trkpt lat="53.451443966478109" lon="26.806048024445772">
        <ele>161.16</ele>
        <time>2012-07-28T14:24:34Z</time>
      </trkpt>
      <trkpt lat="53.451903965324163" lon="26.805585008114576">
        <ele>165</ele>
        <time>2012-07-28T14:24:49Z</time>
      </trkpt>
      <trkpt lat="53.452467983588576" lon="26.804985031485558">
        <ele>164.52000000000001</ele>
        <time>2012-07-28T14:25:05Z</time>
      </trkpt>
      <trkpt lat="53.452505031600595" lon="26.804939014837146">
        <ele>164.52000000000001</ele>
        <time>2012-07-28T14:25:06Z</time>
      </trkpt>
      <trkpt lat="53.452786998823285" lon="26.804607007652521">
        <ele>164.03999999999999</ele>
        <time>2012-07-28T14:25:12Z</time>
      </trkpt>
      <trkpt lat="53.45391302369535" lon="26.803678963333368">
        <ele>161.63999999999999</ele>
        <time>2012-07-28T14:25:28Z</time>
      </trkpt>
      <trkpt lat="53.454662030562758" lon="26.802991982549429">
        <ele>161.16</ele>
        <time>2012-07-28T14:25:42Z</time>
      </trkpt>
      <trkpt lat="53.454938968643546" lon="26.802695011720061">
        <ele>161.16</ele>
        <time>2012-07-28T14:25:49Z</time>
      </trkpt>
      <trkpt lat="53.455401984974742" lon="26.802083970978856">
        <ele>160.68000000000001</ele>
        <time>2012-07-28T14:26:01Z</time>
      </trkpt>
      <trkpt lat="53.455594014376402" lon="26.801741989329457">
        <ele>159.24000000000001</ele>
        <time>2012-07-28T14:26:07Z</time>
      </trkpt>
      <trkpt lat="53.455999027937651" lon="26.800945037975907">
        <ele>157.31</ele>
        <time>2012-07-28T14:26:20Z</time>
      </trkpt>
      <trkpt lat="53.456130959093571" lon="26.800686037167907">
        <ele>156.83000000000001</ele>
        <time>2012-07-28T14:26:24Z</time>
      </trkpt>
      <trkpt lat="53.456375040113926" lon="26.800210028886795">
        <ele>155.87</ele>
        <time>2012-07-28T14:26:31Z</time>
      </trkpt>
      <trkpt lat="53.456976022571325" lon="26.799007980152965">
        <ele>153.94999999999999</ele>
        <time>2012-07-28T14:26:49Z</time>
      </trkpt>
      <trkpt lat="53.457500981166959" lon="26.797997038811445">
        <ele>151.06</ele>
        <time>2012-07-28T14:27:04Z</time>
      </trkpt>
      <trkpt lat="53.45799601636827" lon="26.796987019479275">
        <ele>148.66</ele>
        <time>2012-07-28T14:27:19Z</time>
      </trkpt>
      <trkpt lat="53.458550982177258" lon="26.795846996828914">
        <ele>152.03</ele>
        <time>2012-07-28T14:27:37Z</time>
      </trkpt>
      <trkpt lat="53.458988014608622" lon="26.794874025508761">
        <ele>154.91</ele>
        <time>2012-07-28T14:27:53Z</time>
      </trkpt>
      <trkpt lat="53.459175014868379" lon="26.794280000030994">
        <ele>154.91</ele>
        <time>2012-07-28T14:28:02Z</time>
      </trkpt>
      <trkpt lat="53.459491012617946" lon="26.793251037597656">
        <ele>152.99000000000001</ele>
        <time>2012-07-28T14:28:17Z</time>
      </trkpt>
      <trkpt lat="53.459533005952835" lon="26.793104019016027">
        <ele>152.03</ele>
        <time>2012-07-28T14:28:19Z</time>
      </trkpt>
      <trkpt lat="53.459576005116105" lon="26.792955994606018">
        <ele>151.53999999999999</ele>
        <time>2012-07-28T14:28:21Z</time>
      </trkpt>
      <trkpt lat="53.459815979003906" lon="26.791973970830441">
        <ele>153.94999999999999</ele>
        <time>2012-07-28T14:28:34Z</time>
      </trkpt>
      <trkpt lat="53.460170030593872" lon="26.790626998990774">
        <ele>151.53999999999999</ele>
        <time>2012-07-28T14:28:52Z</time>
      </trkpt>
      <trkpt lat="53.460656013339758" lon="26.788851041346788">
        <ele>152.50999999999999</ele>
        <time>2012-07-28T14:29:13Z</time>
      </trkpt>
      <trkpt lat="53.461048034951091" lon="26.787369037047029">
        <ele>152.99000000000001</ele>
        <time>2012-07-28T14:29:31Z</time>
      </trkpt>
      <trkpt lat="53.461165968328714" lon="26.786886993795633">
        <ele>152.99000000000001</ele>
        <time>2012-07-28T14:29:37Z</time>
      </trkpt>
      <trkpt lat="53.46143301576376" lon="26.78543902002275">
        <ele>152.50999999999999</ele>
        <time>2012-07-28T14:29:55Z</time>
      </trkpt>
      <trkpt lat="53.461665026843548" lon="26.783932959660888">
        <ele>152.99000000000001</ele>
        <time>2012-07-28T14:30:14Z</time>
      </trkpt>
      <trkpt lat="53.461676007136703" lon="26.783860959112644">
        <ele>152.99000000000001</ele>
        <time>2012-07-28T14:30:15Z</time>
      </trkpt>
      <trkpt lat="53.461897037923336" lon="26.782450033351779">
        <ele>153.94999999999999</ele>
        <time>2012-07-28T14:30:33Z</time>
      </trkpt>
      <trkpt lat="53.46207900904119" lon="26.781119992956519">
        <ele>155.38999999999999</ele>
        <time>2012-07-28T14:30:49Z</time>
      </trkpt>
      <trkpt lat="53.462291993200779" lon="26.77996002137661">
        <ele>158.27000000000001</ele>
        <time>2012-07-28T14:31:04Z</time>
      </trkpt>
      <trkpt lat="53.462748974561691" lon="26.778498971834779">
        <ele>160.19999999999999</ele>
        <time>2012-07-28T14:31:23Z</time>
      </trkpt>
      <trkpt lat="53.463219031691551" lon="26.777261970564723">
        <ele>161.16</ele>
        <time>2012-07-28T14:31:40Z</time>
      </trkpt>
      <trkpt lat="53.463897965848446" lon="26.776328980922699">
        <ele>159.72</ele>
        <time>2012-07-28T14:31:54Z</time>
      </trkpt>
      <trkpt lat="53.464604979380965" lon="26.775484001263976">
        <ele>160.19999999999999</ele>
        <time>2012-07-28T14:32:10Z</time>
      </trkpt>
      <trkpt lat="53.465033965185285" lon="26.774957031011581">
        <ele>161.63999999999999</ele>
        <time>2012-07-28T14:32:21Z</time>
      </trkpt>
      <trkpt lat="53.465077970176935" lon="26.774915037676692">
        <ele>161.16</ele>
        <time>2012-07-28T14:32:22Z</time>
      </trkpt>
      <trkpt lat="53.465119041502476" lon="26.774866003543139">
        <ele>161.63999999999999</ele>
        <time>2012-07-28T14:32:23Z</time>
      </trkpt>
      <trkpt lat="53.465288020670414" lon="26.77467598579824">
        <ele>161.16</ele>
        <time>2012-07-28T14:32:27Z</time>
      </trkpt>
      <trkpt lat="53.466154038906097" lon="26.773633025586605">
        <ele>158.75</ele>
        <time>2012-07-28T14:32:45Z</time>
      </trkpt>
      <trkpt lat="53.46686901524663" lon="26.772555029019713">
        <ele>156.83000000000001</ele>
        <time>2012-07-28T14:33:00Z</time>
      </trkpt>
      <trkpt lat="53.467318033799529" lon="26.771464962512255">
        <ele>157.31</ele>
        <time>2012-07-28T14:33:16Z</time>
      </trkpt>
      <trkpt lat="53.467689016833901" lon="26.770489979535341">
        <ele>156.83000000000001</ele>
        <time>2012-07-28T14:33:31Z</time>
      </trkpt>
      <trkpt lat="53.468147004023194" lon="26.76926001906395">
        <ele>153.47</ele>
        <time>2012-07-28T14:33:49Z</time>
      </trkpt>
      <trkpt lat="53.468614965677261" lon="26.76807900890708">
        <ele>152.50999999999999</ele>
        <time>2012-07-28T14:34:05Z</time>
      </trkpt>
      <trkpt lat="53.4691690094769" lon="26.766699012368917">
        <ele>152.50999999999999</ele>
        <time>2012-07-28T14:34:24Z</time>
      </trkpt>
      <trkpt lat="53.469692040234804" lon="26.765360003337264">
        <ele>152.03</ele>
        <time>2012-07-28T14:34:43Z</time>
      </trkpt>
      <trkpt lat="53.470244994387031" lon="26.763959974050522">
        <ele>152.03</ele>
        <time>2012-07-28T14:35:03Z</time>
      </trkpt>
      <trkpt lat="53.470743969082832" lon="26.762689026072621">
        <ele>153.47</ele>
        <time>2012-07-28T14:35:21Z</time>
      </trkpt>
      <trkpt lat="53.471293989568949" lon="26.761301988735795">
        <ele>154.43000000000001</ele>
        <time>2012-07-28T14:35:41Z</time>
      </trkpt>
      <trkpt lat="53.471815008670092" lon="26.75995803438127">
        <ele>156.34999999999999</ele>
        <time>2012-07-28T14:36:00Z</time>
      </trkpt>
      <trkpt lat="53.472424037754536" lon="26.758386008441448">
        <ele>157.31</ele>
        <time>2012-07-28T14:36:22Z</time>
      </trkpt>
      <trkpt lat="53.472512969747186" lon="26.758159026503563">
        <ele>157.31</ele>
        <time>2012-07-28T14:36:25Z</time>
      </trkpt>
      <trkpt lat="53.472540965303779" lon="26.758080990985036">
        <ele>156.83000000000001</ele>
        <time>2012-07-28T14:36:26Z</time>
      </trkpt>
      <trkpt lat="53.47312199883163" lon="26.75662798807025">
        <ele>154.43000000000001</ele>
        <time>2012-07-28T14:36:44Z</time>
      </trkpt>
      <trkpt lat="53.473733961582184" lon="26.755053028464317">
        <ele>153.47</ele>
        <time>2012-07-28T14:37:03Z</time>
      </trkpt>
      <trkpt lat="53.474086001515388" lon="26.754087014123797">
        <ele>152.99000000000001</ele>
        <time>2012-07-28T14:37:18Z</time>
      </trkpt>
      <trkpt lat="53.474483974277973" lon="26.753026032820344">
        <ele>152.99000000000001</ele>
        <time>2012-07-28T14:37:32Z</time>
      </trkpt>
      <trkpt lat="53.474937016144395" lon="26.751743014901876">
        <ele>152.03</ele>
        <time>2012-07-28T14:37:49Z</time>
      </trkpt>
      <trkpt lat="53.475444037467241" lon="26.750391013920307">
        <ele>151.06</ele>
        <time>2012-07-28T14:38:07Z</time>
      </trkpt>
      <trkpt lat="53.475736984983087" lon="26.749547040089965">
        <ele>151.53999999999999</ele>
        <time>2012-07-28T14:38:19Z</time>
      </trkpt>
      <trkpt lat="53.475762968882918" lon="26.749497000128031">
        <ele>151.53999999999999</ele>
        <time>2012-07-28T14:38:20Z</time>
      </trkpt>
      <trkpt lat="53.475796999409795" lon="26.749462969601154">
        <ele>151.53999999999999</ele>
        <time>2012-07-28T14:38:21Z</time>
      </trkpt>
      <trkpt lat="53.475877968594432" lon="26.749418964609504">
        <ele>151.53999999999999</ele>
        <time>2012-07-28T14:38:23Z</time>
      </trkpt>
      <trkpt lat="53.475920967757702" lon="26.74940999597311">
        <ele>151.53999999999999</ele>
        <time>2012-07-28T14:38:24Z</time>
      </trkpt>
      <trkpt lat="53.475962961092591" lon="26.74940999597311">
        <ele>151.53999999999999</ele>
        <time>2012-07-28T14:38:25Z</time>
      </trkpt>
      <trkpt lat="53.47615297883749" lon="26.749548967927694">
        <ele>151.53999999999999</ele>
        <time>2012-07-28T14:38:30Z</time>
      </trkpt>
      <trkpt lat="53.476851023733616" lon="26.750434013083577">
        <ele>151.53999999999999</ele>
        <time>2012-07-28T14:38:51Z</time>
      </trkpt>
      <trkpt lat="53.477481007575989" lon="26.751154018566012">
        <ele>153.47</ele>
        <time>2012-07-28T14:39:09Z</time>
      </trkpt>
      <trkpt lat="53.47815097309649" lon="26.751824989914894">
        <ele>152.50999999999999</ele>
        <time>2012-07-28T14:39:28Z</time>
      </trkpt>
      <trkpt lat="53.478651037439704" lon="26.752340979874134">
        <ele>153.47</ele>
        <time>2012-07-28T14:39:43Z</time>
      </trkpt>
      <trkpt lat="53.479015985503793" lon="26.75261196680367">
        <ele>153.47</ele>
        <time>2012-07-28T14:39:53Z</time>
      </trkpt>
      <trkpt lat="53.479386968538165" lon="26.753262989223003">
        <ele>154.91</ele>
        <time>2012-07-28T14:40:07Z</time>
      </trkpt>
      <trkpt lat="53.479769015684724" lon="26.75394200719893">
        <ele>154.91</ele>
        <time>2012-07-28T14:40:22Z</time>
      </trkpt>
      <trkpt lat="53.480393970385194" lon="26.755027966573834">
        <ele>154.91</ele>
        <time>2012-07-28T14:40:43Z</time>
      </trkpt>
      <trkpt lat="53.480909038335085" lon="26.755918962880969">
        <ele>154.91</ele>
        <time>2012-07-28T14:41:02Z</time>
      </trkpt>
      <trkpt lat="53.481208020821214" lon="26.75596296787262">
        <ele>154.91</ele>
        <time>2012-07-28T14:41:12Z</time>
      </trkpt>
      <trkpt lat="53.481255965307355" lon="26.755911000072956">
        <ele>155.38999999999999</ele>
        <time>2012-07-28T14:41:14Z</time>
      </trkpt>
      <trkpt lat="53.481400972232223" lon="26.755881998687983">
        <ele>154.43000000000001</ele>
        <time>2012-07-28T14:41:26Z</time>
      </trkpt>
      <trkpt lat="53.481488982215524" lon="26.755754007026553">
        <ele>152.99000000000001</ele>
        <time>2012-07-28T14:41:40Z</time>
      </trkpt>
      <trkpt lat="53.481546984985471" lon="26.755689969286323">
        <ele>153.47</ele>
        <time>2012-07-28T14:41:49Z</time>
      </trkpt>
      <trkpt lat="53.481801962479949" lon="26.755926003679633">
        <ele>154.43000000000001</ele>
        <time>2012-07-28T14:42:08Z</time>
      </trkpt>
      <trkpt lat="53.481964990496635" lon="26.756233032792807">
        <ele>154.91</ele>
        <time>2012-07-28T14:42:26Z</time>
      </trkpt>
      <trkpt lat="53.482083007693291" lon="26.756442999467254">
        <ele>154.91</ele>
        <time>2012-07-28T14:42:39Z</time>
      </trkpt>
      <trkpt lat="53.482113014906645" lon="26.756449034437537">
        <ele>154.91</ele>
        <time>2012-07-28T14:42:42Z</time>
      </trkpt>
      <trkpt lat="53.482248969376087" lon="26.756183998659253">
        <ele>155.38999999999999</ele>
        <time>2012-07-28T14:42:57Z</time>
      </trkpt>
      <trkpt lat="53.4822759591043" lon="26.756124990060925">
        <ele>154.91</ele>
        <time>2012-07-28T14:43:01Z</time>
      </trkpt>
      <trkpt lat="53.482291968539357" lon="26.756029017269611">
        <ele>154.43000000000001</ele>
        <time>2012-07-28T14:43:17Z</time>
      </trkpt>
      <trkpt lat="53.482290962710977" lon="26.756055001169443">
        <ele>154.91</ele>
        <time>2012-07-28T14:46:45Z</time>
      </trkpt>
      <trkpt lat="53.482289034873247" lon="26.756055001169443">
        <ele>155.38999999999999</ele>
        <time>2012-07-28T14:48:06Z</time>
      </trkpt>
    </trkseg>
  </trk>

</gpx>
